[[{"header":{"parameterUnit":"m.s-1","parameterCategory":1,"la1":30.6,"la2":28.766,"lo1":-90.7593,"lo2":-88.6598,"dx":0.0162,"dy":0.0183,"nx":116,"ny":114,"refTime":"2022-12-04T18:00:00:Z","depth":0,"parameterNumber":2,"parameterNumberName":"U-component_of_WINDS"},"data":[0.0,0.0,0.0,0.0,0.0,0.0,0.0,0.0,0.0,0.0,0.0,0.0,0.0,0.0,0.0,0.0,0.0,0.0,0.0,0.0,0.0,0.0,0.0,0.0,0.0,0.0,0.0,0.0,0.0,0.0,0.0,0.0,0.0,0.0,0.0,0.0,0.0,0.0,0.0,0.0,0.0,0.0,0.0,0.0,0.0,0.0,0.0,0.0,0.0,0.0,0.0,0.0,0.0,0.0,0.0,0.0,0.0,0.0,0.0,0.0,0.0,0.0,0.0,0.0,0.0,0.0,0.0,0.0,0.0,0.0,0.0,0.0,0.0,0.0,0.0,0.0,0.0,0.0,0.0,0.0,0.0,0.0,0.0,0.0,0.0,0.0,0.0,0.0,0.0,0.0,0.0,0.0,0.0,0.0,0.0,0.0,0.0,0.0,0.0,0.0,0.0,0.0,0.0,0.0,0.0,0.0,0.0,0.0,0.0,0.0,0.0,0.0,0.0,0.0,0.0,0.0,0.0,0.0,0.0,0.0,0.0,0.0,0.0,0.0,0.0,0.0,0.0,0.0,0.0,0.0,0.0,0.0,0.0,0.0,0.0,0.0,0.0,0.0,0.0,0.0,0.0,0.0,0.0,0.0,0.0,0.0,0.0,0.0,0.0,0.0,0.0,0.0,0.0,0.0,0.0,0.0,0.0,0.0,0.0,0.0,0.0,0.0,0.0,0.0,0.0,0.0,0.0,0.0,0.0,0.0,0.0,0.0,0.0,0.0,0.0,0.0,0.0,0.0,0.0,0.0,0.0,0.0,0.0,0.0,0.0,0.0,0.0,0.0,0.0,0.0,0.0,0.0,0.0,0.0,0.0,0.0,0.0,0.0,0.0,0.0,0.0,0.0,0.0,0.0,0.0,0.0,0.0,0.0,0.0,0.0,0.0,0.0,0.0,0.0,0.0,0.0,0.0,0.0,0.0,0.0,0.0,0.0,0.0,0.0,0.0,0.0,0.0,0.0,0.0,0.0,0.0,0.0,0.0,0.0,0.0,0.0,0.0,0.0,0.0,0.0,0.0,0.0,0.0,0.0,0.0,0.0,0.0,0.0,0.0,0.0,0.0,0.0,0.0,0.0,0.0,0.0,0.0,0.0,0.0,0.0,0.0,0.0,0.0,0.0,0.0,0.0,0.0,0.0,0.0,0.0,0.0,0.0,0.0,0.0,0.0,0.0,0.0,0.0,0.0,0.0,0.0,0.0,0.0,0.0,0.0,0.0,0.0,0.0,0.0,0.0,0.0,0.0,0.0,0.0,0.0,0.0,0.0,0.0,0.0,0.0,0.0,0.0,0.0,0.0,0.0,0.0,0.0,0.0,0.0,0.0,0.0,0.0,0.0,0.0,0.0,0.0,0.0,0.0,0.0,0.0,0.0,0.0,0.0,0.0,0.0,0.0,0.0,0.0,0.0,0.0,0.0,0.0,0.0,0.0,0.0,0.0,0.0,0.0,0.0,0.0,0.0,0.0,0.0,0.0,0.0,0.0,0.0,0.0,0.0,0.0,0.0,0.0,0.0,0.0,0.0,0.0,0.0,0.0,0.0,0.0,0.0,0.0,0.0,0.0,0.0,0.0,0.0,0.0,0.0,0.0,0.0,0.0,0.0,0.0,0.0,0.0,0.0,0.0,0.0,0.0,0.0,0.0,0.0,0.0,0.0,0.0,0.0,0.0,0.0,0.0,0.0,0.0,0.0,0.0,0.0,0.0,0.0,0.0,0.0,0.0,0.0,0.0,0.0,0.0,0.0,0.0,0.0,0.0,0.0,0.0,0.0,0.0,0.0,0.0,0.0,0.0,0.0,0.0,0.0,0.0,0.0,0.0,0.0,0.0,0.0,0.0,0.0,0.0,0.0,0.0,0.0,0.0,0.0,0.0,0.0,0.0,0.0,0.0,0.0,0.0,0.0,0.0,0.0,0.0,0.0,0.0,0.0,0.0,0.0,0.0,0.0,0.0,0.0,0.0,0.0,0.0,0.0,0.0,0.0,0.0,0.0,0.0,0.0,0.0,0.0,0.0,0.0,0.0,0.0,0.0,0.0,0.0,0.0,0.0,0.0,0.0,0.0,0.0,0.0,0.0,0.0,0.0,0.0,0.0,0.0,0.0,0.0,0.0,0.0,0.0,0.0,0.0,0.0,0.0,0.0,0.0,0.0,0.0,0.0,0.0,0.0,0.0,0.0,0.0,0.0,0.0,0.0,0.0,0.0,0.0,0.0,0.0,0.0,0.0,0.0,0.0,0.0,0.0,0.0,0.0,0.0,0.0,0.0,0.0,0.0,0.0,0.0,0.0,0.0,0.0,0.0,0.0,0.0,0.0,0.0,0.0,0.0,0.0,0.0,0.0,0.0,0.0,0.0,0.0,0.0,0.0,0.0,0.0,0.0,0.0,0.0,0.0,0.0,0.0,0.0,0.0,0.0,0.0,0.0,0.0,0.0,0.0,0.0,0.0,0.0,0.0,0.0,0.0,0.0,0.0,0.0,0.0,0.0,0.0,0.0,0.0,0.0,0.0,0.0,0.0,0.0,0.0,0.0,0.0,0.0,0.0,0.0,0.0,0.0,0.0,0.0,0.0,0.0,0.0,0.0,0.0,0.0,0.0,0.0,0.0,0.0,0.0,0.0,0.0,0.0,0.0,0.0,0.0,0.0,0.0,0.0,0.0,0.0,0.0,0.0,0.0,0.0,0.0,0.0,0.0,0.0,0.0,0.0,0.0,0.0,0.0,0.0,0.0,0.0,0.0,0.0,0.0,0.0,0.0,0.0,0.0,0.0,0.0,0.0,0.0,0.0,0.0,0.0,0.0,0.0,0.0,0.0,0.0,0.0,0.0,0.0,0.0,0.0,0.0,0.0,0.0,0.0,0.0,0.0,0.0,0.0,0.0,0.0,0.0,0.0,0.0,0.0,0.0,0.0,0.0,0.0,0.0,0.0,0.0,0.0,0.0,0.0,0.0,0.0,0.0,0.0,0.0,0.0,0.0,0.0,0.0,0.0,0.0,0.0,0.0,0.0,0.0,0.0,0.0,0.0,0.0,0.0,0.0,0.0,0.0,0.0,0.0,0.0,0.0,0.0,0.0,0.0,0.0,0.0,0.0,0.0,0.0,0.0,0.0,0.0,0.0,0.0,0.0,0.0,0.0,0.0,0.0,0.0,0.0,0.0,0.0,0.0,0.0,0.0,0.0,0.0,0.0,0.0,0.0,0.0,0.0,0.0,0.0,0.0,0.0,0.0,0.0,0.0,0.0,0.0,0.0,0.0,0.0,0.0,0.0,0.0,0.0,0.0,0.0,0.0,0.0,0.0,0.0,0.0,0.0,0.0,0.0,0.0,0.0,0.0,0.0,0.0,0.0,0.0,0.0,0.0,0.0,0.0,0.0,0.0,0.0,0.0,0.0,0.0,0.0,0.0,0.0,0.0,0.0,0.0,0.0,0.0,0.0,0.0,0.0,0.0,0.0,0.0,0.0,0.0,0.0,0.0,0.0,0.0,0.0,0.0,0.0,0.0,0.0,0.0,0.0,0.0,0.0,0.0,0.0,0.0,0.0,0.0,0.0,0.0,0.0,0.0,0.0,0.0,0.0,0.0,0.0,0.0,0.0,0.0,0.0,0.0,0.0,0.0,0.0,0.0,0.0,0.0,0.0,0.0,0.0,0.0,0.0,0.0,0.0,0.0,0.0,0.0,0.0,0.0,0.0,0.0,0.0,0.0,0.0,0.0,0.0,0.0,0.0,0.0,0.0,0.0,0.0,0.0,0.0,0.0,0.0,0.0,0.0,0.0,0.0,0.0,0.0,0.0,0.0,0.0,0.0,0.0,0.0,0.0,0.0,0.0,0.0,0.0,0.0,0.0,0.0,0.0,0.0,0.0,0.0,0.0,0.0,0.0,0.0,0.0,0.0,0.0,0.0,0.0,0.0,0.0,0.0,0.0,0.0,0.0,0.0,0.0,0.0,0.0,0.0,0.0,0.0,0.0,0.0,0.0,0.0,0.0,0.0,0.0,0.0,0.0,0.0,0.0,0.0,0.0,0.0,0.0,0.0,0.0,0.0,0.0,0.0,0.0,0.0,0.0,0.0,0.0,0.0,0.0,0.0,0.0,0.0,0.0,0.0,0.0,0.0,0.0,0.0,0.0,0.0,0.0,0.0,0.0,0.0,0.0,0.0,0.0,0.0,0.0,0.0,0.0,0.0,0.0,0.0,0.0,0.0,0.0,0.0,0.0,0.0,0.0,0.0,0.0,0.0,0.0,0.0,0.0,0.0,0.0,0.0,0.0,0.0,0.0,0.0,0.0,0.0,0.0,0.0,0.0,0.0,0.0,0.0,0.0,0.0,0.0,0.0,0.0,0.0,0.0,0.0,0.0,0.0,0.0,0.0,0.0,0.0,0.0,0.0,0.0,0.0,0.0,0.0,0.0,0.0,0.0,0.0,0.0,0.0,0.0,0.0,0.0,0.0,0.0,0.0,0.0,0.0,0.0,0.0,0.0,0.0,0.0,0.0,0.0,0.0,0.0,0.0,0.0,0.0,0.0,0.0,0.0,0.0,0.0,0.0,0.0,0.0,0.0,0.0,0.0,0.0,0.0,0.0,0.0,0.0,0.0,0.0,0.0,0.0,0.0,0.0,0.0,0.0,0.0,0.0,0.0,0.0,0.0,0.0,0.0,0.0,0.0,0.0,0.0,0.0,0.0,0.0,0.0,0.0,0.0,0.0,0.0,0.0,0.0,0.0,0.0,0.0,0.0,0.0,0.0,0.0,0.0,0.0,0.0,0.0,0.0,0.0,0.0,0.0,0.0,0.0,0.0,0.0,0.0,0.0,0.0,0.0,0.0,0.0,0.0,0.0,0.0,0.0,0.0,0.0,0.0,0.0,0.0,0.0,0.0,0.0,0.0,0.0,0.0,0.0,0.0,0.0,0.0,0.0,0.0,0.0,0.0,0.0,0.0,0.0,0.0,0.0,0.0,0.0,0.0,0.0,0.0,0.0,0.0,0.0,0.0,0.0,0.0,0.0,0.0,0.0,0.0,0.0,0.0,0.0,0.0,0.0,0.0,0.0,0.0,0.0,0.0,0.0,0.0,0.0,0.0,0.0,0.0,0.0,0.0,0.0,0.0,0.0,0.0,0.0,0.0,0.0,0.0,0.0,0.0,0.0,0.0,0.0,0.0,0.0,0.0,0.0,0.0,0.0,0.0,0.0,0.0,0.0,0.0,0.0,0.0,0.0,0.0,0.0,0.0,0.0,0.0,0.0,0.0,0.0,0.0,0.0,0.0,0.0,0.0,0.0,0.0,0.0,0.0,0.0,0.0,0.0,0.0,0.0,0.0,0.0,0.0,0.0,0.0,0.0,0.0,0.0,0.0,0.0,0.0,0.0,0.0,0.0,0.0,0.0,0.0,0.0,0.0,0.0,0.0,0.0,0.0,0.0,0.0,0.0,0.0,0.0,0.0,0.0,0.0,0.0,0.0,0.0,0.0,0.0,0.0,0.0,0.0,0.0,0.0,0.0,0.0,0.0,0.0,0.0,0.0,0.0,0.0,0.0,0.0,0.0,0.0,0.0,0.0,0.0,0.0,0.0,0.0,0.0,0.0,0.0,0.0,0.0,0.0,0.0,0.0,0.0,0.0,0.0,0.0,0.0,0.0,0.0,0.0,0.0,0.0,0.0,0.0,0.0,0.0,0.0,0.0,0.0,0.0,0.0,0.0,0.0,0.0,0.0,0.0,0.0,0.0,0.0,0.0,0.0,0.0,0.0,0.0,0.0,0.0,0.0,0.0,0.0,0.0,0.0,0.0,0.0,0.0,0.0,0.0,0.0,0.0,0.0,0.0,0.0,0.0,0.0,0.0,0.0,0.0,0.0,0.0,0.0,0.0,0.0,0.0,0.0,0.0,0.0,0.0,0.0,0.0,0.0,0.0,0.0,0.0,0.0,0.0,0.0,0.0,0.0,0.0,0.0,0.0,0.0,0.0,0.0,0.0,0.0,0.0,0.0,0.0,0.0,0.0,0.0,0.0,0.0,0.0,0.0,0.0,0.0,0.0,0.0,0.0,0.0,0.0375,0.0,0.0,0.0,0.0,0.0,0.0,0.0,0.0,0.0,0.0,0.0,0.0,0.0,0.0,0.0,0.0,0.0,0.0,0.0,0.0,0.0,0.0,0.0,0.0,0.0512,0.0583,0.0767,0.0956,0.0,0.0,0.0,0.0,0.0,0.0,0.0,0.0,0.0,0.0837,0.0952,0.1012,0.1326,0.1838,0.1771,0.1679,0.1569,0.0,0.0,0.0,0.0,0.0,0.0,0.0,0.0,0.0,0.0,0.0,0.0,0.0,0.0,0.0,0.0,0.0,0.0,0.0,0.0,0.0,0.0,0.0,0.0,0.0,0.0,0.0,0.0,0.0,0.0,0.0,0.0,0.0,0.0,0.0,0.0,0.0,0.0,0.0,0.0,0.0,0.0,0.0,0.0,0.0,0.0,0.0,0.0,0.0,0.0,0.0,0.0,0.0,0.0,0.0,0.0,0.0,0.0,0.0,0.0,0.0,0.0,0.0,0.0,0.0,0.0,0.0,0.0,0.0,0.0,0.0,0.0543,0.0,0.0,0.0,0.0,0.0,0.0,0.0,0.0,0.0,0.0,0.0,0.0,0.0,0.0,0.0,0.0,0.0,0.0,0.0,0.0,0.0,-0.0188,0.0438,0.049,0.0641,0.0989,0.1276,0.1432,0.1369,0.1304,0.0,0.0,0.0,0.0,0.0752,0.0761,0.0898,0.1159,0.1387,0.1792,0.2265,0.2301,0.2233,0.2068,0.1865,0.0,0.0,0.0,0.0,0.0,0.0,0.0,0.0,0.0,0.0,0.0,0.0,0.0,0.0,0.0,0.0,0.0,0.0,0.0,0.0,0.0,0.0,0.0,0.0,0.0,0.0,0.0,0.0,0.0,0.0,0.0,0.0,0.0,0.0,0.0,0.0,0.0,0.0,0.0,0.0,0.0,0.0,0.0,0.0,0.0,0.0,0.0,0.0,0.0,0.0,0.0,0.0,0.0,0.0,0.0,0.0,0.0,0.0,0.0,0.0,0.0,0.0,0.0,0.1134,0.1269,0.1362,0.1362,0.1682,0.221,0.1532,0.1471,0.178,0.0,0.0,0.0,0.0,0.0,0.0,0.0,0.0,0.0,0.0,0.0,0.0,0.0,0.0,0.0,0.0,0.0,0.0,0.0,0.0,-0.0033,0.0066,0.0334,0.0582,0.0755,0.1037,0.1105,0.0821,0.1062,0.0,0.0,0.0,0.0,0.0526,0.0656,0.0923,0.1367,0.2078,0.2465,0.254,0.2742,0.2784,0.2756,0.234,0.213,0.2104,0.0,0.0,0.0,0.0,0.0,0.0,0.0,0.0,0.0,0.0,0.0,0.0,0.0,0.0,0.0,0.0,0.0,0.0,0.0,0.0,0.0,0.0,0.0,0.0,0.0,0.0,0.0,0.0,0.0,0.0,0.0,0.0,0.0,0.0,0.0,0.0,0.0,0.0,0.0,0.0,0.0,0.0974,0.0818,0.0,0.0,0.0,0.0,0.0,0.0,0.0,0.0,0.0,0.0,0.0,0.0,0.0,0.0,0.0055,0.12,0.1744,0.1753,0.24,0.2741,0.2751,0.2751,0.282,0.2891,0.2794,0.0,0.1849,0.168,0.0,0.0,0.0,0.0,0.0,0.0,0.0,0.0,0.0,0.0,0.0,0.0,0.0,0.0,0.0,0.0,0.0,0.0,0.0,0.0,0.0,0.0937,0.1293,0.1361,0.2005,0.2078,0.1325,0.1513,0.0,0.0,0.0,0.0771,0.0552,0.0939,0.1363,0.1845,0.2452,0.2829,0.2938,0.3045,0.3045,0.3039,0.284,0.2659,0.2398,0.2147,0.0,0.0,0.0,0.0,0.0,0.0,0.0,0.0,0.0,0.0,0.0,0.0,0.0,0.0,0.0,0.0,0.0,0.0,0.0,0.0,0.0,0.0,0.0,0.0,0.0,0.0,0.0,0.0,0.0,0.0,0.0,0.0,0.0,0.0,0.0,0.0,0.0,0.0,0.0,0.034,0.0567,0.0394,0.0278,0.0048,0.0,0.0,0.0,0.0,0.0,0.0,0.0,0.0,0.0,0.0619,0.0901,0.1259,0.1654,0.2255,0.26,0.2602,0.2937,0.3134,0.3251,0.3251,0.3211,0.3258,0.3272,0.3029,0.2718,0.2515,0.2118,0.1575,0.0,0.0,0.0,0.0,0.0,0.1281,0.0,0.0,0.0,0.0,0.0,0.0,0.0,0.0,0.0,0.0,0.0,0.0,0.0815,0.1568,0.2078,0.2137,0.2857,0.2899,0.1942,0.2023,0.1621,0.0549,0.0911,0.1036,0.0839,0.147,0.2015,0.2397,0.2836,0.3084,0.3265,0.3297,0.3314,0.3311,0.3278,0.3053,0.2756,0.245,0.223,0.2068,0.0,0.0,0.0,0.0,0.0,0.0,0.0,0.0,0.0,0.0,0.0,0.0,0.0,0.0,0.0,0.0,0.0,0.0,0.0,0.0,0.0,0.0,0.0,0.0,0.0,0.0,0.0,0.0,0.0,0.0,0.0,0.0,0.0,0.0,0.0,0.0,0.0,0.0138,0.0378,0.0241,0.0151,-0.0051,0.0,0.0,0.0,0.0,0.0,0.0,0.0219,0.0392,0.0863,0.1724,0.186,0.2252,0.2801,0.3037,0.316,0.3162,0.3252,0.3332,0.3399,0.3399,0.3436,0.3495,0.3428,0.3399,0.3379,0.3128,0.2785,0.2344,0.217,0.1849,0.1483,0.1644,0.1839,0.2028,0.0,0.0,0.0,0.0,0.0,0.0,0.0,0.0,0.0,0.0,0.0,0.0812,0.1241,0.1913,0.2502,0.2806,0.3194,0.3115,0.2411,0.2367,0.1917,0.0823,0.0857,0.1087,0.1465,0.2221,0.274,0.2948,0.3219,0.3384,0.3395,0.3512,0.3566,0.3561,0.3444,0.3322,0.3134,0.2809,0.2667,0.2597,0.1815,0.0,0.0,0.0,0.0,0.0,0.0,0.0,0.0,0.0,0.0,0.0,0.0,0.0,0.0,0.0,0.0,0.0,0.0,0.0,0.0,0.0,0.0,0.0,0.0,0.0,0.0,0.0,0.0,0.0,0.0,0.0,0.0,0.0,0.0,0.0,0.0,0.0,0.0,0.0757,0.0427,0.0,0.0,0.0,0.0,0.0167,0.0223,0.0453,0.0933,0.0937,0.107,0.1228,0.1834,0.2181,0.2244,0.2988,0.342,0.342,0.3442,0.3489,0.3493,0.3493,0.3495,0.3499,0.3495,0.3493,0.3479,0.3291,0.3158,0.3077,0.3009,0.2953,0.2887,0.2965,0.2999,0.3017,0.0,0.0,0.0,-0.0538,-0.0357,-0.027,-0.0552,-0.0624,-0.0489,0.0036,0.0653,0.1255,0.1868,0.2843,0.3523,0.3801,0.3956,0.3666,0.2778,0.253,0.1961,0.0973,0.1221,0.1704,0.2324,0.2725,0.3013,0.3232,0.3326,0.3441,0.352,0.3564,0.3585,0.3583,0.3539,0.3493,0.3439,0.3144,0.291,0.2635,0.2162,0.174,0.0,0.0,0.0,0.0,0.0,0.0,0.0,0.0,0.0,0.0,0.0,0.0,0.0,0.0,0.0,0.0,0.0,0.0,0.0,0.0,0.0,0.0,0.0,0.0,0.0,0.0,0.0,0.0,0.0,0.0,0.0,0.0,0.0,0.0,0.0,0.0,0.0,-0.0162,0.0281,0.0,-0.0405,-0.0059,0.0298,0.0596,0.0954,0.1389,0.1741,0.2184,0.2491,0.2609,0.2843,0.302,0.3002,0.3399,0.3532,0.3534,0.3626,0.3669,0.3671,0.373,0.3756,0.3761,0.382,0.3844,0.384,0.3775,0.3593,0.3348,0.3289,0.3246,0.3282,0.3187,0.3215,0.3271,0.0,0.0,0.0,-0.054,-0.0413,-0.032,-0.0587,-0.0662,-0.0369,0.0419,0.1102,0.1866,0.2768,0.3588,0.41,0.4352,0.4263,0.3859,0.3111,0.2647,0.2102,0.151,0.1834,0.2374,0.298,0.3081,0.3221,0.3463,0.3463,0.3504,0.3585,0.3585,0.3585,0.3585,0.3585,0.3585,0.3572,0.3411,0.3176,0.29,0.2576,0.2171,0.1641,0.0,0.0,0.0,0.0,0.0,0.0,0.0,0.0,0.0,0.0,0.0,0.0,0.0,0.0,0.0,0.0,0.0,0.0,0.0,0.0,0.0,0.0,0.0,0.0,0.0,0.0,0.0,0.0,0.0,0.0,0.0,0.0,0.0,0.0,0.0,0.0778,-0.0569,0.0235,0.0598,-0.012,0.0426,0.1051,0.1563,0.2003,0.2292,0.2578,0.3053,0.3326,0.3405,0.3438,0.3481,0.3542,0.363,0.3687,0.3718,0.3779,0.3826,0.3857,0.3918,0.3946,0.3948,0.401,0.4036,0.4036,0.4036,0.3895,0.3671,0.3581,0.3526,0.3495,0.3465,0.3491,0.3548,0.0,0.0,0.0168,-0.0571,-0.0706,-0.0685,-0.0687,-0.0657,-0.0151,0.1114,0.1735,0.258,0.3832,0.4025,0.4214,0.4477,0.4076,0.3624,0.3282,0.2718,0.2365,0.2375,0.267,0.2979,0.3411,0.3413,0.3471,0.3585,0.3585,0.3585,0.3585,0.3585,0.3585,0.3585,0.3585,0.3585,0.3585,0.3585,0.3515,0.3395,0.3118,0.2694,0.2154,0.0,0.0,0.0,0.0,0.0,0.0,0.0,0.0,0.0,0.0,0.0,0.0,0.0,0.0,0.0,0.0,0.0,0.0,0.0,0.0,0.0,0.0,0.0,0.0,0.0,0.0,0.0,0.0,0.0,0.0,0.0,0.0,0.0,0.0534,0.0565,0.0411,-0.0295,0.0364,0.0988,0.1234,0.1051,0.1505,0.3107,0.3178,0.3255,0.3432,0.3373,0.3413,0.3505,0.3587,0.3632,0.3634,0.3724,0.3814,0.3903,0.3903,0.395,0.4036,0.4038,0.404,0.404,0.4042,0.4044,0.4044,0.4044,0.4044,0.4034,0.394,0.3848,0.3781,0.3871,0.3903,0.3916,0.0067,0.0034,-0.0134,-0.0672,-0.0571,-0.0514,-0.0796,-0.0791,-0.0354,0.079,0.1339,0.2034,0.3202,0.3679,0.3958,0.4117,0.3661,0.3171,0.2763,0.2227,0.1959,0.212,0.2857,0.3272,0.3413,0.3471,0.3583,0.3585,0.3585,0.3585,0.3585,0.3585,0.3585,0.3585,0.3585,0.3585,0.3585,0.3585,0.3564,0.3523,0.3345,0.3006,0.2589,0.0,0.0,0.0,0.0,0.0,0.0,0.0,0.0,0.0,0.0,0.0,0.0,0.0,0.0,0.0,0.0,0.0,0.0,0.0,0.0,0.0,0.0,0.0,0.0,0.0,0.0,0.0,0.0,0.0,0.0,0.0,0.0,0.1604,0.0686,0.1455,0.1783,0.0849,0.2041,0.2963,0.2898,0.2865,0.3011,0.3459,0.3461,0.3438,0.3548,0.3554,0.3595,0.3689,0.3714,0.3759,0.3824,0.3848,0.3908,0.3997,0.3997,0.4012,0.4038,0.4104,0.4134,0.4138,0.42,0.4226,0.4226,0.4226,0.4226,0.4212,0.4059,0.3983,0.3963,0.3989,0.3997,0.4001,-0.0,-0.0134,-0.0303,-0.0739,-0.0672,-0.0622,-0.0857,-0.0849,-0.0402,0.0768,0.123,0.1925,0.315,0.3479,0.3604,0.3735,0.3075,0.2516,0.2232,0.1975,0.1918,0.2178,0.2963,0.3413,0.3471,0.3583,0.3585,0.3585,0.3585,0.3585,0.3591,0.3591,0.3591,0.3591,0.3591,0.3591,0.3591,0.3585,0.3585,0.3577,0.3507,0.33,0.299,0.2421,0.1987,0.1696,0.1083,0.0823,0.0658,0.0395,0.0,0.0,0.0,0.0,0.0,0.0,0.0,0.0,0.0,0.0,0.0,0.0,0.0,0.0,0.0,0.0,0.0,0.0,0.0,0.0,0.0,0.0,0.0,0.0,0.1927,0.2565,0.223,0.2657,0.2919,0.281,0.3272,0.3721,0.3832,0.3726,0.3732,0.3849,0.3776,0.3742,0.3834,0.3759,0.3707,0.3761,0.3799,0.3846,0.3899,0.3936,0.4001,0.4093,0.4093,0.4112,0.4146,0.4202,0.4226,0.0,0.4277,0.43,0.43,0.43,0.43,0.0,0.0,0.0,0.0,0.0,0.4146,0.4146,-0.0101,-0.0269,-0.0471,-0.0773,-0.0875,-0.0908,-0.0929,-0.0865,-0.0406,0.0794,0.1156,0.1828,0.3147,0.3115,0.3069,0.3236,0.235,0.179,0.1734,0.1902,0.2125,0.2456,0.3077,0.3471,0.3585,0.3471,0.3471,0.3585,0.3471,0.3418,0.337,0.337,0.337,0.337,0.337,0.337,0.337,0.3418,0.3471,0.3585,0.3585,0.352,0.3313,0.2673,0.2301,0.2076,0.142,0.1214,0.116,0.116,0.0,0.0,0.0,0.0,0.0,0.0,0.0,0.0,0.0,0.0,0.0,0.0,0.0,0.0,0.0,0.0,0.0,0.0,0.0,0.0,0.0,0.0,0.0,0.0,0.2495,0.3766,0.4339,0.3848,0.3843,0.4836,0.4045,0.371,0.4307,0.4104,0.4001,0.4246,0.4024,0.3984,0.4075,0.0,0.0,0.0,0.0,0.392,0.393,0.401,0.4097,0.4187,0.4187,0.4226,0.43,0.43,0.43,0.43,0.43,0.43,0.43,0.43,0.43,0.43,0.43,0.43,0.43,0.43,0.43,0.0,-0.0571,-0.0706,-0.0808,-0.0875,-0.0976,-0.1047,-0.1045,-0.1061,-0.0771,-0.0044,0.0185,0.0579,0.1253,0.1767,0.2101,0.2119,0.1902,0.1621,0.1285,0.179,0.2127,0.2181,0.3084,0.3593,0.3596,0.2802,0.28,0.3596,0.28,0.2296,0.2127,0.2127,0.2127,0.2127,0.2127,0.2127,0.2127,0.2127,0.2685,0.3585,0.3585,0.3514,0.3379,0.3046,0.2821,0.2634,0.253,0.2378,0.2267,0.1964,0.1894,0.177,0.1317,0.1043,0.0,0.0,0.0,0.0,0.0,0.0,0.0,0.0,0.0,0.0,0.0,0.0,0.0,0.0,0.0,0.0,0.0,0.0,0.0,-0.047,0.2129,0.4306,0.4794,0.4463,0.4285,0.4525,0.4259,0.411,0.4278,0.4277,0.4257,0.4126,0.4128,0.3979,0.3841,0.3834,0.0,0.3873,0.3961,0.4044,0.412,0.4136,0.4189,0.4275,0.0,0.0,0.43,0.43,0.43,0.43,0.43,0.43,0.43,0.43,0.43,0.43,0.43,0.43,0.43,0.43,0.43,0.43,-0.0808,-0.0841,-0.0908,-0.0976,-0.1043,-0.1108,-0.1162,-0.1314,-0.1167,-0.0387,-0.0404,-0.0141,0.0601,0.1075,0.1321,0.1336,0.1063,0.0896,0.084,0.1176,0.1512,0.1958,0.2127,0.224,0.224,0.2127,0.2242,0.2469,0.2697,0.2188,0.0896,0.0896,0.0896,0.0896,0.0896,0.0896,0.0896,0.0896,0.1961,0.3599,0.3593,0.3535,0.3477,0.3302,0.3212,0.3113,0.3002,0.2913,0.2817,0.2656,0.2521,0.2381,0.2122,0.1715,0.1272,0.0,0.0,0.0,0.0,0.0,0.0,0.0,0.0,0.0,0.0,0.0,0.0,0.0,0.0,0.0392,-0.0448,0.0,0.0665,0.1539,0.3115,0.4425,0.4836,0.4643,0.4525,0.4683,0.443,0.4332,0.4461,0.4433,0.4384,0.4231,0.4155,0.4099,0.3989,0.3955,0.392,0.3967,0.4057,0.4126,0.4173,0.4216,0.4257,0.43,0.43,0.43,0.43,0.43,0.43,0.43,0.43,0.43,0.43,0.43,0.43,0.43,0.43,0.43,0.43,0.43,0.43,0.43,-0.1008,-0.1041,-0.1041,-0.1076,-0.1143,-0.1234,-0.1303,-0.1621,-0.1614,-0.0873,-0.0949,-0.0773,-0.0099,0.0251,0.0415,0.0499,0.0224,0.0168,0.0561,0.0729,0.1065,0.168,0.0951,0.0559,0.0559,0.1174,0.1344,0.1066,0.2249,0.1853,-0.0,-0.0,-0.0,-0.0,-0.0,-0.0,-0.0,-0.0,0.1122,0.2927,0.3431,0.3485,0.3256,0.3135,0.3246,0.3416,0.319,0.3132,0.313,0.3019,0.2966,0.2904,0.269,0.2306,0.178,0.1019,0.0558,0.0,0.0,0.0,0.0,0.0,0.0,0.0,0.0,0.0688,0.076,0.1627,0.1479,0.0889,-0.0119,0.0917,0.2468,0.4164,0.4384,0.4485,0.4823,0.4723,0.4717,0.4882,0.4574,0.4451,0.4691,0.454,0.4384,0.4307,0.4173,0.4143,0.414,0.4016,0.3987,0.4061,0.4151,0.4197,0.4197,0.4265,0.43,0.43,0.43,0.43,0.43,0.43,0.43,0.43,0.43,0.43,0.43,0.4318,0.4324,0.4326,0.4344,0.4353,0.4349,0.4332,0.4324,0.4328,-0.1475,-0.1509,-0.1442,-0.1143,-0.1343,-0.1571,-0.1623,-0.1933,-0.2156,-0.2154,-0.1853,-0.1747,-0.2127,-0.1426,-0.0931,-0.0885,-0.0334,0.0167,0.0561,0.129,0.1572,0.1346,0.0056,-0.0673,-0.0673,-0.0617,-0.0336,0.0168,0.0056,0.0056,-0.0,-0.0,-0.0,-0.0,-0.0,-0.0,-0.0,-0.0,0.0168,0.0617,0.2757,0.2979,0.2015,0.1958,0.2633,0.354,0.3368,0.3307,0.3299,0.2736,0.2899,0.3174,0.2338,0.234,0.2434,0.1217,0.0828,0.0504,-0.0504,-0.0252,0.0559,0.1625,0.1269,0.112,0.0,0.2156,0.1628,0.3031,0.3301,0.2579,0.0368,0.2511,0.4634,0.4855,0.4941,0.4949,0.4977,0.4925,0.4919,0.4761,0.4525,0.445,0.4698,0.454,0.4307,0.4155,0.4159,0.4133,0.398,0.4055,0.4146,0.4157,0.424,0.4285,0.4285,0.4295,0.43,0.43,0.43,0.43,0.43,0.43,0.43,0.43,0.43,0.43,0.4306,0.4387,0.442,0.4428,0.451,0.4542,0.4532,0.4451,0.442,0.4432,-0.1575,-0.1773,-0.184,-0.1707,-0.1807,-0.1885,-0.193,-0.2308,-0.2537,-0.2302,-0.2332,-0.2416,-0.2497,-0.2227,-0.1998,-0.1994,-0.1353,-0.0765,-0.0279,0.0168,0.0393,0.0336,-0.0449,-0.0898,-0.0898,-0.0898,-0.0785,-0.0505,-0.028,-0.0112,-0.0,-0.0,-0.0,-0.0,-0.0,-0.0,-0.0,-0.0,-0.0,0.0112,0.1122,0.1626,0.1794,0.1794,0.2132,0.2583,0.2579,0.2633,0.0,0.2514,0.2571,0.2687,0.2629,0.2494,0.2138,0.1205,0.0651,0.0322,0.0429,0.0643,0.1129,0.207,0.1946,0.17,0.2527,0.1475,0.0724,0.2238,0.3086,0.3385,0.2664,0.3063,0.3815,0.0,0.4851,0.4763,0.4841,0.4942,0.4937,0.4701,0.454,0.4387,0.4389,0.4311,0.4155,0.3921,0.401,0.4005,0.3975,0.4102,0.4195,0.4244,0.3746,0.3494,0.3494,0.2864,0.2864,0.3494,0.3494,0.3762,0.43,0.43,0.43,0.4302,0.4355,0.4379,0.4385,0.4477,0.4516,0.4518,0.4557,0.4573,0.4569,0.4528,0.4516,0.452,-0.1907,-0.2106,-0.2305,-0.2468,-0.2468,-0.2405,-0.2272,-0.2696,-0.2884,-0.2603,-0.2732,-0.2817,-0.274,-0.2944,-0.3011,-0.282,-0.2463,-0.1877,-0.0935,-0.078,-0.0616,-0.0561,-0.0785,-0.0898,-0.0898,-0.0898,-0.0898,-0.0898,-0.0449,-0.0168,-0.0,-0.0,-0.0,-0.0,-0.0,-0.0,-0.0,-0.0,-0.0,-0.0,-0.0,0.0505,0.1291,0.1291,0.1178,0.1066,0.1344,0.1511,0.1677,0.1842,0.1899,0.1958,0.2179,0.2014,0.1566,0.0838,0.0224,-0.0112,0.0503,0.1013,0.153,0.2552,0.2677,0.2506,0.2506,0.1037,-0.0,0.1061,0.2017,0.2973,0.4227,0.3752,0.358,0.4638,0.4811,0.473,0.473,0.4881,0.4859,0.4545,0.4387,0.4231,0.4001,0.3999,0.3932,0.3799,0.3885,0.3977,0.4069,0.3898,0.3882,0.3939,0.2955,0.2508,0.2508,0.2059,0.2149,0.2867,0.3135,0.3673,0.43,0.4324,0.4336,0.4342,0.4432,0.4473,0.4481,0.4573,0.461,0.4612,0.4634,0.4645,0.4645,0.4645,0.463,0.4614,-0.2666,-0.2709,-0.2845,-0.3368,-0.334,-0.3146,-0.2746,-0.3018,-0.3319,-0.346,-0.309,-0.2913,-0.3241,-0.3878,-0.3999,-0.3407,-0.3559,-0.286,-0.1009,-0.0877,-0.0895,-0.0898,-0.0898,-0.0898,-0.0898,-0.0898,-0.0898,-0.0898,-0.0898,-0.0561,-0.0,-0.0,-0.0,-0.0,-0.0,-0.0,-0.0,-0.0,-0.0,-0.0,-0.0,-0.0,0.0056,0.0056,-0.0336,-0.0785,-0.0449,0.0112,0.0614,0.0335,0.067,0.1006,0.0336,0.0504,0.0838,0.0224,-0.0393,-0.0842,-0.0842,0.0229,0.1643,0.3179,0.356,0.3581,0.3581,0.1704,-0.0,0.0064,0.0066,0.1087,0.4343,0.4965,0.4938,0.4977,0.5016,0.4932,0.4696,0.4698,0.4545,0.4157,0.4079,0.4001,0.0,0.3841,0.3799,0.3889,0.3981,0.4071,0.4163,0.3364,0.2955,0.2957,0.197,0.1432,0.1432,0.2418,0.2867,0.2867,0.3851,0.4297,0.4302,0.4391,0.443,0.4436,0.4528,0.4569,0.4575,0.4667,0.4704,0.4712,0.4794,0.4826,0.4826,0.4826,0.4775,0.4716,-0.2709,-0.2944,-0.3146,-0.334,-0.3438,-0.3438,-0.327,-0.3278,-0.3303,-0.3293,-0.3267,0.0,0.0,0.0,0.0,0.0,-0.3633,-0.3266,-0.2639,-0.1877,-0.1475,-0.151,-0.1121,-0.0898,-0.0898,-0.0898,-0.0898,-0.0898,-0.0898,-0.0673,-0.028,-0.0056,-0.0,-0.0,-0.0,-0.0,-0.0,-0.0,-0.0,-0.0,-0.0,-0.0,-0.0056,-0.0449,-0.0729,-0.0898,0.0,-0.0561,-0.0336,0.0056,0.0335,0.0503,0.0671,0.0615,0.0279,-0.0392,-0.0729,-0.0845,-0.0633,-0.0233,0.0531,0.2052,0.2987,0.3568,0.3568,0.1757,-0.0133,-0.0598,-0.0747,-0.0069,0.196,0.2938,0.3601,0.3916,0.4412,0.4691,0.4691,0.4621,0.4387,0.4157,0.4079,0.0,0.0,0.0,0.0,0.3897,0.3448,0.3186,0.321,0.239,0.1879,0.1879,0.0985,0.0448,0.0448,0.0179,0.0717,0.188,0.3491,0.433,0.4389,0.4422,0.4469,0.453,0.4622,0.4663,0.4669,0.4757,0.4792,0.4794,0.4822,0.4834,0.4834,0.4834,0.4816,0.4796,-0.301,-0.3208,-0.3372,-0.3442,-0.3536,0.0,0.0,0.0,0.0,0.0,0.0,0.0,0.0,0.0,0.0,0.0,0.0,-0.3573,-0.345,-0.2787,-0.2274,-0.2193,-0.1814,-0.1658,-0.1677,-0.1677,-0.1677,-0.1624,-0.112,-0.0728,-0.0392,-0.0112,-0.0,-0.0,-0.0,-0.0,-0.0,-0.0,-0.0171,-0.0464,-0.034,-0.0228,-0.0174,-0.0566,-0.0785,0.0,-0.0898,-0.0898,-0.0841,-0.0336,-0.0168,-0.0112,0.028,0.0112,-0.028,-0.0785,-0.0898,-0.0847,-0.0641,-0.0415,-0.0,0.0932,0.1732,0.2296,0.2296,0.0931,-0.0472,-0.0674,-0.0888,-0.0832,0.007,0.1561,0.2679,0.2895,0.3527,0.4022,0.4011,0.3893,0.3837,0.3999,0.3999,0.3921,0.0,0.0,0.0,0.3451,0.2975,0.2524,0.228,0.1422,0.0896,0.0896,-0.0,-0.0538,-0.0538,-0.0448,0.0537,0.2416,0.3699,0.4379,0.4436,0.4504,0.4565,0.4626,0.4714,0.4753,0.4757,0.4812,0.4834,0.4834,0.4834,0.4834,0.4834,0.4834,0.4834,0.4834,-0.3569,-0.3565,-0.3565,0.0,0.0,0.0,0.0,0.0,0.0,0.0,0.0,0.0,0.0,0.0,0.0,0.0,0.0,0.0,-0.3482,-0.3474,-0.3304,-0.2959,-0.2908,-0.2953,-0.3046,-0.3046,-0.2998,-0.2896,-0.1615,-0.0781,-0.0447,-0.0168,-0.0,-0.0,-0.0,-0.0,-0.0,-0.0,-0.0523,-0.1223,-0.0978,-0.0699,-0.0427,-0.0402,-0.0617,-0.0898,-0.0898,-0.0898,-0.0898,-0.0898,-0.0898,-0.0898,-0.0898,-0.0898,-0.0898,-0.0898,-0.0898,-0.0907,-0.0878,-0.0423,-0.0,-0.0,-0.0,-0.0,-0.0,-0.0538,-0.0875,-0.0201,-0.0604,-0.1082,-0.1109,0.0765,0.2249,0.202,0.2519,0.3013,0.2941,0.2929,0.3132,0.3763,0.3763,0.3763,0.3763,0.3024,0.0,0.2434,0.0,0.2191,0.1341,0.0448,-0.009,-0.009,-0.0897,-0.1436,-0.1436,0.0448,0.2237,0.4121,0.43,0.4346,0.4449,0.4628,0.471,0.4718,0.48,0.4834,0.4834,0.4834,0.4834,0.4834,0.4834,0.4834,0.4834,0.4834,0.4834,0.4834,0.0,0.0,0.0,0.0,0.0,0.0,0.0,0.0,0.0,0.0,0.0,0.0,0.0,0.0,0.0,0.0,0.0,0.0,-0.3932,-0.3622,-0.342,-0.3352,-0.29,-0.2708,-0.2733,-0.2733,-0.2772,-0.2904,-0.2152,-0.1417,-0.0782,-0.0448,-0.028,-0.028,-0.028,-0.028,-0.028,-0.028,-0.0453,-0.0632,-0.096,-0.0964,-0.0747,-0.079,-0.0842,-0.0898,-0.0898,-0.0898,-0.0898,-0.0898,-0.0898,-0.0898,-0.0898,-0.0898,-0.0898,-0.0898,-0.0913,-0.0821,-0.0363,-0.0125,-0.0,-0.0,-0.0,-0.0,-0.0,-0.0523,-0.0909,-0.0762,-0.0885,-0.1014,-0.102,0.0195,0.1328,0.1774,0.235,0.3027,0.3768,0.3782,0.3763,0.3763,0.3214,0.2823,0.2823,0.2126,0.0,0.0,0.0609,0.0624,0.0358,-0.0538,-0.1076,-0.1076,-0.1256,-0.1436,-0.1436,-0.0269,0.0985,0.2148,0.2928,0.3819,0.4542,0.4657,0.4743,0.4804,0.4824,0.4834,0.4834,0.4834,0.4834,0.4834,0.4834,0.4834,0.4834,0.4834,0.4834,0.4834,0.0,0.0,0.0,0.0,0.0,0.0,0.0,0.0,0.0,0.0,0.0,0.0,0.0,0.0,0.0,0.0,0.0,0.0,0.0,-0.3662,-0.3602,-0.371,-0.3494,-0.3363,-0.3423,-0.3529,-0.3565,-0.3536,-0.3031,-0.2493,-0.1825,-0.0955,-0.0589,-0.059,-0.0599,-0.0603,-0.0604,-0.0613,-0.0628,0.0,0.0,-0.0949,-0.0913,-0.0873,-0.0857,-0.086,-0.0872,-0.0886,-0.0898,-0.0729,-0.0673,-0.0673,-0.0673,-0.0785,-0.09,-0.0913,-0.0697,-0.0416,-0.0062,-0.0,-0.0,-0.0,-0.0,-0.0066,-0.0324,-0.0511,-0.0757,-0.093,-0.0988,-0.0988,-0.0988,-0.0125,0.0701,0.0983,0.2256,0.3209,0.3403,0.2887,0.2634,0.3132,0.2508,0.1968,0.1909,0.1152,0.0506,0.0,-0.0,-0.0179,-0.0628,-0.1076,-0.1436,-0.1436,-0.1436,-0.1166,-0.0807,-0.0269,0.0717,0.2059,0.2768,0.3578,0.4577,0.4706,0.479,0.4834,0.0,0.4834,0.4834,0.4834,0.4834,0.4834,0.4834,0.4834,0.4834,0.4834,0.4834,0.4834,0.0,0.0,0.0,0.0,0.0,0.0,0.0,0.0,0.0,-0.4512,-0.4263,-0.4056,-0.3886,-0.3832,0.0,0.0,0.0,0.0,0.0,0.0,-0.3774,-0.3971,-0.4126,-0.4276,-0.4389,-0.4585,-0.4502,-0.4241,-0.3812,-0.3393,-0.3036,-0.157,-0.0901,-0.0909,-0.0886,-0.0899,-0.0901,-0.0874,-0.0916,-0.0957,-0.0823,-0.0822,-0.0859,0.0,-0.0806,-0.081,-0.0894,-0.0926,-0.0842,-0.0505,-0.0449,-0.0449,-0.0393,-0.0562,-0.0795,-0.076,-0.0415,-0.0,-0.0,-0.0,-0.0,-0.0,-0.0,-0.0129,-0.0767,-0.0688,-0.0551,-0.0855,-0.0976,-0.0976,-0.0976,-0.0306,0.0185,0.0127,0.1971,0.3156,0.2301,0.1263,0.0993,0.2189,0.1646,0.1106,0.1048,0.0248,-0.0254,-0.0259,-0.0177,-0.0538,-0.1345,-0.1436,-0.1436,-0.1436,-0.1436,-0.0987,-0.0179,-0.0179,0.0806,0.2689,0.28,0.352,0.4579,0.4755,0.4834,0.4834,0.0,0.0,0.4834,0.4834,0.4834,0.4834,0.4834,0.4834,0.4834,0.4834,0.4834,0.4834,0.0,0.0,0.0,0.0,0.0,0.0,0.0,0.0,0.0,0.0,-0.4991,-0.43,0.0,0.0,0.0,0.0,0.0,0.0,0.0,0.0,0.0,-0.3746,-0.3778,-0.3806,-0.3838,-0.387,-0.3943,-0.4063,-0.3361,-0.3126,-0.3313,-0.1912,-0.1369,-0.151,-0.1015,-0.0815,-0.0815,-0.082,-0.0829,-0.0836,-0.0821,-0.0821,-0.0829,-0.0813,0.0,0.0,-0.0894,-0.0926,-0.0842,-0.0505,-0.0561,-0.0729,-0.0224,-0.0114,-0.0175,-0.0176,-0.0061,-0.0,-0.0,-0.0,-0.0,-0.0,-0.0,-0.0127,-0.0788,-0.0835,-0.0825,-0.0861,-0.0913,-0.0913,-0.0913,-0.0758,-0.0357,0.0537,0.1151,0.1428,0.1261,0.132,0.1449,0.1485,0.0783,0.0235,0.0236,-0.0574,0.0,0.0,0.0,-0.1256,-0.1436,-0.1436,-0.1436,-0.1436,-0.1436,-0.1345,-0.1166,-0.1166,-0.0179,0.1701,0.1867,0.2855,0.4579,0.4755,0.4834,0.4834,0.0,0.0,0.4834,0.4834,0.4834,0.4834,0.4834,0.4834,0.4834,0.4834,0.4834,0.4834,0.0,0.0,0.0,0.0,0.0,0.0,0.0,-0.6976,-0.7126,-0.7342,-0.6242,-0.5386,-0.5305,-0.4918,-0.4385,0.0,0.0,0.0,0.0,0.0,0.0,-0.3428,-0.3557,-0.361,-0.361,-0.3657,-0.3702,-0.374,0.0,-0.334,-0.3327,-0.23,-0.183,-0.1823,-0.1094,-0.0738,-0.074,-0.0772,-0.0785,-0.0785,-0.0785,-0.0785,-0.0783,-0.0768,0.0,0.0,-0.0823,-0.0858,-0.0898,-0.0729,-0.0561,-0.0393,-0.0112,-0.0,-0.0,-0.0,-0.0,-0.0,-0.0,-0.0,-0.0,-0.0,-0.0255,-0.0499,-0.0596,-0.0756,-0.0915,-0.09,-0.0898,-0.0898,-0.0898,-0.0909,-0.0635,0.0293,0.031,0.0457,0.1089,0.0574,0.0299,0.0614,-0.0156,-0.0709,-0.0638,-0.1073,-0.1354,-0.1369,0.0,-0.1436,-0.1436,-0.1436,-0.1436,-0.1436,-0.1436,-0.1436,-0.1436,-0.1436,-0.0717,0.0717,0.14,0.2474,0.3811,0.4457,0.4834,0.4834,0.4834,0.0,0.4834,0.4834,0.4834,0.4834,0.4834,0.4834,0.4834,0.4834,0.4834,0.4834,0.0,0.0,0.0,0.0,0.0,0.0,0.0,-0.7942,-0.7961,-0.8318,-0.7505,-0.6648,-0.6152,-0.54,-0.4637,0.0,0.0,0.0,0.0,0.0,0.0,0.0,0.0,0.0,-0.3462,0.0,0.0,-0.3427,-0.3525,0.0,0.0,0.0,0.0,0.0,-0.1181,-0.0788,-0.0709,-0.076,-0.0786,0.0,0.0,-0.0796,-0.0753,0.0,0.0,0.0,0.0,-0.0846,-0.0898,-0.0898,-0.0561,-0.0168,-0.0112,-0.0057,-0.0,-0.0,-0.0,-0.0,-0.0,-0.0,-0.0,-0.0,-0.0438,-0.0849,-0.0588,-0.0686,-0.0898,-0.0898,-0.0898,-0.0898,-0.0898,-0.0898,-0.0736,-0.0174,-0.0359,-0.025,0.0661,-0.0349,-0.095,-0.0302,-0.0852,-0.1266,-0.1291,-0.132,0.0,-0.1379,0.0,0.0,-0.1436,-0.1436,-0.1436,-0.1436,-0.1436,-0.1436,-0.1436,-0.1436,-0.0897,-0.0,0.093,0.1989,0.3141,0.4041,0.4616,0.4834,0.4834,0.0,0.0,0.4834,0.4834,0.4834,0.4834,0.4834,0.4834,0.4834,0.4834,0.4834,0.0,0.0,0.0,0.0,0.0,0.0,0.0,-0.8978,-0.9346,-0.8961,-0.8371,-0.7841,-0.7466,-0.6393,-0.5351,0.0,0.0,0.0,0.0,0.0,0.0,0.0,0.0,0.0,0.0,0.0,0.0,-0.3236,-0.3249,0.0,0.0,0.0,0.0,0.0,0.0,-0.1065,-0.0791,-0.0679,0.0,0.0,0.0,0.0,0.0,0.0,0.0,0.0,0.0,-0.0846,-0.0898,-0.0898,-0.0842,-0.0785,-0.0449,-0.0172,-0.0,-0.0,-0.0,-0.0,-0.0,-0.0,-0.0,-0.0,-0.0424,-0.0881,-0.0852,-0.09,-0.0898,-0.0898,-0.0898,-0.0898,-0.0898,-0.0898,-0.0898,-0.0845,-0.0811,-0.0847,-0.0901,-0.102,-0.1075,-0.1054,-0.1239,-0.1337,-0.1261,-0.1289,-0.1319,0.0,0.0,0.0,0.0,-0.1436,-0.1436,-0.1436,-0.1436,-0.1436,-0.1436,-0.1436,-0.0897,-0.0,0.0183,0.1216,0.3139,0.3306,0.3965,0.4834,0.0,0.0,0.0,0.4834,0.4834,0.4834,0.4834,0.4834,0.4834,0.4834,0.4834,0.4834,0.0,0.0,0.0,0.0,0.0,0.0,-0.8997,-0.9486,-0.9738,-0.9384,-0.8606,-0.7935,-0.7588,-0.6425,-0.5351,-0.4578,0.0,0.0,0.0,0.0,0.0,0.0,0.0,0.0,0.0,0.0,-0.3208,-0.3208,-0.3322,0.0,0.0,0.0,0.0,0.0,0.0,-0.1105,-0.0611,-0.0593,0.0,0.0,0.0,0.0,0.0,0.0,0.0,0.0,0.0,0.0,-0.0898,-0.0898,-0.0898,-0.0898,-0.0729,-0.0623,-0.0459,-0.0117,-0.0,-0.0,-0.0,-0.0,-0.0,-0.0,-0.0297,-0.0643,-0.0848,-0.0898,-0.0887,-0.085,-0.0843,-0.0843,-0.0843,-0.0843,-0.0855,-0.0892,-0.0923,-0.0958,-0.1001,-0.1057,-0.1116,-0.1177,-0.1211,-0.1237,-0.1334,0.0,0.0,0.0,0.0,0.0,0.0,-0.1436,-0.1436,-0.1436,-0.1436,-0.1436,-0.1436,-0.1436,-0.1256,-0.0807,0.0366,0.14,0.2285,0.3594,0.4356,0.4834,0.0,0.0,0.0,0.4834,0.4834,0.4834,0.4834,0.4834,0.4834,0.4834,0.4834,0.4834,0.0,0.0,0.0,0.0,0.0,-0.9306,-0.9398,-0.9699,-0.9836,-0.9517,-0.8613,-0.7788,-0.7353,-0.6273,-0.533,-0.4717,-0.4235,0.0,0.0,0.0,0.0,0.0,0.0,0.0,0.0,0.0,-0.3314,-0.3332,-0.3496,-0.3561,0.0,0.0,-0.2949,-0.2333,0.0,0.0,0.0,0.0,0.0,0.0,0.0,0.0,0.0,0.0,0.0,0.0,0.0,0.0,0.0,0.0,0.0,-0.0898,-0.0898,-0.0898,-0.0789,-0.0404,-0.0178,-0.0122,-0.0122,-0.0061,-0.0,-0.0,-0.0176,-0.0462,-0.0846,-0.0883,-0.0858,-0.0815,-0.08,-0.0795,-0.0795,-0.0808,-0.0834,-0.0877,-0.091,-0.094,-0.0971,-0.1026,-0.1085,-0.1146,-0.1187,-0.1224,-0.1254,-0.1293,0.0,0.0,0.0,0.0,0.0,-0.1436,-0.1436,-0.1436,-0.1436,-0.1436,-0.1436,-0.1436,-0.1256,-0.0987,0.0455,0.148,0.2172,0.3564,0.4418,0.48,0.0,0.0,0.0,0.4834,0.4834,0.4834,0.4834,0.4834,0.4834,0.4834,0.4834,0.4834,0.0,0.0,0.0,0.0,0.0,0.0,-0.9398,-0.9642,-0.9666,-0.9263,-0.8309,-0.7465,-0.6848,-0.6077,-0.5439,-0.5018,-0.4432,0.0,0.0,0.0,0.0,0.0,0.0,0.0,0.0,0.0,-0.3565,-0.3694,-0.3698,-0.3698,-0.3698,-0.3702,-0.3429,-0.2959,0.0,0.0,0.0,0.0,0.0,0.0,0.0,0.0,0.0,0.0,0.0,0.0,0.0,0.0,0.0,0.0,0.0,0.0,0.0,-0.0898,-0.0898,-0.0898,-0.0632,-0.0412,-0.0412,-0.0177,-0.0,-0.0,-0.023,-0.0505,-0.0842,-0.0851,-0.0807,-0.0806,-0.0785,-0.0813,-0.0813,-0.0863,-0.0905,-0.0906,-0.0878,-0.0909,-0.0881,-0.0934,-0.1056,-0.1114,-0.1174,-0.1224,-0.1254,-0.1312,0.0,0.0,0.0,0.0,0.0,-0.1436,-0.1436,-0.1436,-0.1436,-0.1436,-0.1436,-0.1436,-0.0897,-0.0,-0.0,0.1087,0.2961,0.3112,0.3655,0.0,0.0,0.0,0.0,0.4834,0.4834,0.4834,0.4834,0.4834,0.4834,0.4834,0.4834,0.4834,0.0,0.0,0.0,0.0,0.0,0.0,0.0,-0.9547,-0.9517,-0.8862,-0.819,-0.7424,-0.653,-0.5839,-0.5232,-0.4824,-0.4351,0.0,0.0,0.0,0.0,0.0,0.0,0.0,0.0,-0.3556,-0.3634,-0.389,-0.4049,-0.4166,-0.4248,-0.4282,-0.3935,-0.3249,-0.2658,-0.2034,0.0,0.0,0.0,0.0,0.0,0.0,0.0,0.0,0.0,0.0,0.0,0.0,0.0,0.0,0.0,0.0,0.0,0.0,0.0,-0.0898,-0.0848,-0.0741,-0.0741,-0.0684,-0.057,-0.0342,-0.05,-0.0704,-0.0812,-0.0821,-0.0772,-0.0751,-0.0723,-0.0754,-0.073,-0.0766,-0.0856,-0.0898,-0.0877,-0.0908,-0.088,-0.0977,-0.1032,-0.1112,-0.1193,-0.1247,0.0,0.0,0.0,0.0,0.0,0.0,0.0,-0.1436,-0.1436,-0.1436,-0.1436,-0.1436,-0.1436,-0.1436,-0.0897,-0.0,0.0627,0.163,0.3053,0.3774,0.0,0.0,0.0,0.0,0.0,0.4834,0.4834,0.4834,0.4834,0.4834,0.4834,0.4834,0.4834,0.4834,0.0,0.0,0.0,0.0,0.0,0.0,0.0,-0.9127,-0.9029,-0.843,-0.7941,-0.7302,-0.6274,-0.5818,-0.5305,-0.4663,-0.4346,0.0,0.0,0.0,0.0,0.0,0.0,0.0,-0.3679,-0.375,-0.3927,-0.4172,-0.439,-0.4532,-0.4598,-0.4661,-0.4401,-0.382,-0.3172,-0.2487,0.0,0.0,0.0,0.0,0.0,0.0,-0.0853,0.0,0.0,0.0,0.0,0.0,0.0,0.0,0.0,0.0,0.0,0.0,0.0,0.0,-0.0863,-0.0868,-0.0891,-0.0898,-0.0842,-0.0617,-0.0711,-0.0796,-0.0785,-0.0781,-0.0722,-0.0691,-0.0661,-0.0653,-0.0695,-0.0735,-0.0832,-0.0895,-0.0877,-0.0908,-0.088,-0.0969,-0.1026,-0.1126,-0.1209,0.0,0.0,0.0,0.0,0.0,0.0,0.0,0.0,0.0,-0.1436,-0.1436,-0.1436,-0.1436,-0.1436,-0.1436,-0.0897,-0.0,0.0985,0.1983,0.3018,0.4012,0.0,0.0,0.0,0.0,0.0,0.4834,0.4834,0.4834,0.4834,0.4834,0.4834,0.4834,0.4834,0.4834,0.0,0.0,0.0,0.0,0.0,0.0,0.0,-0.8565,-0.8353,-0.8044,-0.7652,-0.706,-0.6065,-0.5981,-0.5551,-0.4523,0.0,0.0,0.0,0.0,0.0,0.0,0.0,0.0,-0.3772,-0.4101,-0.4378,-0.4538,-0.4747,-0.4828,-0.484,-0.484,-0.4741,-0.4576,-0.388,-0.3189,0.0,0.0,0.0,0.0,0.0,-0.0996,0.0,0.0,0.0,0.0,0.0,0.0,0.0,0.0,0.0,0.0,0.0,0.0,0.0,0.0,0.0,0.0,0.0,-0.0891,-0.0891,-0.0891,-0.0868,-0.0786,-0.081,-0.0735,0.0,-0.06,-0.0611,-0.0646,-0.0711,-0.0773,-0.0836,-0.0896,-0.0877,-0.0908,-0.088,-0.0975,-0.1039,-0.1153,-0.1296,0.0,0.0,0.0,0.0,0.0,0.0,0.0,0.0,0.0,-0.1436,-0.1436,-0.1436,-0.1436,-0.1436,-0.1436,-0.0897,-0.0,0.0985,0.197,0.2959,0.3935,0.0,0.0,0.0,0.0,0.0,0.4832,0.4834,0.4834,0.4834,0.4834,0.4834,0.4834,0.4834,0.4834,0.0,0.0,0.0,0.0,0.0,0.0,0.0,0.0,0.0,0.0,-0.761,-0.7051,-0.5897,-0.5535,-0.4999,0.0,0.0,0.0,0.0,0.0,0.0,0.0,0.0,0.0,-0.4363,-0.4322,-0.4499,-0.4954,-0.4995,-0.5088,-0.5173,-0.5061,-0.4934,-0.4805,-0.4148,-0.3205,0.0,0.0,0.0,0.0,-0.1021,-0.1065,0.0,0.0,0.0,0.0,-0.0764,-0.0724,0.0,0.0,0.0,0.0,0.0,0.0,0.0,0.0,-0.0806,-0.081,-0.0824,0.0,-0.0828,-0.0828,-0.0806,-0.0783,0.0,-0.0704,-0.065,-0.069,-0.0674,-0.0713,-0.0778,-0.0841,-0.0888,-0.0903,-0.0877,-0.0908,-0.088,-0.1028,-0.1109,-0.116,-0.1296,-0.1335,0.0,0.0,0.0,0.0,0.0,0.0,0.0,0.0,-0.1436,-0.1436,-0.1436,-0.1436,-0.1436,-0.1436,-0.0897,-0.0,0.0985,0.197,0.2959,0.3935,0.0,0.0,0.0,0.0,0.4743,0.4808,0.4834,0.4834,0.4834,0.4834,0.4834,0.4834,0.4834,0.4834,0.0,0.0,0.0,0.0,0.0,0.0,0.0,0.0,0.0,0.0,0.0,-0.6712,-0.5665,-0.5409,0.0,0.0,0.0,0.0,0.0,0.0,0.0,0.0,0.0,-0.4269,-0.4543,-0.4617,-0.4788,-0.508,-0.5165,-0.5205,-0.5297,-0.5242,-0.5132,-0.503,-0.4226,-0.3401,0.0,0.0,0.0,-0.1387,-0.1229,0.0,0.0,0.0,0.0,0.0,-0.0942,-0.0853,0.0,-0.0809,-0.0776,-0.0744,0.0,0.0,0.0,0.0,-0.0767,-0.0767,-0.0767,-0.0786,-0.0806,-0.0806,-0.0786,-0.0809,-0.0747,-0.0695,-0.0658,-0.0692,-0.0686,-0.074,-0.077,-0.081,-0.084,-0.0868,-0.0898,-0.0939,-0.0996,-0.1084,-0.1153,-0.1183,-0.1228,0.0,0.0,0.0,0.0,0.0,0.0,0.0,0.0,0.0,-0.1436,-0.1436,-0.1436,-0.1436,-0.1436,-0.1436,-0.0897,-0.0,0.0985,0.197,0.2957,0.3897,0.0,0.0,0.0,0.0,0.4653,0.4741,0.4777,0.4781,0.482,0.4834,0.4834,0.4834,0.4834,0.4834,0.0,0.0,0.0,0.0,0.0,0.0,0.0,0.0,0.0,0.0,0.0,0.0,0.0,0.0,0.0,0.0,0.0,0.0,0.0,0.0,0.0,0.0,0.0,-0.4635,-0.4673,-0.4948,-0.5108,-0.5161,-0.5316,-0.5337,-0.5337,-0.5337,-0.5325,-0.5273,-0.4217,-0.3685,0.0,0.0,-0.1816,-0.196,-0.1509,0.0,0.0,0.0,0.0,0.0,0.0,0.0,0.0,-0.0944,-0.0854,-0.0719,-0.0719,0.0,0.0,0.0,0.0,0.0,-0.0719,-0.0756,-0.0793,-0.0793,-0.0776,-0.0751,-0.0725,-0.0699,-0.0682,-0.073,-0.0734,-0.0718,-0.0799,-0.0817,-0.0838,-0.0889,-0.0927,-0.0979,-0.1064,-0.1128,-0.1178,-0.1209,-0.1239,0.0,0.0,0.0,0.0,0.0,0.0,0.0,0.0,0.0,0.0,-0.1436,-0.1436,-0.1436,-0.1436,-0.1256,-0.0807,-0.0,0.1075,0.2059,0.2957,0.3851,0.434,0.0,0.0,0.0,0.4559,0.4651,0.4696,0.4716,0.4787,0.4822,0.4834,0.4834,0.4834,0.4834,0.0,0.0,0.0,0.0,0.0,0.0,0.0,0.0,0.0,0.0,0.0,0.0,0.0,0.0,0.0,0.0,0.0,0.0,0.0,0.0,0.0,-0.4791,-0.4678,-0.4818,-0.5351,-0.5194,-0.523,-0.5531,-0.5559,-0.5571,-0.5571,-0.5571,-0.5438,-0.5269,-0.4395,-0.3979,-0.3798,-0.3028,-0.2427,-0.2008,-0.1952,0.0,0.0,0.0,0.0,0.0,0.0,0.0,0.0,-0.1075,-0.0987,-0.0855,-0.0855,0.0,0.0,0.0,0.0,0.0,-0.0719,-0.0726,-0.0733,-0.0733,-0.0729,-0.0725,-0.072,-0.0716,-0.072,-0.0792,-0.077,-0.0798,-0.089,-0.0866,-0.0887,-0.0896,-0.0945,-0.1003,-0.1067,-0.1128,-0.1178,-0.1209,0.0,0.0,0.0,0.0,0.0,0.0,0.0,0.0,0.0,0.0,0.0,-0.1436,-0.1436,-0.1436,-0.1436,-0.0628,-0.0179,-0.0,0.1792,0.2777,0.2957,0.3851,0.4306,0.0,0.0,0.4442,0.4463,0.4555,0.4638,0.471,0.4724,0.4771,0.4834,0.4834,0.4834,0.4834,0.0,0.0,0.0,0.0,0.0,0.0,0.0,0.0,0.0,0.0,0.0,0.0,0.0,0.0,0.0,0.0,0.0,0.0,0.0,0.0,0.0,-0.5301,-0.5045,-0.5123,-0.5488,-0.5429,-0.545,-0.5612,-0.5709,-0.5709,-0.5608,-0.5519,-0.5374,-0.5269,-0.4554,-0.4291,-0.4319,-0.3371,-0.292,-0.2807,0.0,0.0,0.0,0.0,0.0,0.0,0.0,0.0,0.0,0.0,-0.1085,-0.0952,-0.0929,0.0,0.0,0.0,0.0,0.0,-0.0809,-0.081,-0.0814,-0.0786,-0.0744,-0.0748,-0.0763,-0.0767,-0.0775,-0.0856,-0.0874,-0.084,-0.0871,-0.0888,-0.0909,-0.0941,-0.0997,-0.1057,-0.1116,-0.1163,-0.1202,0.0,0.0,0.0,0.0,0.0,0.0,0.0,0.0,0.0,0.0,0.0,0.0,0.0,-0.1436,-0.1166,-0.0628,0.0269,0.0717,0.0806,0.2239,0.3135,0.3673,0.4119,0.43,0.4302,0.0,0.4361,0.4369,0.4461,0.4522,0.4565,0.4616,0.4689,0.4771,0.4818,0.4834,0.4834,0.0,0.0,0.0,0.0,0.0,0.0,0.0,0.0,0.0,0.0,0.0,0.0,0.0,0.0,0.0,0.0,0.0,0.0,0.0,0.0,-0.4999,-0.5585,-0.5363,-0.5325,-0.5558,-0.5617,-0.5632,-0.5677,-0.586,-0.5856,-0.5669,-0.5398,-0.5297,-0.5269,-0.4597,-0.4471,-0.4706,-0.3621,-0.3331,-0.3517,0.0,0.0,0.0,0.0,0.0,0.0,0.0,0.0,0.0,0.0,0.0,0.0,0.0,0.0,0.0,-0.1011,-0.1042,-0.1075,-0.0988,-0.0944,-0.091,-0.0861,-0.0818,-0.0821,-0.08,-0.0813,-0.0824,-0.09,-0.0911,-0.0924,-0.0949,-0.096,-0.0986,-0.105,-0.1107,-0.1097,-0.1157,-0.1193,0.0,0.0,0.0,0.0,0.0,0.0,0.0,0.0,0.0,0.0,0.0,0.0,0.0,0.0,-0.1166,-0.0718,-0.0,0.1164,0.179,0.179,0.2776,0.3583,0.43,0.43,0.43,0.43,0.43,0.43,0.4304,0.4375,0.4416,0.4442,0.4512,0.4596,0.4685,0.4749,0.4773,0.4775,0.0,0.0,0.0,0.0,0.0,0.0,0.0,0.0,0.0,0.0,0.0,0.0,0.0,0.0,0.0,0.0,0.0,0.0,0.0,0.0,-0.5155,-0.559,-0.5452,-0.5484,-0.5764,-0.5684,-0.5697,-0.5868,-0.6104,-0.61,-0.586,-0.5458,-0.5297,-0.5269,-0.4597,-0.4471,-0.4755,-0.3957,-0.3619,-0.3605,-0.3517,0.0,0.0,0.0,0.0,0.0,0.0,0.0,0.0,0.0,0.0,0.0,0.0,0.0,-0.1011,-0.1011,-0.1042,-0.1119,-0.1075,-0.0987,-0.0917,-0.0987,-0.0882,-0.0821,-0.08,-0.0829,-0.0902,-0.0905,-0.0875,-0.0951,-0.1065,-0.1151,-0.1199,-0.1272,-0.1186,-0.1097,-0.1157,0.0,0.0,0.0,0.0,0.0,0.0,0.0,0.0,0.0,0.0,0.0,0.0,0.0,0.0,0.0,0.0,-0.009,-0.0,0.1881,0.2777,0.2777,0.3762,0.4208,0.43,0.43,0.43,0.43,0.43,0.43,0.43,0.4306,0.4359,0.4436,0.4442,0.4502,0.4583,0.4589,0.4591,0.4604,0.0,0.0,0.0,0.0,0.0,0.0,0.0,0.0,0.0,0.0,0.0,0.0,0.0,0.0,0.0,0.0,0.0,0.0,0.0,-0.4878,-0.5174,-0.559,-0.5457,-0.5544,-0.5786,-0.5753,-0.5764,-0.5888,-0.5953,-0.5892,-0.5709,-0.541,-0.5237,-0.5161,-0.4666,-0.452,-0.4566,-0.4079,-0.3928,-0.4005,-0.3697,-0.3301,0.0,0.0,0.0,0.0,0.0,0.0,0.0,0.0,-0.117,-0.1159,-0.1121,-0.1137,-0.1172,-0.1172,-0.1232,-0.1299,-0.1254,-0.1141,-0.1039,-0.1095,-0.1016,-0.0878,-0.0856,-0.0872,-0.0881,-0.0881,-0.0905,-0.0931,-0.101,-0.104,-0.1075,-0.1183,-0.1168,-0.1147,0.0,0.0,0.0,0.0,0.0,0.0,0.0,0.0,0.0,0.0,0.0,0.0,0.0,0.0,0.0,0.0,0.0,0.0538,0.1792,0.2509,0.3226,0.3762,0.4119,0.43,0.43,0.43,0.43,0.43,0.43,0.43,0.43,0.43,0.4318,0.4357,0.4414,0.4457,0.4493,0.4551,0.4573,0.4577,0.0,0.0,0.0,0.0,0.0,0.0,0.0,0.0,0.0,0.0,0.0,0.0,0.0,0.0,0.0,0.0,0.0,0.0,-0.4915,-0.5117,-0.5316,-0.5495,-0.5469,-0.5567,-0.5752,-0.578,-0.5797,-0.5803,-0.5803,-0.5734,-0.5608,-0.5378,-0.5201,-0.5068,-0.4658,-0.4501,-0.4477,-0.4124,-0.4114,-0.4268,-0.3865,-0.3465,0.0,0.0,0.0,0.0,0.0,0.0,0.0,0.0,-0.1123,-0.1163,-0.11,-0.118,-0.1298,-0.1298,-0.1342,-0.1344,-0.1299,-0.1154,-0.1057,-0.1099,-0.1038,-0.0914,-0.089,-0.0905,-0.0912,-0.0912,-0.0936,-0.1027,-0.1058,-0.1083,-0.1112,0.0,-0.1204,0.0,0.0,0.0,0.0,0.0,0.0,0.0,0.0,0.0,0.0,0.0,0.0,0.0,0.0,0.0,0.0,0.0,0.0,0.0,0.2867,0.3226,0.3673,0.43,0.43,0.43,0.43,0.43,0.43,0.43,0.43,0.43,0.43,0.43,0.43,0.4306,0.4369,0.4391,0.44,0.4463,0.4485,0.4489,0.0,0.0,0.0,0.0,0.0,0.0,0.0,0.0,0.0,0.0,0.0,0.0,0.0,0.0,0.0,0.0,0.0,0.0,-0.4953,-0.5394,-0.5585,-0.5324,-0.549,-0.5603,-0.5708,-0.5748,-0.5716,-0.5608,-0.5612,-0.5612,-0.5604,-0.5374,-0.5201,-0.5064,-0.4658,-0.4501,-0.4473,-0.4124,-0.4114,-0.4299,-0.4081,-0.3442,-0.2597,0.0,0.0,0.0,0.0,0.0,0.0,0.0,-0.1058,-0.1099,-0.1037,-0.1146,-0.1297,-0.1298,-0.1299,-0.1298,-0.1299,-0.1108,-0.0913,-0.0999,-0.0934,-0.0914,-0.0891,-0.0921,-0.0884,-0.0884,-0.1089,-0.1247,-0.1282,-0.1291,-0.1317,-0.139,0.0,0.0,0.0,0.0,0.0,0.0,0.0,0.0,0.0,0.0,0.0,0.0,0.0,0.0,0.0,0.0,0.0,0.0,0.0,0.0,0.2956,0.3851,0.43,0.43,0.43,0.43,0.43,0.43,0.43,0.43,0.43,0.43,0.43,0.43,0.43,0.43,0.43,0.43,0.43,0.43,0.43,0.4312,0.0,0.0,0.0,0.0,0.0,0.0,0.0,0.0,0.0,0.0,0.0,0.0,0.0,0.0,0.0,0.0,0.0,0.0,-0.5285,-0.5352,-0.538,-0.5314,-0.5212,-0.5358,-0.5704,-0.569,-0.5597,-0.5374,-0.5551,-0.5547,-0.5369,-0.5247,-0.5064,-0.4877,-0.4598,-0.4429,-0.4341,-0.4114,-0.4045,-0.4035,-0.3614,-0.3198,-0.2734,0.0,0.0,0.0,0.0,0.0,0.0,0.0,0.0,0.0,-0.1075,-0.1121,-0.1183,-0.1273,-0.1311,-0.1302,-0.1428,-0.13,-0.1151,-0.1299,-0.1131,-0.0948,-0.1096,-0.0995,-0.0895,-0.0936,-0.1014,-0.1093,-0.1123,-0.1129,0.0,0.0,0.0,0.0,0.0,0.0,0.0,0.0,0.0,0.0,0.0,0.0,0.0,0.0,0.0,0.0,0.0,0.0,0.0,0.0,0.0,0.0,0.3851,0.4119,0.43,0.43,0.43,0.43,0.43,0.43,0.43,0.43,0.43,0.43,0.43,0.43,0.43,0.43,0.43,0.43,0.43,0.43,0.43,0.4304,0.0,0.0,0.0,0.0,0.0,0.0,0.0,0.0,0.0,0.0,-0.5498,-0.5309,0.0,0.0,0.0,0.0,0.0,0.0,-0.5205,-0.556,-0.56,-0.5195,-0.5306,-0.546,-0.5581,-0.5548,-0.54,-0.5194,-0.5389,-0.5417,-0.5242,-0.5133,-0.4946,-0.4698,-0.4546,-0.4447,-0.4308,-0.4089,-0.4016,-0.3955,-0.3313,-0.2922,-0.2596,0.0,0.0,0.0,0.0,0.0,0.0,0.0,0.0,0.0,-0.104,-0.1087,-0.1162,-0.1164,-0.1201,-0.12,-0.1258,-0.1176,-0.1069,-0.1215,-0.1094,-0.0965,-0.107,-0.1031,-0.093,-0.104,-0.105,-0.1055,-0.1072,-0.1076,0.0,0.0,0.0,0.0,0.0,0.0,0.0,0.0,0.0,0.0,0.0,0.0,0.0,0.0,0.0,0.0,0.0,0.0,0.0,0.0,0.0,0.0,0.43,0.43,0.43,0.43,0.43,0.43,0.43,0.43,0.43,0.43,0.43,0.43,0.43,0.43,0.43,0.43,0.43,0.43,0.43,0.43,0.43,0.43,0.0,0.0,0.0,0.0,0.0,0.0,0.0,0.0,0.0,-0.5749,-0.5498,-0.5309,0.0,0.0,0.0,-0.4814,-0.5352,-0.5443,-0.4877,-0.578,-0.5877,-0.4933,-0.5529,-0.5727,-0.542,-0.5394,-0.5305,-0.5059,-0.5194,-0.5218,-0.5056,-0.5039,-0.4857,-0.4501,-0.4481,-0.443,-0.4303,-0.4073,-0.3951,-0.3878,-0.3106,-0.2574,-0.2178,-0.167,0.0,0.0,0.0,0.0,0.0,0.0,0.0,0.0,-0.0939,-0.1049,-0.1153,-0.1055,-0.1015,-0.0984,-0.0935,-0.0884,-0.0815,-0.0901,-0.0936,-0.092,-0.0975,-0.1014,-0.1045,-0.107,-0.1076,-0.1076,-0.1076,-0.1143,0.0,0.0,0.0,0.0,0.0,0.0,0.0,0.0,0.0,0.0,0.0,0.0,0.0,0.0,0.0,0.0,0.0,0.0,0.0,0.0,0.0,0.0,0.43,0.43,0.43,0.0,0.43,0.43,0.43,0.43,0.43,0.43,0.43,0.43,0.43,0.43,0.43,0.43,0.43,0.43,0.43,0.43,0.43,0.43,0.0,0.0,0.0,0.0,0.0,0.0,0.0,0.0,-0.5718,-0.578,-0.5498,-0.5309,-0.5309,-0.4794,0.0,-0.4782,-0.4752,-0.4614,-0.436,-0.4649,-0.4651,-0.4229,-0.4846,-0.5236,-0.5302,-0.5369,-0.5354,-0.5305,-0.514,-0.5006,-0.4861,-0.4723,-0.4574,-0.4493,-0.4394,-0.4313,-0.4295,-0.3935,-0.3602,-0.3299,-0.2554,-0.2039,-0.1632,-0.1302,-0.1123,0.0,0.0,0.0,0.0,0.0,0.0,0.0,-0.0975,-0.0993,-0.1044,-0.114,-0.1105,-0.1116,-0.1249,-0.1153,-0.0974,-0.1038,-0.1044,-0.0972,-0.0985,-0.1029,-0.1068,-0.1074,-0.1076,-0.1076,-0.1076,0.0,0.0,0.0,0.0,0.0,0.0,0.0,0.0,0.0,0.0,0.0,0.0,0.0,0.0,0.0,0.0,0.0,0.0,0.0,0.0,0.0,0.0,0.43,0.43,0.43,0.43,0.0,0.43,0.43,0.43,0.43,0.43,0.43,0.43,0.43,0.43,0.43,0.43,0.43,0.43,0.43,0.43,0.43,0.4389,0.4569,0.0,0.0,0.0,0.0,0.0,0.0,0.0,0.0,-0.5811,-0.5811,-0.5655,-0.5467,-0.5309,-0.482,0.0,0.0,-0.4371,-0.4215,-0.3988,-0.4511,-0.4751,-0.4517,-0.465,-0.4781,-0.4886,-0.5002,-0.502,-0.4974,-0.4881,-0.4781,-0.477,-0.4585,-0.4453,-0.4414,-0.4317,-0.4316,-0.4295,-0.385,-0.3509,-0.3135,-0.2408,-0.187,-0.1511,-0.123,-0.109,-0.1066,-0.1099,0.0,0.0,0.0,0.0,0.0,0.0,0.0,-0.1004,-0.1028,-0.1057,-0.1064,-0.1151,-0.108,-0.0975,-0.0992,-0.1002,-0.0988,-0.0988,-0.1033,-0.1076,-0.1076,-0.1076,0.0,0.0,0.0,0.0,0.0,0.0,0.0,0.0,0.0,0.0,0.0,0.0,0.0,0.0,0.0,0.0,0.0,0.0,0.0,0.0,0.0,0.0,0.0,0.4193,0.4259,0.43,0.43,0.43,0.43,0.43,0.43,0.43,0.43,0.43,0.43,0.43,0.43,0.43,0.43,0.43,0.43,0.43,0.4389,0.448,0.448,0.4659,0.4835,0.0,0.0,0.0,0.0,0.0,0.0,0.0,0.0,0.0,-0.5811,-0.5811,-0.5686,-0.5404,-0.5042,-0.4654,0.0,0.0,0.0,-0.3681,-0.4434,-0.4871,-0.4807,-0.4423,-0.4256,-0.4294,-0.4495,-0.452,-0.4404,-0.4512,-0.4557,-0.4578,-0.4513,-0.4418,-0.4316,-0.4316,-0.4316,-0.4295,-0.385,-0.3471,-0.3058,-0.2373,-0.1873,-0.1475,-0.1211,-0.111,-0.111,-0.111,-0.111,-0.111,0.0,0.0,0.0,0.0,0.0,-0.1012,-0.0962,-0.0986,-0.0991,-0.0957,-0.0957,-0.0983,-0.0939,-0.0939,-0.0982,-0.0987,-0.103,-0.1069,-0.1074,-0.1076,0.0,0.0,0.0,0.0,0.0,0.0,0.0,0.0,0.0,0.0,0.0,0.0,0.0,0.0,0.0,0.0,0.0,0.0,0.0,0.0,0.0,0.3934,0.401,0.4118,0.4206,0.4277,0.4291,0.43,0.43,0.43,0.43,0.43,0.43,0.43,0.43,0.43,0.43,0.43,0.43,0.43,0.43,0.43,0.448,0.4661,0.4661,0.4837,0.5099,0.0,0.0,0.0,0.0,0.0,0.0,0.0,0.0,0.0,0.0,-0.5811,-0.578,-0.5749,-0.5169,-0.4782,-0.4718,-0.3992,-0.3484,-0.3459,0.0,0.0,-0.3609,-0.3556,-0.3629,-0.3784,-0.3981,-0.4084,-0.4053,-0.4181,-0.4212,-0.4082,-0.4248,-0.4296,-0.4316,-0.4316,-0.4316,-0.4295,-0.385,-0.3355,-0.2716,-0.2269,-0.174,-0.1177,-0.1111,-0.111,-0.111,-0.111,-0.111,-0.111,-0.111,-0.111,0.0,0.0,0.0,-0.11,-0.1075,-0.1085,-0.1115,-0.1137,-0.1073,-0.0961,-0.0944,-0.0924,-0.0956,-0.0982,-0.1015,-0.1046,0.0,0.0,0.0,0.0,0.0,0.0,0.0,0.0,0.0,0.0,0.0,0.0,0.0,0.0,0.0,0.0,0.0,0.0,0.0,0.0,0.0,0.0,0.385,0.3906,0.3918,0.4083,0.4179,0.4189,0.4263,0.43,0.43,0.43,0.43,0.43,0.43,0.43,0.43,0.43,0.43,0.43,0.43,0.43,0.43,0.43,0.448,0.4661,0.4661,0.5015,0.5282,0.0,0.0,0.0,0.0,0.0,0.0,0.0,0.0,0.0,0.0,0.0,-0.5811,-0.5811,-0.5201,-0.4814,-0.4814,-0.4051,-0.3575,-0.3635,-0.3389,-0.338,-0.362,-0.3771,-0.3792,-0.3705,-0.3985,-0.4088,-0.4,-0.4026,-0.4057,-0.4123,-0.4142,-0.4119,-0.4134,-0.4231,-0.4219,-0.4114,-0.381,-0.3263,-0.2498,-0.2207,-0.1707,-0.111,-0.111,-0.111,-0.111,-0.111,-0.111,-0.111,-0.111,-0.111,-0.1106,-0.1078,0.0,0.0,0.0,-0.1057,-0.1039,-0.1042,-0.0996,-0.0991,-0.0918,-0.0907,-0.0887,-0.096,-0.0999,-0.1037,0.0,0.0,0.0,0.0,0.0,0.0,0.0,0.0,0.0,0.0,0.0,0.0,0.0,0.0,0.0,0.0,0.0,0.0,0.0,0.0,0.0,0.3763,0.3801,0.3846,0.3897,0.3977,0.4069,0.4171,0.421,0.4253,0.43,0.43,0.43,0.43,0.43,0.43,0.43,0.43,0.4389,0.448,0.4389,0.4389,0.448,0.4389,0.4567,0.4835,0.4835,0.5193,0.5552,0.0,0.0,0.0,0.0,0.0,0.0,0.0,0.0,0.0,0.0,0.0,-0.5811,-0.5811,0.0,0.0,0.0,-0.421,-0.3802,-0.37,-0.3506,-0.3452,-0.3603,-0.3907,-0.3879,-0.3546,-0.394,-0.4048,-0.3845,-0.3842,-0.3907,-0.4049,-0.3996,-0.3949,-0.3926,-0.4102,-0.4111,-0.3894,-0.3633,-0.3072,-0.2382,-0.2084,-0.1609,-0.1113,-0.1128,-0.1134,-0.1134,-0.1134,-0.1134,-0.1132,-0.1116,-0.111,-0.111,-0.111,-0.1078,0.0,0.0,0.0,-0.1028,-0.0978,-0.1001,-0.1031,-0.0944,-0.0941,-0.0924,-0.0881,-0.0917,-0.0952,0.0,0.0,0.0,0.0,0.0,0.0,0.0,0.0,0.0,0.0,0.0,0.0,0.0,0.0,0.0,0.0,0.0,0.0,0.0,0.0,0.0,0.3763,0.3763,0.3795,0.3863,0.3887,0.3965,0.4102,0.4151,0.4216,0.43,0.43,0.43,0.43,0.43,0.43,0.4389,0.43,0.4478,0.4661,0.448,0.4567,0.4748,0.4478,0.4656,0.5099,0.501,0.528,0.5733,0.0,0.0,0.0,0.0,0.0,0.0,0.0,0.0,0.0,0.0,0.0,-0.5811,-0.5811,-0.5498,-0.5144,-0.4814,-0.443,-0.3951,-0.3456,-0.3416,-0.3331,-0.3137,-0.3461,0.0,-0.3147,-0.3661,-0.377,-0.3419,-0.362,-0.3691,-0.3638,-0.3835,-0.3819,-0.3616,-0.3843,-0.3846,-0.3663,-0.3155,-0.272,-0.2346,-0.1848,-0.141,-0.1117,-0.1177,-0.12,-0.12,-0.12,-0.12,-0.119,-0.1131,-0.111,-0.111,-0.111,-0.1108,-0.1106,0.0,0.0,0.0,-0.1151,-0.1135,-0.1063,-0.1029,-0.1015,-0.0981,-0.093,0.0,0.0,0.0,0.0,0.0,0.0,0.0,0.0,0.0,0.0,0.0,0.0,0.0,0.0,0.0,0.0,0.0,0.0,0.0,0.0,0.0,0.0,0.0,0.3763,0.3763,0.3765,0.3771,0.3854,0.3903,0.3914,0.4085,0.4216,0.43,0.43,0.43,0.43,0.43,0.4478,0.4661,0.4389,0.4478,0.4661,0.4661,0.4835,0.4921,0.4748,0.4926,0.5371,0.5099,0.528,0.5733,0.0,0.0,0.0,0.0,0.0,0.0,0.0,0.0,0.0,0.0,0.0,0.0,0.0,-0.5498,-0.5182,-0.4845,-0.4242,-0.3797,-0.3592,-0.3461,-0.3383,-0.3312,-0.3645,-0.3618,-0.3119,-0.3536,-0.3574,-0.3194,-0.3161,-0.3176,-0.3282,-0.3486,-0.3515,-0.3414,-0.3748,-0.3759,-0.3537,-0.3101,-0.2625,-0.217,-0.1824,-0.145,-0.1177,-0.1241,-0.111,-0.0881,-0.0881,-0.0881,-0.0874,-0.0794,-0.0957,-0.1163,-0.1124,-0.111,-0.1103,-0.1062,-0.1107,-0.1146,-0.1043,-0.1098,-0.1156,-0.1037,-0.1011,-0.1019,-0.099,-0.0915,-0.089,0.0,0.0,0.0,0.0,0.0,0.0,0.0,0.0,0.0,0.0,0.0,0.0,0.0,0.0,0.0,0.0,0.0,0.0,0.0,0.0,0.0,0.2981,0.3528,0.3763,0.3763,0.3795,0.384,0.3897,0.4081,0.4187,0.422,0.4273,0.43,0.43,0.43,0.4478,0.4661,0.4569,0.4748,0.5104,0.4924,0.5013,0.5191,0.5013,0.5102,0.5371,0.528,0.546,0.5733,0.0,0.0,0.0,0.0,0.0,0.0,0.0,0.0,-0.6299,-0.5912,0.0,0.0,0.0,0.0,-0.5047,-0.4827,-0.4161,-0.3761,-0.3761,-0.3465,-0.3288,-0.3288,-0.3673,-0.3623,-0.3119,-0.3417,-0.3412,-0.3087,-0.2901,-0.2906,-0.3091,-0.3222,-0.3259,-0.3169,-0.353,-0.3589,-0.3395,-0.2857,-0.2442,-0.2099,-0.1648,-0.1375,-0.1233,-0.1294,-0.1164,-0.0926,-0.0673,-0.0625,-0.0571,0.0,0.0,0.0,-0.0773,-0.0956,-0.1103,-0.1061,-0.1093,-0.1102,-0.098,-0.1081,-0.1163,-0.1042,-0.1038,-0.1069,-0.1004,-0.0939,0.0,0.0,0.0,0.0,0.0,0.0,0.0,0.0,0.0,0.0,0.0,0.0,0.0,0.0,0.0,0.0,0.0,0.0,0.0,0.0,0.0,0.0,0.2902,0.345,0.3763,0.3763,0.3763,0.3887,0.398,0.4103,0.418,0.4212,0.4183,0.4226,0.4257,0.4343,0.4537,0.4837,0.4928,0.5104,0.5371,0.5191,0.528,0.5463,0.5191,0.528,0.5463,0.546,0.5552,0.5733,0.0,0.0,0.0,0.0,0.0,0.0,0.0,0.0,-0.6353,-0.5903,0.0,0.0,0.0,0.0,0.0,-0.481,-0.4252,-0.3898,-0.3898,-0.3401,-0.3087,-0.3077,-0.3414,-0.3408,-0.3095,-0.3225,-0.3219,-0.3072,-0.2887,-0.2892,-0.3072,-0.3077,-0.3018,-0.2914,-0.3089,-0.3224,-0.3237,-0.2474,-0.2139,-0.2139,-0.1353,-0.1126,-0.1267,-0.1282,-0.1336,0.0,-0.062,-0.0372,0.0,0.0469,0.0,0.0,0.0,-0.0668,-0.111,-0.111,-0.1068,-0.1001,0.0,0.0,0.0,-0.1096,-0.1171,-0.1154,-0.1035,0.0,0.0,0.0,0.0,0.0,0.0,0.0,0.0,0.0,0.0,0.0,0.0,0.0,0.0,0.0,0.0,0.0,0.0,0.0,0.0,0.0,0.0,0.2901,0.3684,0.3763,0.3763,0.3763,0.3841,0.3966,0.4221,0.398,0.4024,0.4277,0.4116,0.4083,0.4169,0.4424,0.4646,0.5001,0.5272,0.5364,0.5366,0.5371,0.5552,0.5644,0.5463,0.5552,0.5644,0.5463,0.5552,0.5733,0.0,0.0,0.0,0.0,0.0,-0.7675,-0.7598,-0.7158,-0.6827,0.0,0.0,0.0,-0.6054,-0.5286,-0.48,-0.4801,-0.4217,-0.3838,-0.3898,-0.3401,-0.3048,-0.2892,-0.2975,-0.2915,-0.2665,-0.2858,-0.2853,-0.2665,-0.2603,-0.2608,-0.267,-0.2776,-0.279,-0.2749,-0.2855,-0.2988,-0.3127,-0.2808,-0.2499,-0.2159,-0.1913,-0.129,0.0,0.0,0.0,0.0,0.0,0.0739,0.0774,0.0,0.0523,-0.0169,0.0,-0.102,-0.111,-0.111,-0.1099,-0.1089,-0.1106,0.0,0.0,0.0,0.0,0.0,0.0,0.0,0.0,0.0,0.0,0.0,0.0,0.0,0.0,0.0,0.0,0.0,0.0,0.0,0.0,0.0,0.0,0.0,0.0,0.0,0.0,0.0,0.0,0.2588,0.2823,0.345,0.3763,0.3763,0.3921,0.4093,0.4119,0.4268,0.4315,0.4265,0.4419,0.4466,0.4322,0.4491,0.4763,0.5047,0.5047,0.5263,0.5521,0.5606,0.5644,0.5733,0.5644,0.5644,0.5733,0.5644,0.5644,0.5733,0.0,0.0,-0.8187,-0.8187,-0.8186,-0.8087,-0.7762,-0.7606,-0.7415,0.0,0.0,0.0,-0.5944,-0.5488,-0.51,-0.4837,-0.4499,-0.4199,-0.3952,-0.3478,-0.3078,-0.2822,-0.2712,-0.2621,-0.2495,-0.2531,-0.2526,-0.2495,-0.2426,-0.2426,-0.2495,-0.2576,-0.2609,-0.259,-0.2684,-0.2823,-0.2972,-0.301,-0.273,-0.2186,-0.1559,0.0,0.0,-0.0149,0.0359,0.0,0.0,0.0,0.0974,0.1521,0.098,0.0,0.0,-0.0739,-0.1145,-0.1118,-0.111,-0.1104,-0.1079,-0.109,-0.112,-0.1156,0.0,0.0,-0.1012,-0.1022,0.0,0.0,0.0,0.0,0.0,0.0,0.0,0.0,0.0,0.0,0.0,0.0,0.0,0.0,0.0,0.0,0.0,0.0,0.0,0.0,0.278,0.3103,0.3136,0.3606,0.3841,0.3921,0.4001,0.4157,0.4311,0.4446,0.448,0.4402,0.4542,0.451,0.4385,0.4637,0.4829,0.5043,0.5124,0.5244,0.548,0.5553,0.564,0.5733,0.5733,0.5733,0.5733,0.5733,0.5733,0.5733,0.0,0.0,-0.8125,-0.8187,-0.8528,-0.8508,-0.7803,-0.8022,-0.8061,0.0,-0.6818,-0.6256,-0.5546,-0.5679,-0.5546,-0.4968,-0.492,-0.4683,-0.4161,-0.3614,-0.3195,-0.2866,-0.2645,-0.2518,-0.2495,-0.2326,-0.2321,-0.2495,-0.2321,-0.2326,-0.2495,-0.2473,-0.2446,-0.2386,-0.25,-0.2647,-0.2788,-0.2955,-0.271,-0.2112,-0.0836,-0.0354,0.0,0.0,0.069,0.0726,0.1454,0.1318,0.091,0.2076,0.168,0.0,0.0,0.0,-0.1166,-0.1105,-0.1087,-0.1074,-0.1012,-0.1064,-0.1101,-0.1108,-0.1152,0.0,-0.1024,-0.0968,0.0,0.0,0.0,0.0,0.0,0.0,0.0,0.0,0.0,0.0,0.0,0.0,0.0,0.0,0.0,0.0,0.0,0.0,0.0,0.3531,0.3764,0.3958,0.4135,0.3906,0.391,0.4157,0.4157,0.4311,0.4701,0.4543,0.4543,0.4701,0.4543,0.4513,0.4525,0.4771,0.4907,0.5004,0.525,0.5336,0.5349,0.5349,0.5494,0.5714,0.5714,0.5722,0.5733,0.5733,0.5733,0.5733,-0.8187,-0.7887,-0.7752,-0.8125,-0.8036,-0.7986,-0.8139,-0.8227,-0.8223,-0.8015,-0.7516,-0.7033,-0.6637,-0.6116,-0.576,-0.5604,-0.4885,-0.4549,-0.4786,-0.3962,-0.3392,-0.3198,-0.2904,-0.266,-0.2495,-0.2452,-0.2452,-0.2495,-0.2452,-0.2431,-0.2425,-0.2355,-0.2307,-0.2241,-0.2221,-0.24,-0.2684,-0.2148,-0.177,-0.1573,-0.1403,0.0,0.0457,0.1128,0.1771,0.2296,0.241,0.2399,0.221,0.1984,0.1383,0.067,0.0,0.0,-0.0999,-0.1131,-0.1114,-0.103,-0.1075,-0.1065,-0.1047,-0.1097,-0.112,0.0,-0.0937,-0.0903,-0.0861,0.0,0.0,0.0,0.0,0.0,0.0,0.0,0.0,0.0,0.0,0.0,0.0,0.0,0.0,0.0,0.0,0.0,0.3283,0.3518,0.3741,0.393,0.4185,0.4114,0.4225,0.4304,0.4465,0.4623,0.4701,0.4857,0.4857,0.4701,0.4857,0.4792,0.4653,0.4894,0.4985,0.501,0.5086,0.5137,0.5222,0.5222,0.5366,0.5499,0.5499,0.5646,0.5733,0.5733,0.5733,0.5733,-0.8215,-0.7814,-0.7649,-0.8104,-0.8059,-0.8036,-0.8257,-0.8506,-0.8565,-0.8308,-0.7931,-0.7529,-0.7092,-0.6731,-0.6373,-0.6083,-0.5442,-0.499,-0.4922,-0.4141,-0.3563,-0.3226,-0.2949,-0.2698,-0.25,-0.2495,-0.2495,-0.2495,-0.2495,-0.2468,-0.2403,-0.2355,-0.2176,-0.1862,-0.196,-0.2119,-0.2342,-0.2163,-0.2014,-0.1828,-0.1042,0.0,0.1114,0.1658,0.223,0.2758,0.2758,0.2758,0.263,0.1986,0.1352,0.0,0.042,-0.0265,-0.0949,-0.1089,-0.1058,-0.101,-0.1094,-0.1087,-0.1071,-0.1103,-0.1043,0.0,0.0,0.0,-0.0783,0.0,0.0,0.0,0.0,0.0,0.0,0.0,0.0,0.0,0.0,0.0,0.0,0.0,0.0,0.0,0.0,0.0,0.3416,0.363,0.3801,0.4026,0.423,0.4206,0.4258,0.4456,0.459,0.4779,0.4859,0.4937,0.4937,0.4859,0.4937,0.4937,0.4859,0.4937,0.5018,0.5018,0.5018,0.505,0.5102,0.5102,0.5208,0.5377,0.5436,0.5534,0.5643,0.5643,0.5681,0.5733,-0.8244,-0.7742,-0.7545,-0.8094,-0.8209,-0.8252,-0.8388,-0.8823,-0.896,-0.851,-0.8127,-0.7746,-0.7351,-0.7118,-0.6774,-0.6228,-0.583,-0.5383,-0.4919,-0.4275,-0.3734,-0.3326,-0.3012,-0.2759,-0.2556,-0.2492,-0.2468,-0.2473,-0.2473,-0.2446,-0.2355,-0.2376,-0.2088,-0.1557,-0.1699,-0.1848,-0.1983,-0.2175,-0.2116,-0.18,0.0,0.0553,0.1174,0.1746,0.2233,0.2593,0.2787,0.284,0.2698,0.2053,0.1374,0.0788,0.0744,-0.0095,0.0,-0.103,-0.1028,-0.1013,-0.1082,-0.1094,-0.1091,-0.1079,-0.0976,-0.0885,0.0,0.0,0.0,0.0,0.0,0.0,0.0,0.0,0.0,0.0,0.0,0.0,0.0,0.0,0.0,0.0,0.0,0.0,0.0,0.0,0.3337,0.3779,0.3889,0.4075,0.4331,0.4296,0.436,0.453,0.4719,0.4859,0.5018,0.5018,0.5018,0.5018,0.5018,0.5018,0.5018,0.5018,0.5018,0.5018,0.5018,0.5018,0.5018,0.5018,0.5069,0.5165,0.5287,0.5409,0.5515,0.5515,0.5594,0.5697,-0.8244,-0.7483,-0.7162,-0.8042,-0.8199,-0.8339,-0.8757,-0.9217,-0.9313,-0.8759,-0.7946,-0.7533,-0.7715,-0.6772,-0.6079,-0.5857,-0.527,-0.4974,-0.5131,-0.435,-0.3938,-0.4066,-0.3365,-0.2925,-0.2764,-0.2462,-0.2355,-0.2403,-0.2403,-0.2355,-0.2219,-0.2285,-0.211,-0.174,-0.1435,-0.1473,-0.1799,-0.1232,-0.0691,0.0,0.0182,0.0049,0.0,0.1152,0.1708,0.1946,0.2728,0.2891,0.2706,0.0,0.1345,0.0636,0.0,-0.0462,-0.1029,-0.1125,-0.1096,-0.1024,-0.1164,-0.1085,-0.1002,-0.0954,-0.0875,-0.0809,-0.0746,0.0,-0.0574,-0.0171,0.0,0.0,0.0,0.0,0.0,0.0,0.0,0.0,0.0,0.0,0.0,0.0,0.0,0.0,0.0,0.0,0.0,0.3739,0.3711,0.3875,0.448,0.4607,0.4648,0.4755,0.4876,0.494,0.5018,0.5018,0.5018,0.5018,0.5018,0.5018,0.5018,0.5018,0.5018,0.5018,0.5018,0.5018,0.5018,0.5018,0.5023,0.5048,0.5162,0.5281,0.539,0.539,0.5466,0.5486,-0.8272,-0.7442,-0.71,-0.8032,-0.7976,-0.8049,-0.8781,-0.9269,-0.9325,-0.8648,-0.8431,-0.8318,-0.832,-0.7502,-0.6917,-0.686,0.0,-0.5153,0.0,0.0,-0.4018,-0.3868,-0.3531,-0.3146,-0.2738,-0.2598,-0.2498,-0.2403,-0.2446,-0.2376,-0.2193,-0.2263,-0.1957,-0.1343,-0.1311,-0.1147,-0.0892,0.0,-0.1118,0.0,0.0,0.0,0.0,0.0779,0.1618,0.2002,0.2814,0.3011,0.2909,0.0,0.1815,0.0,0.0,0.0,0.0,-0.057,-0.0696,-0.0954,-0.1024,-0.0794,-0.0588,-0.0823,-0.0613,-0.0349,-0.044,0.0,-0.0192,0.0,0.0,0.0,0.0,0.0,0.0,0.0,0.0,0.0,0.0,0.0,0.0,0.0,0.0,0.0,0.0,0.0,0.0,0.0,0.0,0.4032,0.4259,0.4512,0.4748,0.4727,0.4917,0.5018,0.5018,0.5018,0.5018,0.5018,0.5018,0.5018,0.5018,0.5018,0.5018,0.5018,0.5018,0.5018,0.5018,0.5018,0.5018,0.5021,0.5069,0.5159,0.5262,0.5262,0.5341,0.5455,-0.8223,-0.7442,-0.71,-0.8032,-0.7908,-0.7996,-0.8917,-0.9442,-0.9417,-0.8699,-0.8729,-0.8824,-0.8692,-0.7843,-0.7266,-0.72,-0.6002,-0.5238,0.0,0.0,-0.4163,-0.3872,-0.3687,-0.3366,-0.291,-0.2714,-0.2563,-0.2417,-0.243,-0.2333,-0.2176,-0.2241,-0.1887,-0.1232,-0.1242,-0.0968,-0.0527,0.0,-0.1198,-0.0907,-0.1238,-0.1091,-0.0512,0.0515,0.125,0.1878,0.2579,0.2851,0.2825,0.2763,0.2064,0.0,0.16,0.0,-0.0373,0.01,-0.0098,-0.0483,-0.0669,0.0,0.0,0.0,0.0,0.0,0.0,0.0,0.0,0.0,0.0,0.0,0.0,0.0,0.0,0.0,0.0,0.0,0.0,0.0,0.0,0.0,0.0,0.0,0.0,0.0,0.0,0.0,0.0,0.0,0.4115,0.4395,0.4657,0.4723,0.4857,0.4982,0.5018,0.5018,0.5018,0.5018,0.5018,0.5018,0.5018,0.5018,0.5018,0.5018,0.5018,0.5018,0.5018,0.5018,0.5018,0.5018,0.5018,0.5067,0.514,0.514,0.5216,0.533,-0.8132,-0.7442,-0.71,-0.8032,-0.8187,-0.8468,-0.9353,-0.9885,-0.9822,0.0,0.0,0.0,0.0,0.0,0.0,0.0,0.0,-0.5081,-0.5005,0.0,-0.457,-0.4557,-0.3871,-0.3453,0.0,-0.275,-0.2425,-0.2498,-0.2308,-0.2176,-0.21,-0.2176,-0.2044,-0.175,-0.1172,-0.101,-0.1126,-0.0658,-0.0308,-0.0,0.0516,0.1161,0.1648,0.0,0.0376,0.1032,0.1924,0.0,0.0,0.2189,0.1981,0.0,0.0,0.0,0.0,0.0,0.0,0.0,0.0,0.0,0.0,-0.068,0.0,0.0,0.0,0.0,0.0214,0.0,0.0,0.0,0.0,0.0,0.0,0.0,0.0,0.0,0.0,0.0,0.0,0.0,0.0,0.0,0.0,0.0,0.0,0.0,0.0,0.0,0.4105,0.424,0.4417,0.4718,0.4773,0.4898,0.5015,0.5018,0.5018,0.5018,0.5018,0.5018,0.5018,0.5018,0.5018,0.5018,0.5018,0.5018,0.5018,0.5018,0.5018,0.5018,0.5018,0.5021,0.5023,0.5023,0.5094,0.5195,-0.8206,-0.7468,-0.71,-0.8032,-0.8475,-0.9091,-1.0331,-1.0431,0.0,0.0,0.0,0.0,0.0,-0.7004,-0.6387,0.0,0.0,-0.5108,-0.5204,-0.4963,0.0,0.0,0.0,-0.3885,0.0,0.0,-0.287,-0.2507,-0.2515,-0.2374,-0.21,-0.2176,-0.2066,-0.1794,-0.1438,-0.1063,-0.0693,0.0,0.0,0.0,0.0,-0.0292,0.0122,0.0,0.0,0.1872,0.2593,0.2806,0.0,0.285,0.2518,0.206,0.231,0.1687,0.098,0.1426,0.123,0.0,0.0,0.0,0.0997,0.0529,0.0,0.0,0.0,0.0,0.0,0.0,0.0,0.0,0.0,0.0,0.0,0.0,0.0,0.0,0.0,0.0,0.0,0.0,0.0,0.0,0.0,0.0,0.0,0.0,0.0,0.0,0.0,0.4145,0.4338,0.4417,0.4689,0.4855,0.4896,0.4977,0.5018,0.5018,0.5018,0.5018,0.5018,0.5018,0.5018,0.5018,0.5018,0.5018,0.5018,0.5018,0.5018,0.5018,0.5018,0.5018,0.5018,0.5018,0.5042,0.5086,-0.7967,-0.7404,-0.7135,-0.8032,-0.8704,0.0,0.0,0.0,0.0,0.0,-0.8571,0.0,-0.7545,0.0,-0.6411,0.0,-0.5663,-0.5231,-0.5288,-0.5169,0.0,-0.4717,-0.4561,0.0,0.0,0.0,0.0,0.0,-0.2596,-0.2438,-0.214,-0.2158,-0.2092,-0.1924,-0.1648,-0.1286,-0.0848,-0.0999,-0.0846,0.0,0.0,-0.0604,0.0,0.0,0.1719,0.1112,0.0,0.2217,0.2487,0.2755,0.2701,0.2572,0.2961,0.2489,0.1791,0.2151,0.1928,0.153,0.1333,0.1517,0.0,0.1086,0.1179,0.0,0.1421,0.0,0.149,0.0,0.0,0.0,0.0,0.0,0.0,0.0,0.0,0.0,0.0,0.0,0.0,0.0,0.0,0.0,0.0,0.0,0.0,0.0,0.0,0.0,0.0,0.0,0.4211,0.4298,0.4564,0.4746,0.4833,0.4912,0.4974,0.5018,0.5018,0.5018,0.5018,0.5018,0.5018,0.5018,0.5018,0.5018,0.5018,0.5018,0.5018,0.5018,0.5018,0.5018,0.5018,0.5018,0.5018,0.5026,-0.7506,-0.7304,-0.7264,0.0,-0.8942,0.0,0.0,0.0,-0.9089,0.0,-0.786,-0.7593,-0.7385,-0.6799,-0.6376,-0.6376,-0.5749,0.0,-0.5313,-0.5317,0.0,0.0,-0.4734,-0.4441,-0.4316,0.0,0.0,0.0,0.0,-0.2347,-0.2206,-0.2144,-0.2144,-0.2201,-0.1807,-0.1621,-0.1603,-0.121,-0.0992,-0.0924,-0.0284,0.0306,0.0837,0.0774,0.0,-0.1008,-0.0202,0.0538,0.121,0.1946,0.2571,0.3031,0.3097,0.3034,0.3022,0.3022,0.2899,0.2655,0.2122,0.1911,0.1708,0.1124,0.0,0.0,0.0,0.0,0.1738,0.0,0.0,0.0,0.0,0.0,0.0,0.0,0.0,0.0,0.0,0.0,0.0,0.0,0.0,0.0,0.0,0.0,0.0,0.0,0.0,0.0,0.0,0.0,0.0,0.4276,0.4398,0.4577,0.4814,0.4828,0.4893,0.501,0.5015,0.5018,0.5018,0.5018,0.5018,0.5018,0.5018,0.5018,0.5018,0.5018,0.5018,0.5018,0.5018,0.5018,0.5018,0.5018,0.5018,0.5018,-0.8074,-0.8301,-0.8454,0.0,-0.946,-1.021,0.0,0.0,0.0,0.0,-0.7429,-0.6524,-0.5941,-0.5849,-0.5819,-0.5819,-0.5785,0.0,0.0,0.0,0.0,-0.5092,-0.5001,-0.4734,-0.4328,-0.4,0.0,-0.3139,0.0,-0.2565,-0.2351,-0.2182,-0.219,-0.2343,-0.2094,-0.191,-0.1801,-0.152,-0.1187,-0.0912,-0.0779,-0.0624,0.0,0.0,-0.0802,-0.0941,0.0336,0.0941,0.121,0.1946,0.2271,0.2523,0.2992,0.313,0.3056,0.3056,0.2991,0.2921,0.2738,0.2602,0.2527,0.2354,0.2252,0.2198,0.0,0.0,0.0,0.0,0.0,0.0,0.0,0.0,0.0,0.0,0.0,0.0,0.0,0.0,0.0,0.0,0.0,0.0,0.0,0.0,0.0,0.0,0.0,0.0,0.0,0.0,0.0,0.4023,0.4232,0.4414,0.4561,0.4743,0.4849,0.4882,0.4974,0.5018,0.5018,0.5018,0.5018,0.5018,0.5018,0.5018,0.5018,0.5018,0.5018,0.5018,0.5018,0.5018,0.5018,0.5018,0.5018,0.5018,-0.8207,-0.8738,0.0,-0.9439,0.0,0.0,-1.0798,0.0,0.0,-0.8573,-0.7361,0.0,-0.5965,-0.5797,-0.5734,-0.5734,-0.5827,0.0,-0.5738,0.0,0.0,-0.5324,-0.5242,-0.5019,-0.4633,-0.4336,0.0,-0.3404,0.0,-0.2839,-0.2573,-0.2424,-0.2428,-0.256,-0.2346,-0.226,-0.2284,-0.1897,-0.1463,-0.1025,-0.1043,0.0,0.0,-0.1069,-0.1076,-0.1008,-0.0134,0.0336,0.0672,0.1074,0.1477,0.1813,0.215,0.2259,0.2296,0.2623,0.2634,0.2638,0.2951,0.295,0.2883,0.2883,0.2777,0.2728,0.2781,0.2786,0.2773,0.0,0.0,0.0,0.0,0.0,0.0,0.0,0.0,0.0,0.0,0.0,0.0,0.0,0.0,0.0,0.0,0.0,0.0,0.0,0.0,0.0,0.0,0.0,0.0,0.3854,0.4094,0.4276,0.4395,0.4583,0.473,0.4836,0.4904,0.4966,0.5018,0.5018,0.5018,0.5018,0.5018,0.5018,0.5018,0.5018,0.5018,0.5018,0.5018,0.5018,0.5018,0.5018,0.5018,0.5018,-0.8253,-0.8896,-0.9757,0.0,0.0,0.0,0.0,-0.9597,0.0,-0.8475,0.0,-0.6578,-0.6578,-0.621,-0.5921,-0.5921,0.0,-0.5949,-0.5921,-0.5921,-0.5839,-0.5657,-0.5426,-0.5249,-0.5121,-0.4585,0.0,0.0,0.0,-0.3081,-0.2862,-0.2756,-0.2748,-0.2809,-0.2594,-0.258,0.0,-0.2211,-0.1704,0.0,-0.1174,-0.1151,-0.1076,-0.1076,-0.1076,-0.1076,-0.1076,-0.0672,-0.0134,-0.0,0.0403,0.0941,0.1076,0.1076,0.121,0.1879,0.2046,0.2138,0.2785,0.2977,0.3034,0.3034,0.2907,0.2842,0.3014,0.3058,0.3094,0.3235,0.3168,0.0,0.0,0.0,0.0,0.0,0.0,0.0,0.0,0.0,0.0,0.0,0.0,0.0,0.0,0.0,0.0,0.0,0.0,0.0,0.0,0.0,0.0,0.3812,0.3974,0.0,0.4276,0.0,0.4577,0.4787,0.4819,0.489,0.4993,0.501,0.5018,0.5018,0.5018,0.5018,0.5018,0.5018,0.5018,0.5018,0.5018,0.5018,0.5018,0.5018,0.5018,0.5018,-0.8859,-0.9451,-1.0334,0.0,0.0,-1.1037,-1.0895,-0.9343,-0.8056,-0.7723,-0.6672,-0.5904,-0.578,-0.6026,-0.6162,-0.6162,-0.6237,0.0,0.0,0.0,0.0,-0.5848,-0.5665,-0.5486,-0.5257,-0.4726,-0.4394,0.0,0.0,-0.318,-0.3111,-0.2847,-0.2753,-0.2895,-0.3015,-0.2822,-0.234,-0.1724,0.0,-0.105,-0.105,-0.1087,-0.1076,-0.1076,-0.1076,-0.1076,-0.1076,-0.1008,-0.0807,-0.0202,0.0067,0.0269,0.0941,0.1076,0.1143,0.1277,0.174,0.2199,0.2332,0.2741,0.3066,0.3066,0.2999,0.2993,0.3114,0.3271,0.3344,0.343,0.3477,0.3466,0.3384,0.0,0.0,0.0,0.0,0.0,0.0,0.0,0.0,0.0,0.0,0.0,0.0,0.0,0.0,0.0,0.0,0.0,0.0,0.0,0.0,0.0,0.0,0.0,0.0,0.0,0.0,0.4537,0.4738,0.4844,0.4868,0.4972,0.5018,0.5018,0.5018,0.5018,0.5018,0.5018,0.5018,0.5018,0.5018,0.5018,0.5018,0.5018,0.5018,0.5018,-1.0583,-1.072,-1.1091,-1.1684,0.0,0.0,0.0,-0.9592,0.0,-0.8208,-0.7229,-0.6493,-0.6413,-0.6375,-0.6286,-0.6286,-0.6367,-0.6379,-0.6294,-0.6286,-0.6209,-0.6092,-0.5852,0.0,-0.5434,-0.5052,-0.469,-0.4414,0.0,-0.3667,-0.3444,-0.331,-0.3239,-0.3328,-0.3227,-0.2878,0.0,0.0,0.0,-0.1112,-0.1112,-0.1087,-0.1076,-0.1076,-0.1076,-0.1076,-0.1076,-0.1076,-0.1076,-0.0672,-0.0538,-0.0538,-0.0134,-0.0067,0.0067,0.0403,0.0806,0.1208,0.2013,0.2392,0.2697,0.3095,0.3093,0.3088,0.3342,0.3427,0.3435,0.3683,0.3698,0.3618,0.3436,0.3262,0.0,0.0,0.0,0.0,0.0,0.0,0.0,0.0,0.0,0.0,0.0,0.0,0.0,0.0,0.0,0.0,0.0,0.0,0.0,0.0,0.0,0.0,0.0,0.0,0.0,0.4471,0.4654,0.4773,0.4838,0.4961,0.5018,0.5018,0.5018,0.5018,0.5018,0.5018,0.5018,0.5018,0.5018,0.5018,0.5018,0.5018,0.5018,0.5018,-1.2074,-1.1879,-1.1828,0.0,-1.1618,0.0,-1.0742,-0.9972,-0.923,-0.8873,-0.8074,-0.7441,-0.724,-0.6879,-0.6548,-0.642,-0.642,-0.642,-0.642,-0.642,-0.6355,-0.6273,-0.6034,-0.5856,-0.5673,-0.532,-0.4983,0.0,0.0,0.0,-0.3702,-0.3702,-0.3664,0.0,0.0,0.0,0.0,0.0,-0.1535,-0.1174,-0.1174,-0.1151,-0.1076,-0.1076,-0.1076,-0.1076,-0.1076,-0.1076,-0.1076,-0.1076,-0.1076,-0.1076,-0.1076,-0.1076,-0.1008,-0.0403,-0.0134,0.0269,0.1611,0.208,0.2348,0.3023,0.3173,0.3249,0.3577,0.3575,0.3633,0.3856,0.3857,0.3754,0.3509,0.3436,0.0,0.0,0.0,0.0,0.0,0.0,0.0,0.0,0.0,0.0,0.0,0.0,0.0,0.0,0.0,0.0,0.0,0.0,0.0,0.0,0.0,0.3872,0.3872,0.0,0.4346,0.0,0.4654,0.4703,0.48,0.495,0.5018,0.5018,0.5018,0.5018,0.5018,0.5018,0.5018,0.5018,0.5018,0.5018,0.5018,0.5018,0.5018,0.5018,0.0,0.0,0.0,0.0,0.0,0.0,0.0,-1.0253,-0.9512,-0.903,-0.8705,-0.8287,-0.7494,-0.7388,-0.7134,-0.6482,-0.642,-0.642,-0.642,-0.642,-0.6412,-0.6392,-0.6217,-0.6104,-0.5868,-0.5454,-0.523,0.0,0.0,0.0,0.0,-0.3702,-0.3549,0.0,0.0,0.0,0.0,-0.1372,-0.1105,-0.0988,-0.0988,-0.1023,-0.1076,-0.1076,-0.1076,-0.1076,-0.1076,-0.1076,-0.1076,-0.1076,-0.1076,-0.1076,-0.1076,-0.1076,-0.1076,-0.1008,-0.0538,0.0202,0.1008,0.1679,0.2348,0.3023,0.3355,0.3549,0.3744,0.387,0.3967,0.406,0.3917,0.3804,0.3782,0.3545,0.3398,0.0,0.0,0.0,0.0,0.0,0.0,0.0,0.0,0.0,0.0,0.0,0.0,0.0,0.0,0.0,0.0,0.0,0.0,0.3585,0.0,0.3872,0.3872,0.4178,0.0,0.4319,0.4545,0.4731,0.4751,0.4912,0.5018,0.5018,0.5018,0.5018,0.5018,0.5018,0.5018,0.5018,0.5018,0.5018,0.5018,0.5018,0.5018,0.5018,0.0,0.0,0.0,0.0,0.0,0.0,0.0,-1.094,-1.088,-1.0349,-0.9348,-0.8561,-0.8133,-0.7723,-0.7391,-0.7068,-0.6679,-0.642,-0.642,-0.642,-0.642,-0.642,-0.6245,-0.6125,-0.5892,-0.564,-0.5368,0.0,0.0,0.0,0.0,0.0,0.0,0.0,0.0,-0.2738,-0.2135,-0.1693,-0.1304,-0.099,-0.1008,-0.1039,-0.1076,-0.1076,-0.1076,-0.1076,-0.1076,-0.1076,-0.1076,-0.1076,-0.1076,-0.1076,-0.1076,-0.1076,-0.1076,-0.1078,-0.0605,0.0067,0.0538,0.141,0.2348,0.3023,0.3228,0.3426,0.3758,0.3825,0.3949,0.4169,0.4091,0.395,0.3876,0.3784,0.3721,0.0,0.0,0.0,0.0,0.0,0.0,0.0,0.0,0.0,0.0,0.0,0.0,0.0,0.0,0.0,0.0,0.0,0.0,0.3585,0.0,0.3872,0.3872,0.4178,0.43,0.4303,0.4539,0.4726,0.4734,0.4906,0.5018,0.5018,0.5018,0.5018,0.5018,0.5018,0.5018,0.5018,0.5018,0.5018,0.5018,0.5018,0.5018,0.5018,-1.3914,0.0,-1.3601,0.0,-1.2867,-1.2779,-1.1035,-1.1529,-1.1924,-1.1277,-1.0166,-0.9307,-0.8977,-0.849,-0.8102,-0.7842,-0.7326,-0.6937,-0.6745,-0.6937,-0.6806,-0.6416,-0.6484,0.0,-0.5969,-0.5787,-0.5543,-0.5238,-0.5133,0.0,0.0,-0.4486,0.0,0.0,-0.3617,-0.3166,-0.2585,-0.2017,-0.1626,-0.1315,-0.1088,-0.105,-0.1076,-0.1076,-0.1076,-0.1076,-0.1076,-0.1076,-0.1076,-0.1076,-0.1076,-0.1076,-0.1076,-0.1076,-0.1076,-0.1078,-0.0741,-0.0202,0.0403,0.1343,0.2348,0.3159,0.3362,0.3493,0.3825,0.3892,0.4028,0.4233,0.4202,0.4091,0.4004,0.3896,0.3872,0.0,0.0,0.0,0.0,0.0,0.0,0.0,0.3294,0.3286,0.0,0.0,0.0,0.0,0.0,0.0,0.0,0.0,0.0,0.0,0.0,0.0,0.0,0.0,0.4317,0.4352,0.4626,0.4742,0.4713,0.4996,0.5093,0.5018,0.5093,0.5093,0.5093,0.5093,0.5093,0.5093,0.5093,0.5015,0.5018,0.5018,0.5018,0.5018,-1.4393,-1.4563,-1.4377,-1.3005,-1.3459,-1.3323,-1.142,-1.1867,-1.2205,-1.1421,-1.1296,-1.0912,-1.0085,-0.9831,-0.9454,-0.8554,-0.849,-0.8166,-0.7521,-0.8102,-0.7842,0.0,0.0,-0.7099,-0.6211,-0.5973,-0.5791,-0.5604,0.0,0.0,-0.4501,-0.4096,-0.3762,-0.3492,-0.3448,-0.3202,-0.2874,-0.2113,-0.1887,-0.1992,-0.129,-0.105,-0.1076,-0.1076,-0.1076,-0.1076,-0.1076,-0.1076,-0.1076,-0.1076,-0.1076,-0.1076,-0.1076,-0.1076,-0.1076,-0.1078,-0.1079,-0.0741,0.0672,0.1611,0.2348,0.3362,0.3763,0.3961,0.4028,0.4164,0.43,0.43,0.4202,0.4118,0.4115,0.4015,0.3872,0.3872,0.0,0.0,0.0,0.0,0.0,0.3593,0.3474,0.3447,0.3566,0.0,0.0,0.0,0.0,0.0,0.0,0.0,0.0,0.3585,0.3814,0.0,0.3872,0.4178,0.4357,0.4469,0.4665,0.4716,0.4836,0.5109,0.5168,0.5018,0.5246,0.5321,0.5321,0.5321,0.5321,0.5321,0.5321,0.5168,0.5018,0.5018,0.5018,0.5018,-1.4883,-1.4842,-1.471,-1.4052,-1.4455,-1.4355,-1.3084,-1.3047,-1.2948,-1.2212,-1.1732,-1.1303,-1.08,-1.0155,-0.9646,0.0,-0.8748,-0.8425,0.0,-0.8361,-0.8102,-0.7195,-0.7391,-0.7104,-0.6211,-0.6154,-0.5977,-0.5803,0.0,0.0,0.0,-0.4517,-0.4417,-0.432,-0.4323,-0.4022,-0.364,-0.3466,-0.3153,-0.2766,-0.2038,-0.1732,-0.1745,-0.1276,-0.1076,-0.1076,-0.1076,-0.1076,-0.1076,-0.1076,-0.1076,-0.1076,-0.1076,-0.1077,-0.1078,-0.1079,-0.0876,-0.0538,0.0134,0.1008,0.2083,0.3295,0.3632,0.3763,0.3828,0.4097,0.43,0.43,0.427,0.4243,0.4243,0.4211,0.4183,0.4183,0.4113,0.0,0.0,0.0,0.3768,0.3599,0.355,0.3542,0.0,0.0,0.0,0.0,0.0,0.0,0.0,0.0,0.0,0.0,0.3814,0.0,0.3872,0.4178,0.4357,0.4471,0.4665,0.476,0.4958,0.5074,0.5168,0.5168,0.5093,0.5168,0.5321,0.5168,0.5093,0.5093,0.5093,0.5093,0.5018,0.5018,0.5018,0.5018,-1.5362,-1.5337,-1.5249,-1.4715,-1.5076,-1.4993,-1.3811,-1.3563,-1.326,-1.2573,-1.1973,-1.1498,-1.1129,-1.0611,0.0,-0.9907,-0.9524,-0.9198,-0.8877,-0.9134,-0.8877,-0.7912,-0.7847,-0.7648,-0.7072,0.0,0.0,-0.6406,-0.5803,-0.5253,-0.4862,-0.4862,-0.48,-0.4775,-0.4775,-0.4616,-0.4379,-0.4201,-0.3937,-0.3528,-0.2795,-0.2347,-0.2079,-0.1612,-0.1344,-0.1076,-0.1076,-0.1076,-0.1076,-0.1076,-0.1076,-0.1076,-0.1076,-0.1078,-0.1079,-0.0944,-0.0808,-0.0605,-0.0135,0.0875,0.2017,0.2824,0.336,0.3763,0.3961,0.4164,0.43,0.43,0.43,0.43,0.43,0.43,0.43,0.43,0.4235,0.4143,0.402,0.0,0.3846,0.0,0.0,0.0,0.0,0.361,0.0,0.0,0.0,0.0,0.0,0.0,0.0,0.3645,0.3833,0.0,0.4004,0.42,0.4357,0.4471,0.464,0.4825,0.5018,0.5171,0.5246,0.5321,0.5246,0.5326,0.5401,0.5171,0.509,0.509,0.509,0.5093,0.5018,0.5018,0.5018,0.5018,-1.5896,-1.5951,0.0,0.0,-1.541,0.0,-1.3872,-1.3571,-1.326,-1.2634,-1.1981,-1.1498,-1.1122,-1.1122,-1.0996,-1.0624,0.0,0.0,0.0,-1.0231,-0.9977,-0.8619,-0.8554,0.0,-0.849,-0.7072,-0.6593,-0.7135,-0.6153,-0.5464,-0.509,-0.509,-0.5039,-0.4935,-0.4935,-0.5013,-0.5081,-0.4437,-0.4248,-0.4287,-0.3551,-0.2882,-0.2214,-0.2213,-0.1812,-0.121,-0.121,-0.121,-0.121,-0.1143,-0.1076,-0.1076,-0.1076,-0.1078,-0.1012,-0.0607,-0.0742,-0.0877,-0.0202,0.101,0.2085,0.2082,0.3019,0.3961,0.4233,0.43,0.43,0.43,0.43,0.43,0.43,0.43,0.43,0.43,0.43,0.4259,0.4134,0.0,0.0,0.0,0.0,0.0,0.0,0.367,0.3607,0.0,0.0,0.0,0.0,0.0,0.3656,0.382,0.3884,0.4001,0.4115,0.4238,0.436,0.4485,0.4722,0.4898,0.5018,0.5407,0.5479,0.5321,0.5479,0.5559,0.5559,0.5398,0.5321,0.5243,0.5243,0.5168,0.5018,0.5018,0.5018,0.5018,0.0,0.0,-1.6249,-1.5874,-1.5836,-1.5672,-1.5254,-1.4231,-1.3442,-1.326,-1.229,-1.1498,-1.1303,-1.1185,-1.0996,-1.0744,-1.0681,-1.0561,-1.0364,-1.0498,-1.0168,-0.9326,-0.9262,-0.9005,-0.849,-0.8109,-0.7551,-0.6818,-0.6586,-0.594,-0.4918,-0.4918,-0.4975,-0.5081,-0.5081,-0.5165,-0.5304,-0.5173,-0.5127,-0.5093,-0.4353,-0.3951,-0.3751,-0.3149,-0.2815,-0.2681,-0.2283,-0.2149,-0.2082,-0.1347,-0.1078,-0.1078,-0.1076,-0.1078,-0.1012,-0.0742,-0.0472,-0.0202,-0.0067,0.1011,0.2089,0.2082,0.3019,0.3961,0.4028,0.4164,0.43,0.43,0.43,0.43,0.43,0.43,0.43,0.43,0.43,0.4259,0.4134,0.4118,0.0,0.0,0.3909,0.3892,0.3892,0.3868,0.3852,0.0,0.0,0.0,0.0,0.3865,0.3865,0.3892,0.4009,0.4088,0.4118,0.4238,0.4404,0.4682,0.4905,0.5047,0.5018,0.5093,0.5171,0.5321,0.5321,0.5398,0.5398,0.5321,0.5246,0.5093,0.5093,0.5015,0.5018,0.5018,0.5018,0.5018,-1.6842,-1.6477,-1.6316,-1.6077,-1.5961,-1.5798,-1.5604,-1.4647,-1.3872,-1.3571,-1.265,-1.1794,-1.1247,-1.1122,-1.0996,-1.0744,-1.0624,-1.0624,-1.0624,-1.0498,-1.0301,-1.004,-0.9652,-0.9396,-0.946,-0.8812,-0.7906,-0.6762,-0.6702,-0.6149,-0.5121,-0.5121,-0.5162,-0.5237,-0.5237,-0.5284,-0.5428,-0.5428,-0.5428,-0.5362,-0.4957,-0.4622,-0.4287,-0.3885,-0.3482,-0.3149,-0.2883,-0.2683,-0.2417,-0.1883,-0.1482,-0.1079,-0.1078,-0.1078,-0.1079,-0.0944,-0.0674,-0.0404,-0.0067,0.0539,0.1482,0.2757,0.3627,0.4164,0.4164,0.4233,0.43,0.43,0.43,0.43,0.43,0.43,0.43,0.43,0.43,0.4276,0.4211,0.42,0.0,0.411,0.4053,0.4018,0.4018,0.3904,0.3872,0.3872,0.0,0.0,0.4015,0.4083,0.4145,0.4145,0.4083,0.4143,0.4327,0.4397,0.4594,0.4859,0.4983,0.5035,0.5084,0.5143,0.5246,0.5401,0.5401,0.5476,0.5553,0.5479,0.5323,0.5168,0.5168,0.5093,0.5018,0.5018,0.5018,0.5018,-1.6842,-1.6534,-1.6316,-1.5972,-1.5856,-1.573,-1.5478,-1.4883,-1.4291,-1.3752,-1.307,-1.2336,-1.1553,-1.1428,-1.124,-1.0863,-1.0744,-1.0688,-1.0624,-1.0428,-1.0434,-1.0561,-0.9913,-0.9849,-1.0561,-0.939,-0.8291,-0.7246,-0.706,-0.6474,-0.5557,-0.5557,-0.5491,-0.5428,-0.5428,-0.5428,-0.5428,-0.5428,-0.5428,-0.5428,-0.5428,-0.5024,-0.4486,-0.442,-0.4018,-0.3551,-0.3485,-0.322,-0.282,-0.2619,-0.2018,-0.1281,-0.1146,-0.1079,-0.1079,-0.1012,-0.1012,-0.0877,-0.0337,-0.0067,0.0606,0.3029,0.3969,0.4303,0.43,0.43,0.43,0.43,0.43,0.43,0.43,0.43,0.43,0.43,0.43,0.43,0.43,0.0,0.43,0.43,0.4208,0.4145,0.4145,0.405,0.399,0.399,0.399,0.0,0.0,0.4277,0.4408,0.4473,0.4274,0.4322,0.4625,0.4625,0.4763,0.4966,0.4956,0.5009,0.513,0.526,0.5401,0.5482,0.5559,0.5712,0.5786,0.5712,0.5479,0.5321,0.5321,0.5168,0.5018,0.5018,0.5018,0.5018,-1.7022,-1.6602,-1.6316,-1.5972,-1.5798,-1.5672,-1.541,-1.4883,-1.4469,-1.435,-1.3743,-1.326,-1.3139,-1.2887,-1.2458,-1.1834,-1.1538,-1.1115,-1.0624,-1.0561,-1.0561,-1.0624,-1.0498,-1.0428,-1.0624,-1.0238,-0.9582,-0.8667,-0.8479,-0.7632,-0.6268,-0.6268,-0.5947,-0.5428,-0.5428,-0.5428,-0.5428,-0.5428,-0.5428,-0.5428,-0.5428,-0.5362,-0.5226,-0.5024,-0.502,-0.5027,-0.4773,-0.4643,-0.4439,-0.3096,-0.2559,-0.2291,-0.1416,-0.1079,-0.1012,-0.0674,-0.0607,-0.0674,-0.0877,-0.0471,0.0134,0.0538,0.2487,0.4311,0.4303,0.43,0.43,0.43,0.43,0.43,0.43,0.43,0.43,0.43,0.43,0.43,0.43,0.0,0.43,0.43,0.4284,0.4273,0.4273,0.4257,0.4243,0.4243,0.4243,0.4251,0.427,0.4273,0.4472,0.4734,0.4731,0.4674,0.4625,0.4694,0.4763,0.4755,0.517,0.5301,0.513,0.526,0.5246,0.5093,0.5482,0.5556,0.5398,0.5709,0.5631,0.5321,0.5321,0.5168,0.5018,0.5018,0.5018,0.5018,-1.7279,-1.6627,-1.6134,-1.5856,-1.5798,-1.573,-1.541,-1.5177,-1.4883,-1.4529,-1.4231,-1.3803,-1.3321,-1.307,-1.2818,-1.232,-1.1779,-1.1365,-1.0996,-1.0555,-1.0308,-1.0434,-1.0308,-1.0364,-1.0624,-1.0301,-0.9779,-0.8988,-0.8737,-0.8027,-0.6924,-0.6597,-0.6207,-0.5752,-0.5422,-0.516,-0.5096,-0.516,-0.5223,-0.5226,-0.5359,-0.5428,-0.5362,-0.5156,-0.5156,-0.5226,-0.497,-0.4843,-0.4712,-0.4038,-0.3299,-0.2627,-0.2089,-0.1551,-0.1079,-0.0877,-0.0809,-0.0809,-0.0539,-0.0269,-0.0,-0.0,0.1008,0.2284,0.3286,0.3961,0.43,0.43,0.43,0.43,0.43,0.43,0.43,0.43,0.43,0.0,0.0,0.43,0.43,0.43,0.43,0.43,0.43,0.43,0.43,0.43,0.43,0.43,0.43,0.4431,0.4564,0.4764,0.4831,0.4761,0.4625,0.4761,0.4858,0.4919,0.5265,0.5334,0.5176,0.5156,0.5177,0.5168,0.5482,0.5634,0.5628,0.5944,0.5944,0.5631,0.5479,0.5323,0.5168,0.5015,0.5018,0.5018,-1.749,-1.6832,-1.6332,-1.5788,-1.5846,-1.5836,-1.5468,-1.541,-1.5235,-1.4765,-1.4647,-1.435,-1.3623,-1.3433,-1.3252,-1.2818,-1.2212,-1.167,-1.1303,-1.0548,-1.0174,-1.0238,-1.011,-1.011,-1.0434,-1.0117,-0.9722,-0.9192,-0.8877,-0.8361,-0.7647,-0.6924,-0.647,-0.6079,-0.5418,-0.4957,-0.4831,-0.496,-0.5024,-0.5024,-0.5226,-0.5229,-0.5226,-0.5024,-0.502,-0.5024,-0.4764,-0.47,-0.464,-0.464,-0.3904,-0.2963,-0.2288,-0.1617,-0.1079,-0.1079,-0.1012,-0.0742,-0.0135,-0.0,-0.0,-0.0,-0.0,0.047,0.2278,0.3556,0.4303,0.43,0.43,0.43,0.43,0.43,0.43,0.43,0.0,0.0,0.0,0.43,0.43,0.43,0.43,0.43,0.43,0.43,0.43,0.43,0.43,0.43,0.43,0.4495,0.4628,0.4761,0.4764,0.4761,0.4625,0.4761,0.4894,0.5024,0.5238,0.531,0.5231,0.5143,0.5196,0.5243,0.5479,0.5634,0.5864,0.6103,0.6099,0.5864,0.5712,0.5479,0.5243,0.5093,0.5018,0.5018,-1.7324,-1.7335,-1.7168,-1.5904,-1.5989,-1.6083,-1.5468,-1.541,-1.5352,-1.5352,-1.5254,-1.5098,-1.5029,-1.4775,-1.4291,-1.3683,-1.3191,-1.2458,-1.1365,-1.08,-1.0364,-1.0047,-0.9983,-0.9983,-1.0047,-0.9862,-0.9804,-0.9734,-0.9542,-0.9087,-0.8425,-0.7642,-0.6863,-0.6079,-0.5418,-0.4957,-0.4831,-0.4827,-0.4827,-0.4827,-0.4831,-0.4831,-0.4831,-0.4691,-0.4694,-0.4764,-0.4434,-0.4431,-0.4561,-0.4367,-0.4239,-0.3703,-0.1008,-0.0606,-0.1079,-0.1079,-0.0607,-0.0067,-0.0,-0.0,-0.0,-0.0,-0.0,0.0404,0.1812,0.3293,0.4311,0.4303,0.43,0.43,0.43,0.43,0.43,0.43,0.0,0.0,0.43,0.43,0.43,0.43,0.43,0.43,0.43,0.43,0.43,0.43,0.43,0.43,0.43,0.4495,0.4625,0.4625,0.4761,0.4761,0.4625,0.4761,0.4831,0.4831,0.531,0.5454,0.5231,0.5294,0.5278,0.5015,0.5246,0.5401,0.5637,0.5867,0.5941,0.5864,0.5712,0.5479,0.5243,0.5093,0.5018,0.5018,-1.8038,-1.771,-1.7213,-1.6208,-1.6275,-1.6379,-1.6026,-1.5633,-1.5526,-1.5816,-1.5488,-1.5088,-1.4902,-1.4775,-1.4538,-1.4258,-1.3442,-1.2765,-1.2282,-1.1483,-1.0681,-0.9926,-0.9862,-0.9926,-0.9983,-0.9868,-0.9804,-0.9804,-0.9612,-0.935,-0.9087,-0.7837,-0.7055,-0.6535,-0.5352,-0.4694,-0.45,-0.4628,-0.4694,-0.4694,-0.4764,-0.4831,-0.4764,-0.4628,-0.4628,-0.4628,-0.4367,-0.4364,-0.4431,-0.43,-0.4306,-0.3974,-0.1946,-0.0874,-0.0539,-0.0944,-0.0607,-0.0,-0.0,-0.0,0.0404,0.2225,0.2698,0.2829,0.336,0.3897,0.4306,0.4303,0.43,0.43,0.43,0.43,0.43,0.43,0.0,0.43,0.43,0.43,0.43,0.43,0.43,0.43,0.43,0.43,0.43,0.43,0.43,0.43,0.43,0.4564,0.4694,0.4694,0.4764,0.4761,0.4625,0.4761,0.4894,0.4957,0.5215,0.5293,0.5228,0.514,0.5055,0.5018,0.5246,0.5401,0.5637,0.5786,0.5864,0.586,0.5786,0.5553,0.5321,0.5246,0.509,0.5018,-1.8417,-1.8093,-1.76,-1.6754,-1.6821,-1.6944,-1.6641,-1.614,-1.5921,-1.6056,-1.5604,-1.5137,-1.4715,-1.4656,-1.4616,-1.4506,-1.37,-1.307,-1.2826,-1.1787,-1.0926,-1.0238,-1.0117,-1.0117,-1.011,-0.9926,-0.9804,-0.9676,-0.9548,-0.942,-0.9285,-0.7902,-0.7051,-0.6662,-0.5216,-0.4495,-0.43,-0.4431,-0.4495,-0.4495,-0.4631,-0.4631,-0.4631,-0.4561,-0.4495,-0.4495,-0.4364,-0.43,-0.43,-0.43,-0.4306,-0.4038,-0.2551,-0.1143,-0.0067,-0.0607,-0.0404,-0.0,-0.0,-0.0,0.0674,0.3581,0.4327,0.4322,0.4306,0.43,0.43,0.43,0.43,0.43,0.43,0.43,0.43,0.43,0.43,0.43,0.43,0.43,0.43,0.43,0.43,0.43,0.43,0.43,0.43,0.43,0.43,0.4367,0.4434,0.4697,0.4831,0.4831,0.4831,0.4761,0.4625,0.4761,0.4894,0.5024,0.5087,0.5167,0.5225,0.5015,0.4938,0.5018,0.5168,0.5323,0.5479,0.5631,0.5786,0.5786,0.5709,0.5553,0.5321,0.5243,0.5093,0.5018,-1.8267,-1.859,-1.8602,-1.7424,-1.7699,-1.7875,-1.7313,-1.6989,-1.6606,-1.6171,-1.57,-1.5235,-1.4765,-1.4556,-1.4515,-1.4515,-1.389,-1.3321,-1.2826,-1.1663,-1.0989,-1.0989,-1.0863,-1.0618,-1.0301,-1.011,-0.9862,-0.9484,-0.9484,-0.935,-0.8952,-0.7772,-0.692,-0.6334,-0.5153,-0.4495,-0.43,-0.43,-0.43,-0.43,-0.43,-0.43,-0.43,-0.43,-0.43,-0.43,-0.43,-0.43,-0.43,-0.43,-0.43,-0.403,-0.2549,-0.1142,-0.0,-0.0,-0.0,-0.0,-0.0,-0.0,0.0674,0.3578,0.426,0.4325,0.4306,0.43,0.43,0.43,0.43,0.43,0.43,0.43,0.43,0.43,0.43,0.43,0.43,0.43,0.43,0.43,0.43,0.43,0.43,0.43,0.43,0.43,0.43,0.4434,0.4764,0.4831,0.4831,0.4831,0.4831,0.4761,0.4625,0.4761,0.4831,0.4831,0.5024,0.5099,0.5225,0.5015,0.4938,0.5018,0.5018,0.509,0.5321,0.5321,0.5401,0.5559,0.5398,0.5321,0.5243,0.5093,0.5018,0.5018,-1.8815,-1.8881,-1.8762,-1.7984,-1.771,-1.7545,-1.7379,-1.6775,-1.6275,-1.6114,-1.57,-1.5186,-1.4616,-1.4506,-1.4515,-1.4515,-1.389,-1.3268,-1.2674,-1.2305,-1.212,-1.212,-1.124,-1.0548,-0.997,-0.9779,-0.9466,-0.9151,-0.8899,-0.8899,-0.8952,-0.7782,-0.6929,-0.6334,-0.5415,-0.4694,-0.43,-0.43,-0.43,-0.43,-0.43,-0.43,-0.43,-0.43,-0.43,-0.43,-0.43,-0.43,-0.43,-0.43,-0.43,-0.3894,-0.1409,-0.0336,-0.0,-0.0,-0.0,-0.0,-0.0,-0.0,0.0202,0.1076,0.2829,0.4325,0.4314,0.4306,0.43,0.43,0.43,0.43,0.43,0.4431,0.4498,0.43,0.4431,0.4431,0.43,0.43,0.43,0.43,0.43,0.43,0.43,0.43,0.43,0.43,0.43,0.4434,0.4764,0.4831,0.4897,0.5229,0.4964,0.4764,0.4761,0.4764,0.4894,0.5024,0.496,0.4968,0.5225,0.487,0.4861,0.5018,0.5018,0.509,0.5321,0.5321,0.5321,0.5401,0.5479,0.5326,0.5093,0.5168,0.5093,0.5018,-1.9303,-1.9251,-1.9081,-1.8536,-1.8213,-1.7995,-1.7776,-1.7224,-1.6729,-1.6446,-1.5874,-1.5303,-1.4843,-1.4437,-1.4198,-1.4198,-1.3588,-1.3042,-1.2629,-1.2621,-1.256,-1.2498,-1.1747,-1.0919,-1.0085,-0.9831,-0.939,-0.8829,-0.8576,-0.8511,-0.8565,-0.7657,-0.6937,-0.647,-0.5547,-0.4891,-0.4628,-0.4367,-0.4233,-0.4097,-0.4097,-0.4097,-0.4097,-0.4097,-0.4164,-0.43,-0.43,-0.43,-0.43,-0.43,-0.43,-0.3964,-0.2284,-0.0941,-0.0,-0.0,-0.0,-0.0,-0.0,-0.0,-0.0,-0.0,0.1278,0.276,0.3297,0.3627,0.3825,0.4233,0.43,0.43,0.43,0.4498,0.4561,0.43,0.4495,0.4561,0.43,0.43,0.43,0.43,0.43,0.43,0.43,0.43,0.43,0.43,0.43,0.4434,0.4764,0.4831,0.496,0.5292,0.4964,0.4764,0.4694,0.4694,0.4827,0.4957,0.4827,0.4968,0.5225,0.4942,0.4861,0.5018,0.5018,0.5093,0.5168,0.5168,0.5168,0.5168,0.5326,0.5249,0.5018,0.5168,0.5093,0.5018,-1.9708,-1.9668,-1.9512,-1.9093,-1.8987,-1.8762,-1.8333,-1.7952,-1.7512,-1.6821,-1.6104,-1.5526,-1.5294,-1.4469,-1.3941,-1.389,-1.3164,-1.2744,-1.256,-1.256,-1.2498,-1.2305,-1.2182,-1.1608,-1.0577,-1.0142,-0.9518,-0.8511,-0.8452,-0.8252,-0.7987,-0.7461,-0.7068,-0.6675,-0.5683,-0.5219,-0.5087,-0.4631,-0.4228,-0.3825,-0.3892,-0.3825,-0.3758,-0.3758,-0.3961,-0.4233,-0.43,-0.43,-0.43,-0.43,-0.43,-0.4303,-0.4311,-0.242,-0.0134,-0.0067,-0.0,-0.0,-0.0,-0.0,-0.0,-0.0,-0.0,0.0336,0.1611,0.228,0.2948,0.4097,0.43,0.43,0.43,0.4495,0.4561,0.4367,0.4498,0.4561,0.4364,0.43,0.43,0.43,0.4367,0.4367,0.43,0.43,0.43,0.43,0.43,0.4434,0.4764,0.4831,0.4894,0.5087,0.4894,0.4761,0.4625,0.4561,0.4628,0.4764,0.4764,0.4894,0.5138,0.5012,0.4933,0.5002,0.5012,0.5018,0.5018,0.5018,0.5018,0.5018,0.5018,0.5018,0.5018,0.5018,0.5018,0.5018,-2.0169,-2.008,-1.9914,-1.9565,-1.8898,-1.8309,-1.7909,-1.7301,-1.6673,-1.6151,-1.6114,-1.5999,-1.5536,-1.5468,-1.5177,-1.441,-1.3268,-1.249,-1.2367,-1.2367,-1.2367,-1.2305,-1.2182,-1.167,-1.0773,-1.0021,-0.939,-0.8888,-0.8112,-0.7787,-0.7987,-0.7591,-0.7199,-0.6675,-0.6478,-0.6013,-0.5484,-0.5557,-0.5024,-0.422,-0.4359,-0.3959,-0.336,-0.3692,-0.3825,-0.3961,-0.4231,-0.43,-0.43,-0.43,-0.43,-0.4303,-0.4311,-0.3092,-0.141,-0.0337,-0.0,-0.0,-0.0,-0.0,-0.0,-0.0,-0.0,0.0067,0.0404,0.0538,0.1342,0.3768,0.4306,0.4364,0.4495,0.4628,0.4761,0.4697,0.4697,0.4697,0.4561,0.4561,0.4561,0.4561,0.4628,0.4631,0.4561,0.4364,0.43,0.43,0.43,0.4434,0.4764,0.4831,0.4964,0.5292,0.4964,0.4764,0.4761,0.4498,0.4431,0.4628,0.4761,0.4781,0.4795,0.4899,0.4882,0.4879,0.4974,0.5018,0.5018,0.5018,0.5018,0.5018,0.5018,0.5018,0.5018,0.5018,0.5018,0.5018,-2.0573,-2.0472,-2.0321,-1.9708,-1.8992,-1.8298,-1.7788,-1.7134,-1.657,-1.6285,-1.6171,-1.6056,-1.5884,-1.5468,-1.4932,-1.4172,-1.3511,-1.2964,-1.2658,-1.2597,-1.2359,-1.1996,-1.1872,-1.1615,-1.1038,-1.0345,-0.9716,-0.9268,-0.8683,-0.8554,-0.8689,-0.8236,-0.7842,-0.7517,-0.6933,-0.6474,-0.6079,-0.5885,-0.5352,-0.4688,-0.4356,-0.3892,-0.3491,-0.3357,-0.3489,-0.3825,-0.4028,-0.4164,-0.43,-0.43,-0.4164,-0.4097,-0.4244,-0.3297,-0.1814,-0.0404,-0.0,-0.0,-0.0,-0.0,-0.0,-0.0,-0.0,-0.0,-0.0,-0.0,0.0403,0.1949,0.3362,0.4306,0.4431,0.4703,0.4837,0.4697,0.4827,0.4891,0.4628,0.4625,0.4558,0.4495,0.4628,0.4694,0.4625,0.4495,0.4431,0.43,0.43,0.4431,0.4694,0.4764,0.496,0.5223,0.5024,0.4957,0.4957,0.4628,0.4495,0.4625,0.4694,0.4695,0.4685,0.4813,0.4868,0.4841,0.4963,0.5018,0.5018,0.5018,0.5018,0.5018,0.5018,0.5018,0.5018,0.5018,0.5018,0.5018,-2.1091,-2.0894,-2.0597,-1.9914,-1.9254,-1.8661,-1.805,-1.7346,-1.692,-1.6853,-1.6389,-1.6161,-1.6332,-1.5294,-1.441,-1.3923,-1.3743,-1.3502,-1.313,-1.3009,-1.2589,-1.1802,-1.1747,-1.156,-1.1303,-1.0863,-1.0288,-0.9646,-0.9518,-0.9454,-0.9454,-0.8748,-0.849,-0.8425,-0.7326,-0.6806,-0.6741,-0.6145,-0.5613,-0.5153,-0.4422,-0.3956,-0.3692,-0.3088,-0.3222,-0.3625,-0.3692,-0.3894,-0.4233,-0.4233,-0.4028,-0.3825,-0.3974,-0.3232,-0.2018,-0.074,-0.0202,-0.0,-0.0,-0.0,-0.0,-0.0,-0.0,-0.0,-0.0,-0.0,-0.0,-0.0,0.1882,0.3634,0.383,0.4303,0.464,0.4425,0.4688,0.4821,0.4558,0.4561,0.4561,0.4434,0.4561,0.4625,0.4625,0.4625,0.4495,0.43,0.43,0.4364,0.4558,0.4694,0.4894,0.5087,0.5087,0.5087,0.5087,0.4758,0.4625,0.4625,0.4561,0.4616,0.4654,0.4853,0.4899,0.4781,0.4923,0.4985,0.4988,0.501,0.5018,0.5018,0.5018,0.5018,0.5018,0.5018,0.5018,0.5018,-2.1921,-2.1348,-2.0746,-2.0646,-1.9978,-1.9307,-1.8869,-1.8116,-1.7611,-1.7733,-1.7301,-1.7078,-1.7301,-1.5979,-1.4991,-1.4737,-1.3974,-1.3563,-1.3623,-1.3502,-1.3078,-1.2397,-1.229,-1.1926,-1.1303,-1.124,-1.0856,-1.0212,-0.9582,-0.9338,-0.9332,-0.8554,-0.8361,-0.849,-0.7717,-0.7265,-0.7134,-0.7003,-0.6535,-0.5741,-0.5481,-0.4616,-0.3553,-0.3623,-0.3288,-0.2887,-0.3159,-0.356,-0.3892,-0.3892,-0.3825,-0.3692,-0.3232,-0.2961,-0.2688,-0.2018,-0.0941,-0.0,-0.0,-0.0,-0.0,-0.0,-0.0,-0.0,-0.0,-0.0,-0.0,-0.0,0.0336,0.0873,0.1945,0.282,0.3426,0.3418,0.3823,0.4161,0.4095,0.4495,0.4764,0.4764,0.4764,0.4694,0.4625,0.4625,0.4495,0.43,0.43,0.4364,0.4558,0.4694,0.4894,0.5087,0.5087,0.5087,0.5087,0.4758,0.4625,0.4625,0.4431,0.4439,0.459,0.4861,0.4859,0.4745,0.4978,0.5005,0.4866,0.4974,0.5018,0.5018,0.5018,0.5018,0.5018,0.5018,0.5018,0.5018,-2.1935,-2.141,-2.0957,-2.1237,-2.0257,-1.9359,-1.904,-1.8159,-1.76,-1.7788,-1.7678,-1.7634,-1.7689,-1.6775,-1.5853,-1.5216,-1.4805,-1.446,-1.4172,-1.3923,-1.3304,-1.2258,-1.2104,-1.1677,-1.1059,-1.1122,-1.1052,-1.073,-1.0541,-1.0351,-1.0295,-0.9576,-0.9064,-0.8737,-0.8166,-0.7657,-0.7204,-0.7073,-0.6872,-0.6535,-0.5807,-0.5147,-0.4616,-0.4223,-0.3756,-0.3288,-0.3226,-0.3426,-0.3758,-0.3558,-0.3493,-0.3426,-0.303,-0.2693,-0.2624,-0.3169,-0.2898,-0.2018,-0.047,-0.0,-0.0,-0.0,-0.0,-0.0,-0.0,-0.0,-0.0,-0.0,-0.0,0.0202,0.094,0.161,0.2281,0.2952,0.3689,0.4159,0.4028,0.4558,0.4964,0.4906,0.4767,0.4764,0.5043,0.4767,0.4558,0.4495,0.4367,0.4367,0.4431,0.4697,0.4831,0.496,0.516,0.5292,0.5292,0.5024,0.4824,0.4694,0.4561,0.4431,0.4434,0.4697,0.4752,0.4691,0.4873,0.499,0.4986,0.489,0.4955,0.5018,0.5018,0.5018,0.5018,0.5018,0.5018,0.5018]},{"header":{"parameterUnit":"m.s-1","parameterCategory":1,"la1":30.6,"la2":28.766,"lo1":-90.7593,"lo2":-88.6598,"dx":0.0162,"dy":0.0183,"nx":116,"ny":114,"refTime":"2022-12-04T18:00:00:Z","depth":0,"parameterNumber":3,"parameterNumberName":"V-component_of_WINDS"},"data":[0.0,0.0,0.0,0.0,0.0,0.0,0.0,0.0,0.0,0.0,0.0,0.0,0.0,0.0,0.0,0.0,0.0,0.0,0.0,0.0,0.0,0.0,0.0,0.0,0.0,0.0,0.0,0.0,0.0,0.0,0.0,0.0,0.0,0.0,0.0,0.0,0.0,0.0,0.0,0.0,0.0,0.0,0.0,0.0,0.0,0.0,0.0,0.0,0.0,0.0,0.0,0.0,0.0,0.0,0.0,0.0,0.0,0.0,0.0,0.0,0.0,0.0,0.0,0.0,0.0,0.0,0.0,0.0,0.0,0.0,0.0,0.0,0.0,0.0,0.0,0.0,0.0,0.0,0.0,0.0,0.0,0.0,0.0,0.0,0.0,0.0,0.0,0.0,0.0,0.0,0.0,0.0,0.0,0.0,0.0,0.0,0.0,0.0,0.0,0.0,0.0,0.0,0.0,0.0,0.0,0.0,0.0,0.0,0.0,0.0,0.0,0.0,0.0,0.0,0.0,0.0,0.0,0.0,0.0,0.0,0.0,0.0,0.0,0.0,0.0,0.0,0.0,0.0,0.0,0.0,0.0,0.0,0.0,0.0,0.0,0.0,0.0,0.0,0.0,0.0,0.0,0.0,0.0,0.0,0.0,0.0,0.0,0.0,0.0,0.0,0.0,0.0,0.0,0.0,0.0,0.0,0.0,0.0,0.0,0.0,0.0,0.0,0.0,0.0,0.0,0.0,0.0,0.0,0.0,0.0,0.0,0.0,0.0,0.0,0.0,0.0,0.0,0.0,0.0,0.0,0.0,0.0,0.0,0.0,0.0,0.0,0.0,0.0,0.0,0.0,0.0,0.0,0.0,0.0,0.0,0.0,0.0,0.0,0.0,0.0,0.0,0.0,0.0,0.0,0.0,0.0,0.0,0.0,0.0,0.0,0.0,0.0,0.0,0.0,0.0,0.0,0.0,0.0,0.0,0.0,0.0,0.0,0.0,0.0,0.0,0.0,0.0,0.0,0.0,0.0,0.0,0.0,0.0,0.0,0.0,0.0,0.0,0.0,0.0,0.0,0.0,0.0,0.0,0.0,0.0,0.0,0.0,0.0,0.0,0.0,0.0,0.0,0.0,0.0,0.0,0.0,0.0,0.0,0.0,0.0,0.0,0.0,0.0,0.0,0.0,0.0,0.0,0.0,0.0,0.0,0.0,0.0,0.0,0.0,0.0,0.0,0.0,0.0,0.0,0.0,0.0,0.0,0.0,0.0,0.0,0.0,0.0,0.0,0.0,0.0,0.0,0.0,0.0,0.0,0.0,0.0,0.0,0.0,0.0,0.0,0.0,0.0,0.0,0.0,0.0,0.0,0.0,0.0,0.0,0.0,0.0,0.0,0.0,0.0,0.0,0.0,0.0,0.0,0.0,0.0,0.0,0.0,0.0,0.0,0.0,0.0,0.0,0.0,0.0,0.0,0.0,0.0,0.0,0.0,0.0,0.0,0.0,0.0,0.0,0.0,0.0,0.0,0.0,0.0,0.0,0.0,0.0,0.0,0.0,0.0,0.0,0.0,0.0,0.0,0.0,0.0,0.0,0.0,0.0,0.0,0.0,0.0,0.0,0.0,0.0,0.0,0.0,0.0,0.0,0.0,0.0,0.0,0.0,0.0,0.0,0.0,0.0,0.0,0.0,0.0,0.0,0.0,0.0,0.0,0.0,0.0,0.0,0.0,0.0,0.0,0.0,0.0,0.0,0.0,0.0,0.0,0.0,0.0,0.0,0.0,0.0,0.0,0.0,0.0,0.0,0.0,0.0,0.0,0.0,0.0,0.0,0.0,0.0,0.0,0.0,0.0,0.0,0.0,0.0,0.0,0.0,0.0,0.0,0.0,0.0,0.0,0.0,0.0,0.0,0.0,0.0,0.0,0.0,0.0,0.0,0.0,0.0,0.0,0.0,0.0,0.0,0.0,0.0,0.0,0.0,0.0,0.0,0.0,0.0,0.0,0.0,0.0,0.0,0.0,0.0,0.0,0.0,0.0,0.0,0.0,0.0,0.0,0.0,0.0,0.0,0.0,0.0,0.0,0.0,0.0,0.0,0.0,0.0,0.0,0.0,0.0,0.0,0.0,0.0,0.0,0.0,0.0,0.0,0.0,0.0,0.0,0.0,0.0,0.0,0.0,0.0,0.0,0.0,0.0,0.0,0.0,0.0,0.0,0.0,0.0,0.0,0.0,0.0,0.0,0.0,0.0,0.0,0.0,0.0,0.0,0.0,0.0,0.0,0.0,0.0,0.0,0.0,0.0,0.0,0.0,0.0,0.0,0.0,0.0,0.0,0.0,0.0,0.0,0.0,0.0,0.0,0.0,0.0,0.0,0.0,0.0,0.0,0.0,0.0,0.0,0.0,0.0,0.0,0.0,0.0,0.0,0.0,0.0,0.0,0.0,0.0,0.0,0.0,0.0,0.0,0.0,0.0,0.0,0.0,0.0,0.0,0.0,0.0,0.0,0.0,0.0,0.0,0.0,0.0,0.0,0.0,0.0,0.0,0.0,0.0,0.0,0.0,0.0,0.0,0.0,0.0,0.0,0.0,0.0,0.0,0.0,0.0,0.0,0.0,0.0,0.0,0.0,0.0,0.0,0.0,0.0,0.0,0.0,0.0,0.0,0.0,0.0,0.0,0.0,0.0,0.0,0.0,0.0,0.0,0.0,0.0,0.0,0.0,0.0,0.0,0.0,0.0,0.0,0.0,0.0,0.0,0.0,0.0,0.0,0.0,0.0,0.0,0.0,0.0,0.0,0.0,0.0,0.0,0.0,0.0,0.0,0.0,0.0,0.0,0.0,0.0,0.0,0.0,0.0,0.0,0.0,0.0,0.0,0.0,0.0,0.0,0.0,0.0,0.0,0.0,0.0,0.0,0.0,0.0,0.0,0.0,0.0,0.0,0.0,0.0,0.0,0.0,0.0,0.0,0.0,0.0,0.0,0.0,0.0,0.0,0.0,0.0,0.0,0.0,0.0,0.0,0.0,0.0,0.0,0.0,0.0,0.0,0.0,0.0,0.0,0.0,0.0,0.0,0.0,0.0,0.0,0.0,0.0,0.0,0.0,0.0,0.0,0.0,0.0,0.0,0.0,0.0,0.0,0.0,0.0,0.0,0.0,0.0,0.0,0.0,0.0,0.0,0.0,0.0,0.0,0.0,0.0,0.0,0.0,0.0,0.0,0.0,0.0,0.0,0.0,0.0,0.0,0.0,0.0,0.0,0.0,0.0,0.0,0.0,0.0,0.0,0.0,0.0,0.0,0.0,0.0,0.0,0.0,0.0,0.0,0.0,0.0,0.0,0.0,0.0,0.0,0.0,0.0,0.0,0.0,0.0,0.0,0.0,0.0,0.0,0.0,0.0,0.0,0.0,0.0,0.0,0.0,0.0,0.0,0.0,0.0,0.0,0.0,0.0,0.0,0.0,0.0,0.0,0.0,0.0,0.0,0.0,0.0,0.0,0.0,0.0,0.0,0.0,0.0,0.0,0.0,0.0,0.0,0.0,0.0,0.0,0.0,0.0,0.0,0.0,0.0,0.0,0.0,0.0,0.0,0.0,0.0,0.0,0.0,0.0,0.0,0.0,0.0,0.0,0.0,0.0,0.0,0.0,0.0,0.0,0.0,0.0,0.0,0.0,0.0,0.0,0.0,0.0,0.0,0.0,0.0,0.0,0.0,0.0,0.0,0.0,0.0,0.0,0.0,0.0,0.0,0.0,0.0,0.0,0.0,0.0,0.0,0.0,0.0,0.0,0.0,0.0,0.0,0.0,0.0,0.0,0.0,0.0,0.0,0.0,0.0,0.0,0.0,0.0,0.0,0.0,0.0,0.0,0.0,0.0,0.0,0.0,0.0,0.0,0.0,0.0,0.0,0.0,0.0,0.0,0.0,0.0,0.0,0.0,0.0,0.0,0.0,0.0,0.0,0.0,0.0,0.0,0.0,0.0,0.0,0.0,0.0,0.0,0.0,0.0,0.0,0.0,0.0,0.0,0.0,0.0,0.0,0.0,0.0,0.0,0.0,0.0,0.0,0.0,0.0,0.0,0.0,0.0,0.0,0.0,0.0,0.0,0.0,0.0,0.0,0.0,0.0,0.0,0.0,0.0,0.0,0.0,0.0,0.0,0.0,0.0,0.0,0.0,0.0,0.0,0.0,0.0,0.0,0.0,0.0,0.0,0.0,0.0,0.0,0.0,0.0,0.0,0.0,0.0,0.0,0.0,0.0,0.0,0.0,0.0,0.0,0.0,0.0,0.0,0.0,0.0,0.0,0.0,0.0,0.0,0.0,0.0,0.0,0.0,0.0,0.0,0.0,0.0,0.0,0.0,0.0,0.0,0.0,0.0,0.0,0.0,0.0,0.0,0.0,0.0,0.0,0.0,0.0,0.0,0.0,0.0,0.0,0.0,0.0,0.0,0.0,0.0,0.0,0.0,0.0,0.0,0.0,0.0,0.0,0.0,0.0,0.0,0.0,0.0,0.0,0.0,0.0,0.0,0.0,0.0,0.0,0.0,0.0,0.0,0.0,0.0,0.0,0.0,0.0,0.0,0.0,0.0,0.0,0.0,0.0,0.0,0.0,0.0,0.0,0.0,0.0,0.0,0.0,0.0,0.0,0.0,0.0,0.0,0.0,0.0,0.0,0.0,0.0,0.0,0.0,0.0,0.0,0.0,0.0,0.0,0.0,0.0,0.0,0.0,0.0,0.0,0.0,0.0,0.0,0.0,0.0,0.0,0.0,0.0,0.0,0.0,0.0,0.0,0.0,0.0,0.0,0.0,0.0,0.0,0.0,0.0,0.0,0.0,0.0,0.0,0.0,0.0,0.0,0.0,0.0,0.0,0.0,0.0,0.0,0.0,0.0,0.0,0.0,0.0,0.0,0.0,0.0,0.0,0.0,0.0,0.0,0.0,0.0,0.0,0.0,0.0,0.0,0.0,0.0,0.0,0.0,0.0,0.0,0.0,0.0,0.0,0.0,0.0,0.0,0.0,0.0,0.0,0.0,0.0,0.0,0.0,0.0,0.0,0.0,0.0,0.0,0.0,0.0,0.0,0.0,0.0,0.0,0.0,0.0,0.0,0.0,0.0,0.0,0.0,0.0,0.0,0.0,0.0,0.0,0.0,0.0,0.0,0.0,0.0,0.0,0.0,0.0,0.0,0.0,0.0,0.0,0.0,0.0,0.0,0.0,0.0,0.0,0.0,0.0,0.0,0.0,0.0,0.0,0.0,0.0,0.0,0.0,0.0,0.0,0.0,0.0,0.0,0.0,0.0,0.0,0.0,0.0,0.0,0.0,0.0,0.0,0.0,0.0,0.0,0.0,0.0,0.0,0.0,0.0,0.0,0.0,0.0,0.0,0.0,0.0,0.0,0.0,0.0,0.0,0.0,0.0,0.0,0.0,0.0,0.0,0.0,0.0,0.0,0.0,0.0,0.0,0.0,0.0,0.0,0.0,0.0,0.0,0.0,0.0,0.0,0.0,0.0,0.0,0.0,0.0,0.0,0.0,0.0,0.0,0.0,0.0,0.0,0.0,0.0,0.0,0.0,0.0,0.0,0.0,0.0,0.0,0.0,0.0,0.0,0.0,0.0,0.0,0.0,0.0,0.0,0.0,0.0,0.0,0.0,0.0,0.0,0.0,0.0,0.0,0.0,0.0,0.0,0.0,0.0,0.0,0.0,0.0,0.0,0.0,0.0,0.0,0.0,0.0,0.0,0.0,0.0,0.0,0.0,0.0,0.0,0.0,0.0,0.0,0.0,0.0,0.0,0.0,0.0,0.0,0.0,0.0,0.0,0.0,0.0,0.0,0.0,0.0,0.0,0.0,0.0,0.0,0.0,0.0,0.0,0.0,0.0,0.0,0.0,0.0,0.0,0.0,0.0,0.0,0.0,0.0,0.0,0.0,0.0,0.0,0.0,0.0,0.0,0.0,0.0,0.0,0.0,0.0,0.0,0.0,0.0,0.0,0.0,0.0,0.0,0.0,0.0,0.0,0.0,0.0,0.0,0.0,0.0,0.0,0.0,0.0,0.0,0.0,0.0,0.0,0.0,0.0,0.0,0.0,0.0,0.0,-2.1481,0.0,0.0,0.0,0.0,0.0,0.0,0.0,0.0,0.0,0.0,0.0,0.0,0.0,0.0,0.0,0.0,0.0,0.0,0.0,0.0,0.0,0.0,0.0,0.0,-1.3799,-1.405,-1.4042,-1.3678,0.0,0.0,0.0,0.0,0.0,0.0,0.0,0.0,0.0,-1.3216,-1.405,-1.4026,-1.4431,-1.5241,-1.5249,-1.5024,-1.4623,0.0,0.0,0.0,0.0,0.0,0.0,0.0,0.0,0.0,0.0,0.0,0.0,0.0,0.0,0.0,0.0,0.0,0.0,0.0,0.0,0.0,0.0,0.0,0.0,0.0,0.0,0.0,0.0,0.0,0.0,0.0,0.0,0.0,0.0,0.0,0.0,0.0,0.0,0.0,0.0,0.0,0.0,0.0,0.0,0.0,0.0,0.0,0.0,0.0,0.0,0.0,0.0,0.0,0.0,0.0,0.0,0.0,0.0,0.0,0.0,0.0,0.0,0.0,0.0,0.0,0.0,0.0,0.0,0.0,0.0,0.0,-2.2611,0.0,0.0,0.0,0.0,0.0,0.0,0.0,0.0,0.0,0.0,0.0,0.0,0.0,0.0,0.0,0.0,0.0,0.0,0.0,0.0,0.0,-1.4335,-1.4329,-1.4972,-1.5455,-1.5613,-1.4965,-1.4539,-1.4545,-1.3865,0.0,0.0,0.0,0.0,-1.324,-1.3396,-1.4171,-1.5601,-1.5857,-1.6701,-1.8121,-1.8411,-1.8184,-1.7476,-1.7027,0.0,0.0,0.0,0.0,0.0,0.0,0.0,0.0,0.0,0.0,0.0,0.0,0.0,0.0,0.0,0.0,0.0,0.0,0.0,0.0,0.0,0.0,0.0,0.0,0.0,0.0,0.0,0.0,0.0,0.0,0.0,0.0,0.0,0.0,0.0,0.0,0.0,0.0,0.0,0.0,0.0,0.0,0.0,0.0,0.0,0.0,0.0,0.0,0.0,0.0,0.0,0.0,0.0,0.0,0.0,0.0,0.0,0.0,0.0,0.0,0.0,0.0,0.0,-2.5971,-2.6415,-2.7114,-2.7114,-2.7507,-2.8077,-2.597,-2.4937,-2.4682,0.0,0.0,0.0,0.0,0.0,0.0,0.0,0.0,0.0,0.0,0.0,0.0,0.0,0.0,0.0,0.0,0.0,0.0,0.0,0.0,-1.5234,-1.5234,-1.5328,-1.5692,-1.6467,-1.6373,-1.631,-1.6347,-1.6196,0.0,0.0,0.0,0.0,-1.5069,-1.5807,-1.6263,-1.6447,-1.7888,-1.8725,-1.8971,-2.0481,-2.1146,-2.0933,-1.8721,-1.7665,-1.7452,0.0,0.0,0.0,0.0,0.0,0.0,0.0,0.0,0.0,0.0,0.0,0.0,0.0,0.0,0.0,0.0,0.0,0.0,0.0,0.0,0.0,0.0,0.0,0.0,0.0,0.0,0.0,0.0,0.0,0.0,0.0,0.0,0.0,0.0,0.0,0.0,0.0,0.0,0.0,0.0,0.0,-1.8588,-1.7833,0.0,0.0,0.0,0.0,0.0,0.0,0.0,0.0,0.0,0.0,0.0,0.0,0.0,0.0,-2.5351,-2.6164,-2.6603,-2.6739,-2.7434,-2.7834,-2.7931,-2.7931,-2.8003,-2.8094,-2.775,0.0,-2.6439,-2.4806,0.0,0.0,0.0,0.0,0.0,0.0,0.0,0.0,0.0,0.0,0.0,0.0,0.0,0.0,0.0,0.0,0.0,0.0,0.0,0.0,0.0,-1.6497,-1.6904,-1.729,-1.7267,-1.7238,-1.7313,-1.7297,0.0,0.0,0.0,-1.6818,-1.6866,-1.7201,-1.7819,-1.8737,-1.9967,-2.0785,-2.1243,-2.2017,-2.2372,-2.2333,-2.1217,-2.0197,-1.9187,-1.7486,0.0,0.0,0.0,0.0,0.0,0.0,0.0,0.0,0.0,0.0,0.0,0.0,0.0,0.0,0.0,0.0,0.0,0.0,0.0,0.0,0.0,0.0,0.0,0.0,0.0,0.0,0.0,0.0,0.0,0.0,0.0,0.0,0.0,0.0,0.0,0.0,0.0,0.0,0.0,-1.947,-1.9972,-2.0074,-2.1209,-2.1777,0.0,0.0,0.0,0.0,0.0,0.0,0.0,0.0,0.0,-2.5774,-2.5805,-2.622,-2.7039,-2.7878,-2.8299,-2.8318,-2.9169,-2.9816,-3.0295,-3.0295,-3.0554,-3.1001,-3.0489,-3.0082,-2.9582,-2.7365,-2.6184,-2.5753,0.0,0.0,0.0,0.0,0.0,-2.4439,0.0,0.0,0.0,0.0,0.0,0.0,0.0,0.0,0.0,0.0,0.0,0.0,-1.6973,-1.7488,-1.7888,-1.8058,-1.8037,-1.805,-1.8099,-1.811,-1.8072,-1.798,-1.8141,-1.8252,-1.8301,-1.8673,-1.9584,-2.1036,-2.1907,-2.2662,-2.3229,-2.3461,-2.3577,-2.3557,-2.3325,-2.243,-2.0933,-1.9259,-1.8164,-1.7476,0.0,0.0,0.0,0.0,0.0,0.0,0.0,0.0,0.0,0.0,0.0,0.0,0.0,0.0,0.0,0.0,0.0,0.0,0.0,0.0,0.0,0.0,0.0,0.0,0.0,0.0,0.0,0.0,0.0,0.0,0.0,0.0,0.0,0.0,0.0,0.0,0.0,-2.1054,-2.1637,-2.2088,-2.3085,-2.3516,0.0,0.0,0.0,0.0,0.0,0.0,-2.5038,-2.5641,-2.6373,-2.7211,-2.7457,-2.7839,-2.8437,-2.9512,-3.0069,-3.0088,-3.0943,-3.17,-3.2341,-3.2341,-3.2691,-3.3254,-3.2613,-3.2341,-3.2147,-2.9758,-2.8281,-2.7478,-2.6826,-2.6439,-2.611,-2.5083,-2.55,-2.6505,0.0,0.0,0.0,0.0,0.0,0.0,0.0,0.0,0.0,0.0,0.0,-1.6914,-1.775,-1.7827,-1.8089,-1.8776,-1.8833,-1.8866,-1.8949,-1.8935,-1.8632,-1.795,-1.8691,-1.9149,-1.9143,-2.0701,-2.1919,-2.2779,-2.3649,-2.408,-2.4157,-2.4989,-2.5376,-2.5337,-2.4505,-2.3635,-2.2655,-2.0985,-2.0255,-2.0067,-1.8426,0.0,0.0,0.0,0.0,0.0,0.0,0.0,0.0,0.0,0.0,0.0,0.0,0.0,0.0,0.0,0.0,0.0,0.0,0.0,0.0,0.0,0.0,0.0,0.0,0.0,0.0,0.0,0.0,0.0,0.0,0.0,0.0,0.0,0.0,0.0,0.0,0.0,0.0,-2.3113,-2.4488,0.0,0.0,0.0,0.0,-2.5566,-2.5604,-2.5973,-2.6722,-2.682,-2.7245,-2.8118,-2.8946,-2.9353,-2.9328,-3.1028,-3.1868,-3.1868,-3.2749,-3.3196,-3.3235,-3.3235,-3.3254,-3.3293,-3.3254,-3.3235,-3.3099,-3.1312,-3.0049,-2.9272,-2.924,-2.8696,-2.8055,-2.8813,-2.9143,-2.9318,0.0,0.0,0.0,-1.3681,-1.3648,-1.3747,-1.4052,-1.5046,-1.6008,-1.6621,-1.7586,-1.8532,-1.9402,-1.9915,-2.05,-2.1284,-2.0839,-2.0792,-2.1462,-2.0981,-2.0845,-2.1228,-2.1508,-2.1652,-2.1653,-2.2197,-2.2888,-2.3746,-2.4048,-2.4486,-2.5047,-2.5356,-2.5511,-2.5492,-2.5182,-2.4853,-2.4467,-2.2733,-2.1385,-2.0357,-1.9745,-1.8493,0.0,0.0,0.0,0.0,0.0,0.0,0.0,0.0,0.0,0.0,0.0,0.0,0.0,0.0,0.0,0.0,0.0,0.0,0.0,0.0,0.0,0.0,0.0,0.0,0.0,0.0,0.0,0.0,0.0,0.0,0.0,0.0,0.0,0.0,0.0,0.0,0.0,-2.4746,-2.5799,0.0,-2.652,-2.6992,-2.7303,-2.7318,-2.7308,-2.766,-2.8462,-2.8549,-2.921,-3.0592,-3.0944,-3.1359,-3.191,-3.3029,-3.3604,-3.3623,-3.4497,-3.4905,-3.4925,-3.5488,-3.5741,-3.5779,-3.6343,-3.6576,-3.6537,-3.5915,-3.4187,-3.1856,-3.1292,-3.0884,-3.0586,-3.0321,-3.0593,-3.1118,0.0,0.0,0.0,-1.4541,-1.4545,-1.4645,-1.493,-1.5963,-1.689,-1.7436,-1.8678,-1.9834,-2.0675,-2.144,-2.2123,-2.2652,-2.2192,-2.2167,-2.2856,-2.2363,-2.2343,-2.3036,-2.3307,-2.3572,-2.3838,-2.3805,-2.4063,-2.4641,-2.4641,-2.4931,-2.5511,-2.5511,-2.5511,-2.5511,-2.5511,-2.5511,-2.5414,-2.4273,-2.2965,-2.1662,-2.1369,-2.0235,-1.8756,0.0,0.0,0.0,0.0,0.0,0.0,0.0,0.0,0.0,0.0,0.0,0.0,0.0,0.0,0.0,0.0,0.0,0.0,0.0,0.0,0.0,0.0,0.0,0.0,0.0,0.0,0.0,0.0,0.0,0.0,0.0,0.0,0.0,0.0,0.0,-2.5476,-2.6068,-2.6893,-2.7396,-2.7402,-2.7887,-2.832,-2.8629,-2.8641,-2.9129,-3.0222,-3.0315,-3.0994,-3.24,-3.271,-3.3118,-3.3701,-3.4536,-3.508,-3.5371,-3.5954,-3.6401,-3.6692,-3.7275,-3.7547,-3.7566,-3.8149,-3.8402,-3.8402,-3.8402,-3.7061,-3.4925,-3.407,-3.3546,-3.3254,-3.2963,-3.3215,-3.3759,0.0,0.0,-1.5409,-1.54,-1.5394,-1.5688,-1.6568,-1.6725,-1.7304,-1.8893,-1.9827,-2.064,-2.1457,-2.2256,-2.2738,-2.2767,-2.2822,-2.2879,-2.2989,-2.2965,-2.2984,-2.3081,-2.3894,-2.4704,-2.5476,-2.5495,-2.5507,-2.5511,-2.5511,-2.5511,-2.5511,-2.5511,-2.5511,-2.5511,-2.5511,-2.5511,-2.5511,-2.5511,-2.5008,-2.4157,-2.3288,-2.1945,-2.0493,0.0,0.0,0.0,0.0,0.0,0.0,0.0,0.0,0.0,0.0,0.0,0.0,0.0,0.0,0.0,0.0,0.0,0.0,0.0,0.0,0.0,0.0,0.0,0.0,0.0,0.0,0.0,0.0,0.0,0.0,0.0,0.0,0.0,-2.4486,-2.5873,-2.693,-2.703,-2.7771,-2.8283,-2.8274,-2.832,-2.8711,-2.9564,-2.9615,-3.0334,-3.1984,-3.2089,-3.2477,-3.3351,-3.4128,-3.4556,-3.4575,-3.543,-3.6284,-3.7139,-3.7139,-3.7586,-3.8402,-3.8421,-3.8441,-3.8441,-3.846,-3.8479,-3.8479,-3.8479,-3.8479,-3.8382,-3.7489,-3.6615,-3.5974,-3.6828,-3.7139,-3.7256,-1.539,-1.5391,-1.541,-1.5395,-1.54,-1.5695,-1.6563,-1.7247,-1.8004,-1.9046,-2.0425,-2.1623,-2.2429,-2.3226,-2.3972,-2.4599,-2.4138,-2.4089,-2.4729,-2.4234,-2.4218,-2.4851,-2.5072,-2.5277,-2.5495,-2.5507,-2.5492,-2.5511,-2.5511,-2.5511,-2.5511,-2.5511,-2.5511,-2.5511,-2.5511,-2.5511,-2.5511,-2.5511,-2.5356,-2.5066,-2.4184,-2.3224,-2.2292,0.0,0.0,0.0,0.0,0.0,0.0,0.0,0.0,0.0,0.0,0.0,0.0,0.0,0.0,0.0,0.0,0.0,0.0,0.0,0.0,0.0,0.0,0.0,0.0,0.0,0.0,0.0,0.0,0.0,0.0,0.0,0.0,-2.622,-2.6202,-2.6659,-2.7207,-2.7799,-2.9186,-3.0089,-3.0095,-3.1177,-3.2007,-3.2237,-3.2256,-3.271,-3.3759,-3.3818,-3.4206,-3.51,-3.5333,-3.576,-3.6382,-3.6615,-3.7178,-3.8033,-3.8033,-3.8169,-3.8421,-3.9043,-3.9334,-3.9373,-3.9956,-4.0208,-4.0208,-4.0208,-4.0208,-4.0072,-3.8615,-3.7897,-3.7702,-3.7955,-3.8033,-3.8071,-1.5391,-1.541,-1.5407,-1.5392,-1.5395,-1.5828,-1.7068,-1.7675,-1.8414,-1.9555,-2.0862,-2.2006,-2.2771,-2.3632,-2.4482,-2.5371,-2.5046,-2.4991,-2.5508,-2.5098,-2.5063,-2.5532,-2.5512,-2.5495,-2.5507,-2.5492,-2.5511,-2.5511,-2.5511,-2.5511,-2.555,-2.555,-2.555,-2.555,-2.555,-2.555,-2.555,-2.5511,-2.5511,-2.5453,-2.495,-2.4249,-2.3502,-2.3528,-2.2706,-2.1554,-2.1574,-2.0941,-2.0087,-2.0113,0.0,0.0,0.0,0.0,0.0,0.0,0.0,0.0,0.0,0.0,0.0,0.0,0.0,0.0,0.0,0.0,0.0,0.0,0.0,0.0,0.0,0.0,0.0,0.0,-2.5925,-2.7262,-2.833,-2.8235,-2.8366,-2.9181,-3.0489,-3.1441,-3.1781,-3.2699,-3.3405,-3.3785,-3.3794,-3.4171,-3.5005,-3.5033,-3.5274,-3.5779,-3.6148,-3.6595,-3.71,-3.745,-3.8071,-3.8946,-3.8946,-3.912,-3.9451,-3.9975,-4.0208,0.0,-4.0694,-4.0907,-4.0907,-4.0907,-4.0907,0.0,0.0,0.0,0.0,0.0,-3.9451,-3.9451,-1.539,-1.5408,-1.5403,-1.5391,-1.5405,-1.599,-1.773,-1.8007,-1.8589,-2.0199,-2.1179,-2.1994,-2.2752,-2.3663,-2.4555,-2.5439,-2.5576,-2.5601,-2.5605,-2.5593,-2.5576,-2.5507,-2.5518,-2.5507,-2.5511,-2.5507,-2.5507,-2.5511,-2.5507,-2.5534,-2.5599,-2.5599,-2.5599,-2.5599,-2.5599,-2.5599,-2.5599,-2.5534,-2.5507,-2.5511,-2.5511,-2.5047,-2.4346,-2.4405,-2.3893,-2.3149,-2.3218,-2.3171,-2.3096,-2.3096,0.0,0.0,0.0,0.0,0.0,0.0,0.0,0.0,0.0,0.0,0.0,0.0,0.0,0.0,0.0,0.0,0.0,0.0,0.0,0.0,0.0,0.0,0.0,0.0,-2.7151,-2.8128,-3.0395,-3.0244,-3.0206,-3.0972,-3.1794,-3.2563,-3.3277,-3.3421,-3.3807,-3.4584,-3.465,-3.4969,-3.5765,0.0,0.0,0.0,0.0,-3.7294,-3.7392,-3.8149,-3.8984,-3.9839,-3.9839,-4.0208,-4.0907,-4.0907,-4.0907,-4.0907,-4.0907,-4.0907,-4.0907,-4.0907,-4.0907,-4.0907,-4.0907,-4.0907,-4.0907,-4.0907,-4.0907,0.0,-1.54,-1.5394,-1.5409,-1.5405,-1.5399,-1.5981,-1.7723,-1.7996,-1.8597,-2.0254,-2.1249,-2.2102,-2.2954,-2.3782,-2.4637,-2.5498,-2.5593,-2.5593,-2.5593,-2.5601,-2.5595,-2.5571,-2.5576,-2.5569,-2.5588,-2.5589,-2.557,-2.5588,-2.557,-2.56,-2.5595,-2.5595,-2.5595,-2.5595,-2.5595,-2.5595,-2.5595,-2.5595,-2.5543,-2.5511,-2.5511,-2.5403,-2.5243,-2.5266,-2.4762,-2.4055,-2.4067,-2.3611,-2.3014,-2.3022,-2.2792,-2.2489,-2.2324,-2.1713,0.0,0.0,0.0,0.0,0.0,0.0,0.0,0.0,0.0,0.0,0.0,0.0,0.0,0.0,0.0,0.0,0.0,0.0,0.0,-2.691,-2.8651,-3.0163,-3.0702,-3.1758,-3.2551,-3.2716,-3.348,-3.4089,-3.4226,-3.4836,-3.5311,-3.5523,-3.5542,-3.5618,-3.5791,-3.6479,0.0,-3.6848,-3.7683,-3.8479,-3.9198,-3.9353,-3.9858,-4.0674,0.0,0.0,-4.0907,-4.0907,-4.0907,-4.0907,-4.0907,-4.0907,-4.0907,-4.0907,-4.0907,-4.0907,-4.0907,-4.0907,-4.0907,-4.0907,-4.0907,-4.0907,-1.5409,-1.5407,-1.5403,-1.5399,-1.5394,-1.584,-1.7148,-1.7686,-1.842,-1.9684,-2.0582,-2.1601,-2.2941,-2.3452,-2.4202,-2.5492,-2.5622,-2.5648,-2.565,-2.5657,-2.5639,-2.5589,-2.5595,-2.5605,-2.5605,-2.5595,-2.5625,-2.5643,-2.5659,-2.5649,-2.5648,-2.5648,-2.5648,-2.5648,-2.5648,-2.5648,-2.5648,-2.5648,-2.5628,-2.5608,-2.5569,-2.5557,-2.5546,-2.551,-2.5246,-2.4904,-2.4898,-2.4613,-2.4251,-2.4249,-2.3989,-2.365,-2.3655,-2.3081,-2.2405,0.0,0.0,0.0,0.0,0.0,0.0,0.0,0.0,0.0,0.0,0.0,0.0,0.0,0.0,-2.5641,-2.5641,0.0,-2.7707,-2.8181,-2.9641,-3.0994,-3.1881,-3.3035,-3.38,-3.3857,-3.4226,-3.4652,-3.5069,-3.5466,-3.5708,-3.5747,-3.5775,-3.5978,-3.6423,-3.6859,-3.7294,-3.7741,-3.8596,-3.9256,-3.9703,-4.0111,-4.0499,-4.0907,-4.0907,-4.0907,-4.0907,-4.0907,-4.0907,-4.0907,-4.0907,-4.0907,-4.0907,-4.0907,-4.0907,-4.0907,-4.0907,-4.0907,-4.0907,-4.0907,-4.0907,-4.0907,-1.5377,-1.5375,-1.5375,-1.5392,-1.5387,-1.5674,-1.655,-1.7229,-1.7994,-1.9042,-1.9762,-2.0845,-2.2617,-2.2967,-2.3766,-2.5425,-2.5624,-2.5663,-2.5697,-2.5693,-2.5681,-2.5629,-2.5627,-2.5619,-2.5619,-2.5618,-2.5648,-2.5701,-2.5703,-2.5695,-2.5703,-2.5703,-2.5703,-2.5703,-2.5703,-2.5703,-2.5703,-2.5703,-2.5698,-2.5693,-2.5631,-2.5604,-2.5594,-2.5531,-2.5517,-2.5515,-2.5524,-2.5511,-2.5492,-2.5506,-2.5059,-2.4536,-2.456,-2.3952,-2.3272,-2.3337,-2.3235,0.0,0.0,0.0,0.0,0.0,0.0,0.0,0.0,-2.4248,-2.4871,-2.4829,-2.6052,-2.7153,-2.7168,-2.8012,-2.8938,-2.9631,-3.0704,-3.1913,-3.3265,-3.4147,-3.4661,-3.4737,-3.4739,-3.4991,-3.563,-3.5689,-3.5708,-3.5718,-3.593,-3.6366,-3.7055,-3.7422,-3.7935,-3.8635,-3.9489,-3.9936,-3.9936,-4.0577,-4.0907,-4.0907,-4.0907,-4.0907,-4.0907,-4.0907,-4.0907,-4.0907,-4.0907,-4.0907,-4.0907,-4.1082,-4.114,-4.116,-4.1335,-4.1412,-4.1374,-4.1218,-4.114,-4.1179,-1.532,-1.5316,-1.5323,-1.5387,-1.5351,-1.5605,-1.6483,-1.6646,-1.7249,-1.8901,-1.9247,-1.9963,-2.1595,-2.2513,-2.3693,-2.5356,-2.5525,-2.5566,-2.5697,-2.569,-2.5694,-2.5687,-2.5683,-2.5694,-2.5694,-2.5696,-2.5681,-2.5703,-2.5703,-2.5703,-2.5703,-2.5703,-2.5703,-2.5703,-2.5703,-2.5703,-2.5703,-2.5703,-2.5703,-2.5696,-2.5692,-2.5648,-2.5604,-2.5589,-2.5587,-2.5596,-2.558,-2.5549,-2.549,-2.5498,-2.5441,-2.5388,-2.544,-2.4871,-2.4175,-2.4227,-2.3716,-2.31,-2.31,-2.3104,-2.3274,-2.3988,-2.4205,-2.4427,0.0,-2.5946,-2.661,-2.6605,-2.738,-2.8065,-2.8123,-2.9444,-3.0549,-3.0653,-3.2577,-3.4135,-3.4328,-3.5046,-3.556,-3.5562,-3.5573,-3.5602,-3.5688,-3.5689,-3.5718,-3.5775,-3.6502,-3.6996,-3.7092,-3.8576,-3.9451,-3.9548,-4.0344,-4.0771,-4.0771,-4.0869,-4.0907,-4.0907,-4.0907,-4.0907,-4.0907,-4.0907,-4.0907,-4.0907,-4.0907,-4.0907,-4.0966,-4.1743,-4.2053,-4.2131,-4.2908,-4.3219,-4.3122,-4.2345,-4.2053,-4.217,-1.531,-1.5268,-1.5261,-1.5276,-1.5265,-1.5353,-1.5722,-1.6164,-1.6723,-1.7486,-1.8014,-1.8988,-2.0709,-2.2115,-2.3431,-2.4646,-2.4787,-2.5047,-2.5604,-2.5683,-2.57,-2.5701,-2.5699,-2.5707,-2.5707,-2.5707,-2.5691,-2.5698,-2.5702,-2.5703,-2.5703,-2.5703,-2.5703,-2.5703,-2.5703,-2.5703,-2.5703,-2.5703,-2.5703,-2.5703,-2.5698,-2.5671,-2.566,-2.566,-2.5654,-2.5651,-2.5613,-2.5587,0.0,-2.5521,-2.5535,-2.5562,-2.5549,-2.5327,-2.5065,-2.5088,-2.4874,-2.4607,-2.4567,-2.4542,-2.4623,-2.4914,-2.5433,-2.594,-2.6246,-2.701,-2.7666,-2.7663,-2.8761,-2.971,-2.9705,-3.1099,-3.2236,0.0,-3.3459,-3.4438,-3.4447,-3.5162,-3.5695,-3.5707,-3.5689,-3.5728,-3.5747,-3.5757,-3.5775,-3.5801,-3.6617,-3.7325,-3.7819,-3.9023,-3.9917,-4.0383,-4.0766,-4.0964,-4.0964,-4.0955,-4.0955,-4.0964,-4.0964,-4.0941,-4.0907,-4.0907,-4.0907,-4.0927,-4.1432,-4.1665,-4.1723,-4.2597,-4.2966,-4.2986,-4.3355,-4.351,-4.3471,-4.3083,-4.2966,-4.3005,-1.5252,-1.5226,-1.5197,-1.5152,-1.5152,-1.5182,-1.5202,-1.5688,-1.6151,-1.6436,-1.7009,-1.8043,-1.9811,-2.1282,-2.2495,-2.3385,-2.3936,-2.4538,-2.5197,-2.5515,-2.5676,-2.5697,-2.5691,-2.5707,-2.5707,-2.5707,-2.5707,-2.5707,-2.5699,-2.5703,-2.5703,-2.5703,-2.5703,-2.5703,-2.5703,-2.5703,-2.5703,-2.5703,-2.5703,-2.5703,-2.5703,-2.5698,-2.571,-2.571,-2.5696,-2.5701,-2.5648,-2.5619,-2.559,-2.5539,-2.5554,-2.5589,-2.5552,-2.5585,-2.5597,-2.5611,-2.5663,-2.5683,-2.564,-2.5781,-2.5951,-2.591,-2.6584,-2.7268,-2.7268,-2.7949,-2.8594,-2.8594,-2.9775,-3.0873,-3.1061,-3.2302,-3.3363,-3.3528,-3.4234,-3.4758,-3.4758,-3.5289,-3.5706,-3.5728,-3.5728,-3.5747,-3.5812,-3.5793,-3.5899,-3.6148,-3.6964,-3.7838,-3.8712,-3.9574,-4.0321,-4.0904,-4.0968,-4.0998,-4.0998,-4.1003,-4.0998,-4.0994,-4.0974,-4.0949,-4.0907,-4.114,-4.1257,-4.1315,-4.217,-4.2558,-4.2636,-4.351,-4.386,-4.3879,-4.4093,-4.419,-4.419,-4.419,-4.4054,-4.3899,-1.5118,-1.517,-1.5165,-1.5038,-1.5064,-1.5125,-1.5183,-1.5171,-1.5448,-1.6277,-1.647,-1.7177,-1.8864,-1.972,-2.0572,-2.1509,-2.3126,-2.4167,-2.4334,-2.5121,-2.5629,-2.5707,-2.5707,-2.5707,-2.5707,-2.5707,-2.5707,-2.5707,-2.5707,-2.5697,-2.5703,-2.5703,-2.5703,-2.5703,-2.5703,-2.5703,-2.5703,-2.5703,-2.5703,-2.5703,-2.5703,-2.5703,-2.5703,-2.5703,-2.5701,-2.5691,-2.5699,-2.5664,-2.5598,-2.5603,-2.5597,-2.5605,-2.5662,-2.5659,-2.5611,-2.5683,-2.57,-2.5709,-2.5709,-2.6268,-2.6864,-2.6863,-2.7505,-2.8152,-2.8152,-2.8895,-2.9551,-2.9551,-3.0273,-3.1133,-3.1913,-3.2731,-3.3545,-3.4328,-3.5132,-3.5657,-3.5669,-3.5688,-3.5728,-3.5794,-3.5803,-3.5812,0.0,-3.5791,-3.6148,-3.7003,-3.7877,-3.8732,-3.9606,-4.0485,-4.0968,-4.1007,-4.1007,-4.101,-4.101,-4.1003,-4.0994,-4.0994,-4.0932,-4.0888,-4.0927,-4.1781,-4.2151,-4.2209,-4.3083,-4.3471,-4.353,-4.4404,-4.4753,-4.4831,-4.5608,-4.5919,-4.5919,-4.5919,-4.5433,-4.487,-1.517,-1.5146,-1.5125,-1.5064,-1.5042,-1.5042,-1.5059,-1.5097,-1.5212,-1.5494,-1.6058,0.0,0.0,0.0,0.0,0.0,-2.171,-2.2873,-2.4094,-2.4538,-2.5015,-2.56,-2.5679,-2.5707,-2.5707,-2.5707,-2.5707,-2.5707,-2.5707,-2.5694,-2.5702,-2.5703,-2.5703,-2.5703,-2.5703,-2.5703,-2.5703,-2.5703,-2.5703,-2.5703,-2.5703,-2.5703,-2.5703,-2.5699,-2.5693,-2.5707,0.0,-2.5697,-2.5662,-2.5605,-2.5603,-2.56,-2.5636,-2.5618,-2.5604,-2.5681,-2.5693,-2.5826,-2.636,-2.6698,-2.7046,-2.7619,-2.8418,-2.9059,-2.9059,-2.9792,-3.0468,-3.0463,-3.1124,-3.1777,-3.2049,-3.2759,-3.3557,-3.4367,-3.4681,-3.5039,-3.563,-3.5698,-3.5728,-3.5794,-3.5803,0.0,0.0,0.0,0.0,-3.7081,-3.8439,-3.9383,-3.9675,-4.0535,-4.0992,-4.0992,-4.1043,-4.1072,-4.1072,-4.1074,-4.1048,-4.1012,-4.0926,-4.1199,-4.1762,-4.2073,-4.252,-4.3102,-4.3976,-4.4365,-4.4423,-4.5258,-4.5589,-4.5608,-4.588,-4.5997,-4.5997,-4.5997,-4.5822,-4.5627,-1.5133,-1.5092,-1.5057,-1.5061,-1.5019,0.0,0.0,0.0,0.0,0.0,0.0,0.0,0.0,0.0,0.0,0.0,0.0,-2.1641,-2.3083,-2.3547,-2.4171,-2.506,-2.5149,-2.5297,-2.559,-2.559,-2.559,-2.5632,-2.5659,-2.5654,-2.5661,-2.5683,-2.5703,-2.5703,-2.5703,-2.5703,-2.5703,-2.5703,-2.6054,-2.6578,-2.5955,-2.6073,-2.6562,-2.5931,-2.5691,0.0,-2.5707,-2.5707,-2.5689,-2.5642,-2.5644,-2.5644,-2.5643,-2.5644,-2.5643,-2.5691,-2.5707,-2.5885,-2.6711,-2.7165,-2.7617,-2.8481,-2.9363,-3.001,-3.001,-3.0474,-3.0895,-3.0891,-3.1315,-3.1766,-3.2051,-3.2502,-3.3114,-3.3939,-3.4272,-3.463,-3.5202,-3.5549,-3.5752,-3.5793,-3.5793,-3.5801,0.0,0.0,0.0,-3.7557,-3.889,-3.9842,-4.015,-4.0717,-4.1045,-4.1045,-4.1074,-4.109,-4.109,-4.1072,-4.1032,-4.0964,-4.1241,-4.1665,-4.2209,-4.285,-4.3433,-4.4015,-4.4851,-4.522,-4.5258,-4.5783,-4.5997,-4.5997,-4.5997,-4.5997,-4.5997,-4.5997,-4.5997,-4.5997,-1.5011,-1.4992,-1.4992,0.0,0.0,0.0,0.0,0.0,0.0,0.0,0.0,0.0,0.0,0.0,0.0,0.0,0.0,0.0,-2.1378,-2.225,-2.3144,-2.4096,-2.4122,-2.4491,-2.5266,-2.5266,-2.5331,-2.5421,-2.5496,-2.5554,-2.5602,-2.5663,-2.5703,-2.5703,-2.5703,-2.5703,-2.5703,-2.5703,-2.6655,-2.802,-2.6369,-2.669,-2.7985,-2.6325,-2.5696,-2.5707,-2.5707,-2.5707,-2.5707,-2.5707,-2.5707,-2.5707,-2.5707,-2.5707,-2.5707,-2.5707,-2.5726,-2.5961,-2.6822,-2.7692,-2.8574,-2.9453,-3.0293,-3.0898,-3.084,-3.0835,-3.0827,-3.0781,-3.0775,-3.0997,-3.1758,-3.1885,-3.2167,-3.3024,-3.3891,-3.4439,-3.4484,-3.525,-3.5801,-3.5799,-3.5799,-3.5799,-3.5799,-3.7378,0.0,-3.8419,0.0,-4.0135,-4.0955,-4.1072,-4.1094,-4.1094,-4.1103,-4.1108,-4.1108,-4.1033,-4.0974,-4.0926,-4.1791,-4.2238,-4.2325,-4.4035,-4.4812,-4.4889,-4.5666,-4.5997,-4.5997,-4.5997,-4.5997,-4.5997,-4.5997,-4.5997,-4.5997,-4.5997,-4.5997,-4.5997,0.0,0.0,0.0,0.0,0.0,0.0,0.0,0.0,0.0,0.0,0.0,0.0,0.0,0.0,0.0,0.0,0.0,0.0,-2.0466,-2.1355,-2.2219,-2.3118,-2.3198,-2.332,-2.3533,-2.3533,-2.3863,-2.4536,-2.4593,-2.496,-2.5593,-2.568,-2.5702,-2.5702,-2.5702,-2.5702,-2.5702,-2.5702,-2.5953,-2.632,-2.5881,-2.5978,-2.6317,-2.5867,-2.5709,-2.5707,-2.5707,-2.5707,-2.5707,-2.5707,-2.5707,-2.5707,-2.5707,-2.5707,-2.5707,-2.5707,-2.6156,-2.6862,-2.7732,-2.8593,-2.9473,-3.0351,-3.0742,-3.0723,-3.0078,-2.9937,-2.9752,-2.9092,-2.8951,-2.9025,-2.922,-2.9745,-3.042,-3.1239,-3.2591,-3.3751,-3.4404,-3.5247,-3.5799,-3.5799,-3.5833,-3.5866,-3.5866,-3.744,0.0,0.0,-3.9878,-4.0835,-4.1053,-4.109,-4.1099,-4.1099,-4.1094,-4.1108,-4.1108,-4.1073,-4.1043,-4.0979,-4.187,-4.2583,-4.3219,-4.4307,-4.5122,-4.5705,-4.5899,-4.5997,-4.5997,-4.5997,-4.5997,-4.5997,-4.5997,-4.5997,-4.5997,-4.5997,-4.5997,-4.5997,0.0,0.0,0.0,0.0,0.0,0.0,0.0,0.0,0.0,0.0,0.0,0.0,0.0,0.0,0.0,0.0,0.0,0.0,0.0,-1.9523,-2.0169,-2.1043,-2.1456,-2.1852,-2.2238,-2.2597,-2.2829,-2.2972,-2.3418,-2.3717,-2.3856,-2.4298,-2.4524,-2.4583,-2.4954,-2.5129,-2.5149,-2.5539,-2.6145,0.0,0.0,-2.5588,-2.6156,-2.5004,-2.4555,-2.4614,-2.4985,-2.5375,-2.5707,-2.5693,-2.5694,-2.5694,-2.5694,-2.5691,-2.5785,-2.6156,-2.6612,-2.7262,-2.8535,-2.9238,-2.9805,-3.0684,-3.0605,-3.0195,-2.9705,-2.9292,-2.8896,-2.8403,-2.8303,-2.8303,-2.8303,-2.8632,-2.9191,-3.0042,-3.1286,-3.2577,-3.3794,-3.4743,-3.5449,-3.5801,-3.5869,-3.604,-3.6434,-3.7697,-3.8668,0.0,-4.0332,-4.1093,-4.1108,-4.1099,-4.1108,-4.1108,-4.1108,-4.1097,-4.1105,-4.1093,-4.1068,-4.1003,-4.2234,-4.3055,-4.3549,-4.4773,-4.5569,-4.5997,0.0,-4.5997,-4.5997,-4.5997,-4.5997,-4.5997,-4.5997,-4.5997,-4.5997,-4.5997,-4.5997,-4.5997,0.0,0.0,0.0,0.0,0.0,0.0,0.0,0.0,0.0,-1.8098,-1.7757,-1.7224,-1.6502,-1.6434,0.0,0.0,0.0,0.0,0.0,0.0,-1.7947,-1.8684,-1.941,-2.0117,-2.0872,-2.1569,-2.1646,-2.1081,-2.1897,-2.2045,-2.1604,-2.2445,-2.2931,-2.3127,-2.389,-2.4222,-2.428,-2.5024,-2.6234,-2.7405,-2.5143,-2.5123,-2.6236,0.0,-2.3091,-2.3208,-2.4085,-2.4963,-2.5709,-2.5698,-2.5699,-2.5699,-2.57,-2.5775,-2.6023,-2.6786,-2.7165,-2.7676,-2.9199,-2.9687,-2.9922,-3.0566,-3.0156,-2.9531,-2.9306,-2.8664,-2.808,-2.7975,-2.7952,-2.7952,-2.7952,-2.8006,-2.8281,-2.9023,-3.0072,-3.1345,-3.2908,-3.4039,-3.4986,-3.5792,-3.59,-3.6194,-3.6958,-3.7929,-3.8827,-3.9589,-4.0546,-4.111,-4.1091,-4.1108,-4.1108,-4.1108,-4.1108,-4.1101,-4.1093,-4.1093,-4.1066,-4.1025,-4.2721,-4.351,-4.3569,-4.5239,-4.5997,-4.5997,0.0,0.0,-4.5997,-4.5997,-4.5997,-4.5997,-4.5997,-4.5997,-4.5997,-4.5997,-4.5997,-4.5997,0.0,0.0,0.0,0.0,0.0,0.0,0.0,0.0,0.0,0.0,-1.9125,-1.7406,0.0,0.0,0.0,0.0,0.0,0.0,0.0,0.0,0.0,-1.7814,-1.7966,-1.81,-1.8253,-1.8406,-1.875,-1.9323,-1.9557,-2.0308,-2.1524,-2.185,-2.238,-2.3036,-2.324,-2.3326,-2.3345,-2.3482,-2.3735,-2.395,-2.3501,-2.3501,-2.3735,-2.3267,0.0,0.0,-2.4085,-2.4963,-2.5709,-2.5698,-2.5697,-2.5693,-2.5702,-2.6191,-2.6796,-2.6952,-2.8027,-2.9219,-2.9512,-3.0137,-3.0547,-2.9961,-2.9707,-2.9218,-2.7782,-2.7331,-2.7019,-2.6294,-2.6156,-2.6156,-2.6156,-2.6727,-2.7244,-2.7338,-2.9294,-3.1139,-3.2085,-3.3607,-3.4931,-3.5809,-3.589,-3.5956,-3.6112,-3.7613,0.0,0.0,0.0,-4.1094,-4.1108,-4.1108,-4.1108,-4.1108,-4.1108,-4.1091,-4.1097,-4.1097,-4.1074,-4.1019,-4.2752,-4.3559,-4.3569,-4.5239,-4.5997,-4.5997,0.0,0.0,-4.5997,-4.5997,-4.5997,-4.5997,-4.5997,-4.5997,-4.5997,-4.5997,-4.5997,-4.5997,0.0,0.0,0.0,0.0,0.0,0.0,0.0,-2.0403,-2.0991,-2.1784,-2.0741,-1.9585,-1.8655,-1.868,-1.8089,0.0,0.0,0.0,0.0,0.0,0.0,-1.6304,-1.6735,-1.6984,-1.6984,-1.7393,-1.7603,-1.7595,0.0,-1.847,-1.8869,-1.9435,-1.9916,-2.0329,-2.087,-2.112,-2.1178,-2.2096,-2.2486,-2.2486,-2.2486,-2.2486,-2.2428,-2.1979,0.0,0.0,-2.3579,-2.4575,-2.5707,-2.5693,-2.5697,-2.57,-2.5703,-2.6309,-2.709,-2.7539,-2.8594,-2.9707,-3.0156,-3.0586,-3.0684,-2.9824,-2.9257,-2.8589,-2.7298,-2.6649,-2.6195,-2.5785,-2.5707,-2.5707,-2.5707,-2.6039,-2.6457,-2.6873,-2.8377,-2.9938,-3.1192,-3.2886,-3.4295,-3.517,-3.5683,-3.6126,-3.6576,-3.7817,-3.8765,-3.9195,0.0,-4.1108,-4.1108,-4.1108,-4.1108,-4.1108,-4.1108,-4.1108,-4.1108,-4.1108,-4.1087,-4.1068,-4.277,-4.3563,-4.3564,-4.525,-4.5997,-4.5997,-4.5997,0.0,-4.5997,-4.5997,-4.5997,-4.5997,-4.5997,-4.5997,-4.5997,-4.5997,-4.5997,-4.5997,0.0,0.0,0.0,0.0,0.0,0.0,0.0,-2.1385,-2.2023,-2.21,-2.243,-2.2088,-2.0605,-2.033,-1.9314,0.0,0.0,0.0,0.0,0.0,0.0,0.0,0.0,0.0,-1.6117,0.0,0.0,-1.6124,-1.6762,0.0,0.0,0.0,0.0,0.0,-1.8634,-1.9007,-1.9108,-2.0474,-2.1177,0.0,0.0,-2.145,-2.1549,0.0,0.0,0.0,0.0,-2.4223,-2.5707,-2.5707,-2.5697,-2.5703,-2.5703,-2.6308,-2.7129,-2.7812,-2.8769,-2.9746,-3.0449,-3.0625,-3.041,-2.9531,-2.8668,-2.778,-2.6927,-2.6182,-2.5707,-2.5707,-2.5707,-2.5707,-2.5707,-2.5707,-2.5927,-2.6601,-2.7459,-2.8612,-3.0305,-3.2029,-3.3502,-3.4569,-3.5478,-3.6267,-3.697,-3.7809,0.0,-3.9488,0.0,0.0,-4.1108,-4.1108,-4.1108,-4.1108,-4.1108,-4.1108,-4.1108,-4.1108,-4.1103,-4.1113,-4.2626,-4.3392,-4.3559,-4.5053,-4.5842,-4.5997,-4.5997,0.0,0.0,-4.5997,-4.5997,-4.5997,-4.5997,-4.5997,-4.5997,-4.5997,-4.5997,-4.5997,0.0,0.0,0.0,0.0,0.0,0.0,0.0,-2.1945,-2.2702,-2.3652,-2.3971,-2.378,-2.2978,-2.1756,-2.0323,0.0,0.0,0.0,0.0,0.0,0.0,0.0,0.0,0.0,0.0,0.0,0.0,-1.5226,-1.5284,0.0,0.0,0.0,0.0,0.0,0.0,-1.8055,-1.8127,-1.8288,0.0,0.0,0.0,0.0,0.0,0.0,0.0,0.0,0.0,-2.4223,-2.5707,-2.5707,-2.5709,-2.5691,-2.5699,-2.6308,-2.7012,-2.7109,-2.8301,-2.9629,-2.9707,-2.9726,-2.9512,-2.8633,-2.777,-2.69,-2.6021,-2.5765,-2.5707,-2.5707,-2.5707,-2.5707,-2.5707,-2.5707,-2.5726,-2.5806,-2.655,-2.7721,-2.9478,-3.1155,-3.2834,-3.4496,-3.5467,-3.603,-3.6111,-3.6911,-3.777,0.0,0.0,0.0,0.0,-4.1108,-4.1108,-4.1108,-4.1108,-4.1108,-4.1108,-4.1108,-4.1103,-4.1113,-4.205,-4.2854,-4.352,-4.4487,-4.5315,-4.5997,0.0,0.0,0.0,-4.5997,-4.5997,-4.5997,-4.5997,-4.5997,-4.5997,-4.5997,-4.5997,-4.5997,0.0,0.0,0.0,0.0,0.0,0.0,-2.1197,-2.2347,-2.3364,-2.3824,-2.4136,-2.4242,-2.4066,-2.2783,-2.1069,-1.8887,0.0,0.0,0.0,0.0,0.0,0.0,0.0,0.0,0.0,0.0,-1.5092,-1.5092,-1.5627,0.0,0.0,0.0,0.0,0.0,0.0,-1.6858,-1.6473,-1.6982,0.0,0.0,0.0,0.0,0.0,0.0,0.0,0.0,0.0,0.0,-2.5707,-2.5707,-2.5707,-2.5707,-2.5693,-2.5949,-2.6324,-2.6855,-2.7851,-2.8828,-2.8828,-2.8828,-2.8613,-2.7734,-2.7264,-2.677,-2.5904,-2.5707,-2.5395,-2.4341,-2.4145,-2.4145,-2.4145,-2.4145,-2.4477,-2.5531,-2.6429,-2.7425,-2.8654,-3.0255,-3.1953,-3.371,-3.4686,-3.5428,-3.5952,0.0,0.0,0.0,0.0,0.0,0.0,-4.1108,-4.1108,-4.1108,-4.1108,-4.1108,-4.1108,-4.1108,-4.1094,-4.1105,-4.1932,-4.277,-4.3592,-4.4425,-4.524,-4.5997,0.0,0.0,0.0,-4.5997,-4.5997,-4.5997,-4.5997,-4.5997,-4.5997,-4.5997,-4.5997,-4.5997,0.0,0.0,0.0,0.0,0.0,-2.1149,-2.1108,-2.2575,-2.3747,-2.3855,-2.4155,-2.4331,-2.4241,-2.321,-2.1578,-1.9275,-1.8165,0.0,0.0,0.0,0.0,0.0,0.0,0.0,0.0,0.0,-1.5589,-1.5845,-1.6449,-1.6755,0.0,0.0,-1.7388,-1.6871,0.0,0.0,0.0,0.0,0.0,0.0,0.0,0.0,0.0,0.0,0.0,0.0,0.0,0.0,0.0,0.0,0.0,-2.5707,-2.5707,-2.5707,-2.5828,-2.6442,-2.7226,-2.7929,-2.7929,-2.793,-2.7773,-2.7148,-2.6816,-2.6441,-2.5845,-2.5297,-2.4575,-2.3345,-2.2916,-2.276,-2.276,-2.315,-2.3892,-2.5121,-2.6058,-2.6917,-2.7795,-2.9377,-3.1075,-3.2812,-3.4003,-3.5037,-3.5916,-3.7028,0.0,0.0,0.0,0.0,0.0,-4.1108,-4.1108,-4.1108,-4.1108,-4.1108,-4.1108,-4.1108,-4.1094,-4.1101,-4.1677,-4.2396,-4.3246,-4.4055,-4.4861,-4.5666,0.0,0.0,0.0,-4.5997,-4.5997,-4.5997,-4.5997,-4.5997,-4.5997,-4.5997,-4.5997,-4.5997,0.0,0.0,0.0,0.0,0.0,0.0,-2.1108,-2.2578,-2.3774,-2.3976,-2.4302,-2.4228,-2.3495,-2.2879,-2.1813,-2.0126,-1.846,0.0,0.0,0.0,0.0,0.0,0.0,0.0,0.0,0.0,-1.6774,-1.7565,-1.7584,-1.7584,-1.7584,-1.7603,-1.7639,-1.7684,0.0,0.0,0.0,0.0,0.0,0.0,0.0,0.0,0.0,0.0,0.0,0.0,0.0,0.0,0.0,0.0,0.0,0.0,0.0,-2.5707,-2.5707,-2.5707,-2.634,-2.7009,-2.7009,-2.7011,-2.7012,-2.6992,-2.6347,-2.5718,-2.5709,-2.438,-2.3111,-2.3091,-2.2467,-2.1918,-2.1918,-2.3265,-2.4397,-2.4417,-2.5141,-2.6019,-2.69,-2.852,-3.0235,-3.1914,-3.3632,-3.5037,-3.5916,-3.7575,0.0,0.0,0.0,0.0,0.0,-4.1108,-4.1108,-4.1108,-4.1108,-4.1108,-4.1108,-4.1108,-4.1103,-4.1094,-4.1113,-4.1529,-4.2338,-4.315,-4.3989,0.0,0.0,0.0,0.0,-4.5997,-4.5997,-4.5997,-4.5997,-4.5997,-4.5997,-4.5997,-4.5997,-4.5997,0.0,0.0,0.0,0.0,0.0,0.0,0.0,-2.2088,-2.3118,-2.4023,-2.3786,-2.3545,-2.3545,-2.2376,-2.118,-2.0093,-1.8479,0.0,0.0,0.0,0.0,0.0,0.0,0.0,0.0,-1.6376,-1.7098,-1.8502,-1.9047,-1.9601,-2.0203,-2.0814,-2.0485,-1.9417,-1.9527,-1.8954,0.0,0.0,0.0,0.0,0.0,0.0,0.0,0.0,0.0,0.0,0.0,0.0,0.0,0.0,0.0,0.0,0.0,0.0,0.0,-2.5707,-2.5904,-2.6103,-2.6103,-2.6104,-2.6107,-2.6111,-2.5464,-2.4814,-2.4811,-2.3501,-2.2115,-2.151,-2.071,-2.0318,-2.0905,-2.194,-2.307,-2.4202,-2.5121,-2.6,-2.688,-2.7991,-2.9552,-3.1836,-3.4159,-3.5701,0.0,0.0,0.0,0.0,0.0,0.0,0.0,-4.1108,-4.1108,-4.1108,-4.1108,-4.1108,-4.1108,-4.1108,-4.1103,-4.1094,-4.105,-4.1491,-4.2331,-4.3136,0.0,0.0,0.0,0.0,0.0,-4.5997,-4.5997,-4.5997,-4.5997,-4.5997,-4.5997,-4.5997,-4.5997,-4.5997,0.0,0.0,0.0,0.0,0.0,0.0,0.0,-2.1502,-2.2347,-2.3162,-2.29,-2.2641,-2.2623,-2.1714,-2.0698,-1.961,-1.8279,0.0,0.0,0.0,0.0,0.0,0.0,0.0,-1.6769,-1.7453,-1.8474,-1.984,-2.0652,-2.1321,-2.1866,-2.2411,-2.2125,-2.1122,-2.0913,-2.0258,0.0,0.0,0.0,0.0,0.0,0.0,-2.0568,0.0,0.0,0.0,0.0,0.0,0.0,0.0,0.0,0.0,0.0,0.0,0.0,0.0,-2.4711,-2.4868,-2.5512,-2.5707,-2.5709,-2.5696,-2.5048,-2.4303,-2.3971,-2.2369,-2.0671,-1.9793,-1.8934,-1.8699,-1.989,-2.1061,-2.2426,-2.4124,-2.5121,-2.6,-2.688,-2.7756,-2.9377,-3.2246,-3.4608,0.0,0.0,0.0,0.0,0.0,0.0,0.0,0.0,0.0,-4.1108,-4.1108,-4.1108,-4.1108,-4.1108,-4.1108,-4.1103,-4.1094,-4.1023,-4.128,-4.1844,-4.2644,0.0,0.0,0.0,0.0,0.0,-4.5997,-4.5997,-4.5997,-4.5997,-4.5997,-4.5997,-4.5997,-4.5997,-4.5997,0.0,0.0,0.0,0.0,0.0,0.0,0.0,-2.0806,-2.148,-2.166,-2.176,-2.1569,-2.0977,-2.0859,-2.0188,-1.8659,0.0,0.0,0.0,0.0,0.0,0.0,0.0,0.0,-1.7748,-1.9295,-2.0595,-2.1579,-2.2333,-2.2715,-2.2772,-2.2772,-2.2793,-2.2747,-2.2004,-2.1661,0.0,0.0,0.0,0.0,0.0,-1.9838,0.0,0.0,0.0,0.0,0.0,0.0,0.0,0.0,0.0,0.0,0.0,0.0,0.0,0.0,0.0,0.0,0.0,-2.5512,-2.5512,-2.5512,-2.4868,-2.4011,-2.3208,-2.1042,0.0,-1.833,-1.7489,-1.741,-1.9166,-2.0845,-2.2524,-2.4143,-2.5121,-2.6,-2.688,-2.7913,-2.9767,-3.3027,-3.4937,0.0,0.0,0.0,0.0,0.0,0.0,0.0,0.0,0.0,-4.1108,-4.1108,-4.1108,-4.1108,-4.1108,-4.1108,-4.1103,-4.1094,-4.1023,-4.1007,-4.1026,-4.1827,0.0,0.0,0.0,0.0,0.0,-4.5977,-4.5997,-4.5997,-4.5997,-4.5997,-4.5997,-4.5997,-4.5997,-4.5997,0.0,0.0,0.0,0.0,0.0,0.0,0.0,0.0,0.0,0.0,-2.1195,-2.0625,-2.0069,-1.9463,-1.8496,0.0,0.0,0.0,0.0,0.0,0.0,0.0,0.0,0.0,-1.9478,-1.9907,-2.1168,-2.3307,-2.3498,-2.3938,-2.4599,-2.4602,-2.4249,-2.3618,-2.3524,-2.2803,0.0,0.0,0.0,0.0,-2.0326,-2.0324,0.0,0.0,0.0,0.0,-2.0591,-2.073,0.0,0.0,0.0,0.0,0.0,0.0,0.0,0.0,-2.3091,-2.3189,-2.3599,0.0,-2.3716,-2.3716,-2.3091,-2.2428,0.0,-2.0163,-1.8621,-1.9754,-1.9305,-1.9225,-2.0962,-2.266,-2.3929,-2.4339,-2.5121,-2.6,-2.688,-2.9435,-3.1758,-3.3222,-3.4937,-3.5991,0.0,0.0,0.0,0.0,0.0,0.0,0.0,0.0,-4.1108,-4.1108,-4.1108,-4.1108,-4.1108,-4.1108,-4.1103,-4.1094,-4.1023,-4.1007,-4.1026,-4.1827,0.0,0.0,0.0,0.0,-4.5122,-4.5744,-4.5997,-4.5997,-4.5997,-4.5997,-4.5997,-4.5997,-4.5997,-4.5997,0.0,0.0,0.0,0.0,0.0,0.0,0.0,0.0,0.0,0.0,0.0,-1.8695,-1.8528,-1.8116,0.0,0.0,0.0,0.0,0.0,0.0,0.0,0.0,0.0,-1.8678,-2.0078,-2.1262,-2.2524,-2.39,-2.4301,-2.4752,-2.5191,-2.5203,-2.4946,-2.4449,-2.3371,-2.2419,0.0,0.0,0.0,-2.048,-2.0099,0.0,0.0,0.0,0.0,0.0,-2.0545,-2.0568,0.0,-2.059,-2.0904,-2.1296,0.0,0.0,0.0,0.0,-2.1959,-2.1959,-2.1959,-2.2506,-2.3091,-2.3091,-2.2506,-2.1801,-2.1393,-1.991,-1.8856,-1.9812,-1.9636,-1.9947,-2.2057,-2.3189,-2.4067,-2.4868,-2.5726,-2.6878,-2.8518,-3.1036,-3.3027,-3.3886,-3.5174,0.0,0.0,0.0,0.0,0.0,0.0,0.0,0.0,0.0,-4.1108,-4.1108,-4.1108,-4.1108,-4.1108,-4.1108,-4.1103,-4.1094,-4.1023,-4.1007,-4.1007,-4.1419,0.0,0.0,0.0,0.0,-4.4268,-4.5103,-4.5453,-4.5491,-4.5861,-4.5997,-4.5997,-4.5997,-4.5997,-4.5997,0.0,0.0,0.0,0.0,0.0,0.0,0.0,0.0,0.0,0.0,0.0,0.0,0.0,0.0,0.0,0.0,0.0,0.0,0.0,0.0,0.0,0.0,0.0,-2.0278,-2.065,-2.2789,-2.4033,-2.4282,-2.5008,-2.5382,-2.5382,-2.5382,-2.5325,-2.5077,-2.2479,-2.1443,0.0,0.0,-1.8858,-2.0355,-1.9727,0.0,0.0,0.0,0.0,0.0,0.0,0.0,0.0,-2.0584,-2.0588,-2.0593,-2.0593,0.0,0.0,0.0,0.0,0.0,-2.0593,-2.1647,-2.272,-2.272,-2.2213,-2.151,-2.0769,-2.0027,-1.9539,-1.9674,-1.9791,-2.0573,-2.2877,-2.3404,-2.3989,-2.5453,-2.6546,-2.803,-3.047,-3.2304,-3.3729,-3.4608,-3.5467,0.0,0.0,0.0,0.0,0.0,0.0,0.0,0.0,0.0,0.0,-4.1108,-4.1108,-4.1108,-4.1108,-4.1094,-4.1105,-4.1094,-4.1041,-4.1003,-4.1007,-4.0932,-4.1296,0.0,0.0,0.0,-4.3374,-4.4248,-4.4676,-4.487,-4.555,-4.588,-4.5997,-4.5997,-4.5997,-4.5997,0.0,0.0,0.0,0.0,0.0,0.0,0.0,0.0,0.0,0.0,0.0,0.0,0.0,0.0,0.0,0.0,0.0,0.0,0.0,0.0,0.0,-1.9397,-1.9867,-2.1077,-2.3179,-2.3675,-2.4606,-2.602,-2.6154,-2.6211,-2.6211,-2.6211,-2.586,-2.5057,-2.1847,-2.1212,-2.2395,-1.9117,-1.875,-2.039,-2.0277,0.0,0.0,0.0,0.0,0.0,0.0,0.0,0.0,-2.0519,-2.0543,-2.0607,-2.0607,0.0,0.0,0.0,0.0,0.0,-2.0593,-2.0788,-2.0983,-2.0983,-2.0886,-2.0769,-2.0632,-2.0495,-2.0612,-2.1352,-2.2037,-2.2857,-2.3987,-2.4809,-2.5395,-2.5668,-2.7054,-2.8732,-3.0548,-3.2304,-3.3729,-3.4608,0.0,0.0,0.0,0.0,0.0,0.0,0.0,0.0,0.0,0.0,0.0,-4.1108,-4.1108,-4.1108,-4.1108,-4.1108,-4.1093,-4.1094,-4.1035,-4.1,-4.1007,-4.0932,-4.0966,0.0,0.0,-4.2267,-4.2461,-4.3335,-4.4132,-4.4812,-4.4948,-4.5394,-4.5997,-4.5997,-4.5997,-4.5997,0.0,0.0,0.0,0.0,0.0,0.0,0.0,0.0,0.0,0.0,0.0,0.0,0.0,0.0,0.0,0.0,0.0,0.0,0.0,0.0,0.0,-2.1263,-2.1426,-2.219,-2.3769,-2.4743,-2.5638,-2.6402,-2.6861,-2.6861,-2.6383,-2.5963,-2.5554,-2.5057,-2.1655,-2.1091,-2.2479,-1.9119,-1.8699,-2.0295,0.0,0.0,0.0,0.0,0.0,0.0,0.0,0.0,0.0,0.0,-1.9873,-1.9821,-1.9333,0.0,0.0,0.0,0.0,0.0,-2.059,-2.0609,-2.0707,-2.1177,-2.1296,-2.1413,-2.1842,-2.1959,-2.2193,-2.307,-2.3558,-2.4067,-2.4946,-2.5434,-2.6019,-2.6956,-2.8537,-3.0255,-3.1953,-3.33,-3.4432,0.0,0.0,0.0,0.0,0.0,0.0,0.0,0.0,0.0,0.0,0.0,0.0,0.0,-4.1108,-4.1097,-4.1108,-4.1054,-4.1048,-4.1047,-4.1013,-4.0974,-4.0949,-4.0906,-4.0907,-4.0927,0.0,-4.149,-4.1568,-4.2442,-4.3025,-4.3433,-4.3918,-4.4617,-4.5394,-4.5841,-4.5997,-4.5997,0.0,0.0,0.0,0.0,0.0,0.0,0.0,0.0,0.0,0.0,0.0,0.0,0.0,0.0,0.0,0.0,0.0,0.0,0.0,0.0,-2.005,-2.24,-2.2555,-2.3065,-2.4074,-2.5602,-2.6498,-2.6708,-2.7568,-2.7549,-2.667,-2.5669,-2.5191,-2.5057,-2.1626,-2.1034,-2.2382,-1.9073,-1.865,-2.0204,0.0,0.0,0.0,0.0,0.0,0.0,0.0,0.0,0.0,0.0,0.0,0.0,0.0,0.0,0.0,-1.929,-1.9875,-2.0519,-2.0562,-2.0584,-2.0839,-2.1917,-2.2036,-2.2114,-2.2916,-2.3267,-2.3599,-2.4261,-2.4553,-2.4905,-2.5588,-2.5861,-2.6564,-2.8301,-2.9823,-3.1407,-3.3144,-3.4159,0.0,0.0,0.0,0.0,0.0,0.0,0.0,0.0,0.0,0.0,0.0,0.0,0.0,0.0,-4.1097,-4.1107,-4.1094,-4.1038,-4.0996,-4.0996,-4.098,-4.0957,-4.0907,-4.0907,-4.0907,-4.0907,-4.0907,-4.0907,-4.0946,-4.1626,-4.2015,-4.2267,-4.2928,-4.3724,-4.4579,-4.5181,-4.5414,-4.5433,0.0,0.0,0.0,0.0,0.0,0.0,0.0,0.0,0.0,0.0,0.0,0.0,0.0,0.0,0.0,0.0,0.0,0.0,0.0,0.0,-2.0676,-2.2419,-2.2493,-2.3289,-2.4968,-2.5907,-2.6803,-2.7606,-2.8414,-2.8395,-2.7568,-2.5956,-2.5191,-2.5057,-2.1626,-2.1034,-2.2371,-1.9026,-1.8616,-2.0188,-2.0204,0.0,0.0,0.0,0.0,0.0,0.0,0.0,0.0,0.0,0.0,0.0,0.0,0.0,-1.929,-1.929,-1.9875,-2.0497,-2.0519,-2.0543,-2.0996,-2.2615,-2.2444,-2.2114,-2.2916,-2.3735,-2.4319,-2.4397,-2.5043,-2.5627,-2.5681,-2.6362,-2.7454,-2.9132,-3.0191,-3.1407,-3.3144,0.0,0.0,0.0,0.0,0.0,0.0,0.0,0.0,0.0,0.0,0.0,0.0,0.0,0.0,0.0,0.0,-4.1094,-4.1094,-4.1031,-4.1,-4.1,-4.0941,-4.0897,-4.0907,-4.0907,-4.0907,-4.0907,-4.0907,-4.0907,-4.0907,-4.0966,-4.1471,-4.2209,-4.2267,-4.283,-4.3607,-4.3666,-4.3685,-4.3802,0.0,0.0,0.0,0.0,0.0,0.0,0.0,0.0,0.0,0.0,0.0,0.0,0.0,0.0,0.0,0.0,0.0,0.0,0.0,-1.9033,-2.0751,-2.2419,-2.2512,-2.3315,-2.5063,-2.5952,-2.6829,-2.7701,-2.8007,-2.772,-2.6861,-2.5726,-2.4905,-2.4282,-2.1951,-2.1263,-2.1713,-1.94,-1.9092,-2.0133,-2.0192,-1.9726,0.0,0.0,0.0,0.0,0.0,0.0,0.0,0.0,-1.6736,-1.7109,-1.6544,-1.7346,-1.8498,-1.8498,-1.9453,-2.0506,-2.0509,-2.0906,-2.1635,-2.2806,-2.3279,-2.3675,-2.4516,-2.4965,-2.5219,-2.5219,-2.5902,-2.6663,-2.7227,-2.8028,-2.8984,-3.0113,-3.1482,-3.2831,0.0,0.0,0.0,0.0,0.0,0.0,0.0,0.0,0.0,0.0,0.0,0.0,0.0,0.0,0.0,0.0,0.0,-4.109,-4.1035,-4.1017,-4.0986,-4.0941,-4.0906,-4.0907,-4.0907,-4.0907,-4.0907,-4.0907,-4.0907,-4.0907,-4.0907,-4.0907,-4.1082,-4.1451,-4.1995,-4.2403,-4.2753,-4.3297,-4.351,-4.3549,0.0,0.0,0.0,0.0,0.0,0.0,0.0,0.0,0.0,0.0,0.0,0.0,0.0,0.0,0.0,0.0,0.0,0.0,-1.7283,-1.893,-2.0554,-2.204,-2.2348,-2.3189,-2.467,-2.5546,-2.6422,-2.73,-2.73,-2.6975,-2.6383,-2.5573,-2.4732,-2.3842,-2.2152,-2.1407,-2.1292,-1.961,-1.9353,-2.0079,-1.9882,-1.9162,0.0,0.0,0.0,0.0,0.0,0.0,0.0,0.0,-1.5565,-1.613,-1.5253,-1.6364,-1.8,-1.8,-1.9191,-2.0503,-2.0506,-2.114,-2.2006,-2.2884,-2.3766,-2.4631,-2.5492,-2.5902,-2.6117,-2.6117,-2.68,-2.7676,-2.8515,-2.9179,-2.996,0.0,-3.2439,0.0,0.0,0.0,0.0,0.0,0.0,0.0,0.0,0.0,0.0,0.0,0.0,0.0,0.0,0.0,0.0,0.0,0.0,0.0,-4.0994,-4.0986,-4.0949,-4.0907,-4.0907,-4.0907,-4.0907,-4.0907,-4.0907,-4.0907,-4.0907,-4.0907,-4.0907,-4.0907,-4.0907,-4.0966,-4.1568,-4.1781,-4.1859,-4.2461,-4.2675,-4.2714,0.0,0.0,0.0,0.0,0.0,0.0,0.0,0.0,0.0,0.0,0.0,0.0,0.0,0.0,0.0,0.0,0.0,0.0,-1.7273,-1.8812,-2.0138,-2.1157,-2.2021,-2.2899,-2.3777,-2.4651,-2.552,-2.6383,-2.6402,-2.6402,-2.6364,-2.5554,-2.4732,-2.3823,-2.2152,-2.1407,-2.1273,-1.961,-1.9353,-2.0012,-1.92,-1.7915,-1.6397,0.0,0.0,0.0,0.0,0.0,0.0,0.0,-1.4669,-1.5234,-1.4377,-1.5896,-1.7981,-1.8,-1.9175,-2.0486,-2.0506,-2.1143,-2.2012,-2.2888,-2.3771,-2.4631,-2.5512,-2.6371,-2.6997,-2.7017,-2.7713,-2.8566,-2.9366,-2.9562,-3.0167,-3.1825,0.0,0.0,0.0,0.0,0.0,0.0,0.0,0.0,0.0,0.0,0.0,0.0,0.0,0.0,0.0,0.0,0.0,0.0,0.0,0.0,-4.0987,-4.0932,-4.0907,-4.0907,-4.0907,-4.0907,-4.0907,-4.0907,-4.0907,-4.0907,-4.0907,-4.0907,-4.0907,-4.0907,-4.0907,-4.0907,-4.0907,-4.0907,-4.0907,-4.0907,-4.0907,-4.1024,0.0,0.0,0.0,0.0,0.0,0.0,0.0,0.0,0.0,0.0,0.0,0.0,0.0,0.0,0.0,0.0,0.0,0.0,-1.7153,-1.8214,-1.9567,-2.1119,-2.0903,-2.1692,-2.3758,-2.4645,-2.5246,-2.5554,-2.6116,-2.6097,-2.5535,-2.4683,-2.3823,-2.2944,-2.1866,-2.1063,-2.0423,-1.9353,-1.9028,-1.919,-1.8378,-1.7046,-1.5503,0.0,0.0,0.0,0.0,0.0,0.0,0.0,0.0,0.0,-1.4903,-1.5546,-1.6403,-1.7649,-1.8743,-1.986,-2.1084,-2.2051,-2.292,-2.3793,-2.4662,-2.5549,-2.6423,-2.6817,-2.7349,-2.8578,-2.9025,-2.9452,-3.0272,-3.0428,0.0,0.0,0.0,0.0,0.0,0.0,0.0,0.0,0.0,0.0,0.0,0.0,0.0,0.0,0.0,0.0,0.0,0.0,0.0,0.0,0.0,0.0,-4.0932,-4.0906,-4.0907,-4.0907,-4.0907,-4.0907,-4.0907,-4.0907,-4.0907,-4.0907,-4.0907,-4.0907,-4.0907,-4.0907,-4.0907,-4.0907,-4.0907,-4.0907,-4.0907,-4.0907,-4.0907,-4.0946,0.0,0.0,0.0,0.0,0.0,0.0,0.0,0.0,0.0,0.0,-1.4417,-1.4488,0.0,0.0,0.0,0.0,0.0,0.0,-1.7158,-1.7907,-1.9058,-2.0645,-2.0516,-2.1304,-2.3246,-2.3795,-2.411,-2.4175,-2.5352,-2.5485,-2.4664,-2.4148,-2.3269,-2.2104,-2.1617,-2.0919,-2.005,-1.9238,-1.8894,-1.8807,-1.7661,-1.6362,-1.5111,0.0,0.0,0.0,0.0,0.0,0.0,0.0,0.0,0.0,-1.4416,-1.5078,-1.611,-1.7187,-1.832,-1.9612,-2.133,-2.243,-2.3315,-2.4188,-2.5054,-2.6017,-2.7245,-2.7774,-2.8422,-2.9786,-3.0079,-3.0216,-3.0704,-3.0801,0.0,0.0,0.0,0.0,0.0,0.0,0.0,0.0,0.0,0.0,0.0,0.0,0.0,0.0,0.0,0.0,0.0,0.0,0.0,0.0,0.0,0.0,-4.0907,-4.0907,-4.0907,-4.0907,-4.0907,-4.0907,-4.0907,-4.0907,-4.0907,-4.0907,-4.0907,-4.0907,-4.0907,-4.0907,-4.0907,-4.0907,-4.0907,-4.0907,-4.0907,-4.0907,-4.0907,-4.0907,0.0,0.0,0.0,0.0,0.0,0.0,0.0,0.0,0.0,-1.4319,-1.4417,-1.4488,0.0,0.0,0.0,-1.4598,-1.5219,-1.6035,-1.701,-1.7529,-1.836,-1.9604,-2.0457,-2.1375,-2.236,-2.2467,-2.2528,-2.2585,-2.4175,-2.4549,-2.3785,-2.3709,-2.2849,-2.1407,-2.1311,-2.0843,-2.0031,-1.9162,-1.8788,-1.8644,-1.6964,-1.5807,-1.5019,-1.4376,0.0,0.0,0.0,0.0,0.0,0.0,0.0,0.0,-1.3424,-1.4552,-1.6483,-1.6646,-1.7881,-1.9585,-2.1425,-2.2502,-2.3326,-2.428,-2.5236,-2.6351,-2.7932,-2.9025,-2.9923,-3.0645,-3.0801,-3.0801,-3.0801,-3.0799,0.0,0.0,0.0,0.0,0.0,0.0,0.0,0.0,0.0,0.0,0.0,0.0,0.0,0.0,0.0,0.0,0.0,0.0,0.0,0.0,0.0,0.0,-4.0907,-4.0907,-4.0907,0.0,-4.0907,-4.0907,-4.0907,-4.0907,-4.0907,-4.0907,-4.0907,-4.0907,-4.0907,-4.0907,-4.0907,-4.0907,-4.0907,-4.0907,-4.0907,-4.0907,-4.0907,-4.0907,0.0,0.0,0.0,0.0,0.0,0.0,0.0,0.0,-1.4331,-1.4306,-1.4417,-1.4488,-1.4488,-1.4645,0.0,-1.4608,-1.4844,-1.5092,-1.533,-1.5448,-1.5957,-1.6961,-1.9082,-2.0615,-2.1464,-2.2151,-2.2517,-2.2528,-2.2947,-2.3056,-2.2868,-2.2218,-2.1751,-2.1369,-2.0671,-2.0289,-1.9993,-1.8512,-1.7903,-1.7802,-1.6127,-1.4979,-1.4321,-1.4885,-1.4684,0.0,0.0,0.0,0.0,0.0,0.0,0.0,-1.395,-1.4204,-1.4924,-1.6308,-1.7445,-1.8932,-2.1996,-2.2959,-2.3476,-2.5037,-2.6581,-2.7835,-2.8205,-2.9455,-3.0587,-3.0762,-3.0801,-3.0801,-3.0801,0.0,0.0,0.0,0.0,0.0,0.0,0.0,0.0,0.0,0.0,0.0,0.0,0.0,0.0,0.0,0.0,0.0,0.0,0.0,0.0,0.0,0.0,-4.0907,-4.0907,-4.0907,-4.0907,0.0,-4.0907,-4.0907,-4.0907,-4.0907,-4.0907,-4.0907,-4.0907,-4.0907,-4.0907,-4.0907,-4.0907,-4.0907,-4.0907,-4.0907,-4.0907,-4.0907,-4.0898,-4.0898,0.0,0.0,0.0,0.0,0.0,0.0,0.0,0.0,-1.4293,-1.4293,-1.4356,-1.4429,-1.4488,-1.4616,0.0,0.0,-1.4757,-1.4822,-1.4885,-1.4755,-1.5069,-1.6016,-1.7821,-1.8998,-1.9414,-2.0251,-2.0709,-2.072,-2.1143,-2.1566,-2.1969,-2.1569,-2.1177,-2.0766,-2.0308,-2.0088,-1.9993,-1.831,-1.7643,-1.7554,-1.5873,-1.4962,-1.4688,-1.5204,-1.5117,-1.4786,-1.5234,0.0,0.0,0.0,0.0,0.0,0.0,0.0,-1.4359,-1.5689,-1.6685,-1.8035,-2.1082,-2.2494,-2.3515,-2.5254,-2.7013,-2.8303,-2.8303,-2.9591,-3.0801,-3.0801,-3.0801,0.0,0.0,0.0,0.0,0.0,0.0,0.0,0.0,0.0,0.0,0.0,0.0,0.0,0.0,0.0,0.0,0.0,0.0,0.0,0.0,0.0,0.0,0.0,-3.9897,-4.0519,-4.0907,-4.0907,-4.0907,-4.0907,-4.0907,-4.0907,-4.0907,-4.0907,-4.0907,-4.0907,-4.0907,-4.0907,-4.0907,-4.0907,-4.0907,-4.0907,-4.0907,-4.0898,-4.0908,-4.0908,-4.0888,-4.0848,0.0,0.0,0.0,0.0,0.0,0.0,0.0,0.0,0.0,-1.4293,-1.4293,-1.4344,-1.4453,-1.4541,-1.465,0.0,0.0,0.0,-1.4763,-1.4391,-1.4558,-1.5482,-1.6366,-1.6914,-1.7066,-1.7861,-1.8298,-1.8346,-1.9163,-1.9935,-2.0651,-2.1005,-2.0786,-2.0088,-2.0088,-2.0088,-1.9993,-1.831,-1.765,-1.7568,-1.5878,-1.5256,-1.532,-1.5382,-1.539,-1.539,-1.539,-1.539,-1.539,0.0,0.0,0.0,0.0,0.0,-1.4476,-1.5184,-1.6122,-1.7452,-1.9918,-2.1913,-2.371,-2.5295,-2.6898,-2.8127,-2.8264,-2.9494,-3.0626,-3.0762,-3.0801,0.0,0.0,0.0,0.0,0.0,0.0,0.0,0.0,0.0,0.0,0.0,0.0,0.0,0.0,0.0,0.0,0.0,0.0,0.0,0.0,0.0,-3.743,-3.8149,-3.9179,-4.0014,-4.0694,-4.083,-4.0907,-4.0907,-4.0907,-4.0907,-4.0907,-4.0907,-4.0907,-4.0907,-4.0907,-4.0907,-4.0907,-4.0907,-4.0907,-4.0907,-4.0907,-4.0908,-4.0907,-4.0907,-4.0867,-4.0796,0.0,0.0,0.0,0.0,0.0,0.0,0.0,0.0,0.0,0.0,-1.4293,-1.4306,-1.4319,-1.4497,-1.4608,-1.4629,-1.4155,-1.3846,-1.3872,0.0,0.0,-1.3955,-1.413,-1.4554,-1.5321,-1.6117,-1.6534,-1.6562,-1.7415,-1.789,-1.804,-1.9564,-2.0212,-2.0088,-2.0088,-2.0088,-1.9993,-1.831,-1.7673,-1.7644,-1.5893,-1.5272,-1.5385,-1.5409,-1.539,-1.539,-1.539,-1.539,-1.539,-1.539,-1.539,0.0,0.0,0.0,-1.5253,-1.5373,-1.6546,-1.8228,-2.0026,-2.2337,-2.4454,-2.5451,-2.6449,-2.7366,-2.8127,-2.9064,-2.9962,0.0,0.0,0.0,0.0,0.0,0.0,0.0,0.0,0.0,0.0,0.0,0.0,0.0,0.0,0.0,0.0,0.0,0.0,0.0,0.0,0.0,0.0,-3.6634,-3.7159,-3.7275,-3.8848,-3.9761,-3.9858,-4.0558,-4.0907,-4.0907,-4.0907,-4.0907,-4.0907,-4.0907,-4.0907,-4.0907,-4.0907,-4.0907,-4.0907,-4.0907,-4.0907,-4.0907,-4.0907,-4.0908,-4.0907,-4.0907,-4.0846,-4.0812,0.0,0.0,0.0,0.0,0.0,0.0,0.0,0.0,0.0,0.0,0.0,-1.4293,-1.4293,-1.4485,-1.4598,-1.4598,-1.4483,-1.4206,-1.3686,-1.3346,-1.3308,-1.3629,-1.4074,-1.4533,-1.4998,-1.527,-1.5667,-1.6193,-1.6609,-1.7063,-1.7509,-1.8307,-1.8972,-1.9448,-1.9907,-1.9849,-1.9353,-1.8119,-1.7392,-1.6966,-1.5705,-1.5276,-1.539,-1.539,-1.539,-1.539,-1.539,-1.539,-1.539,-1.539,-1.539,-1.5331,-1.4942,0.0,0.0,0.0,-1.5609,-1.6393,-1.9093,-2.1715,-2.3886,-2.4749,-2.598,-2.7095,-2.7483,-2.8615,-2.9708,0.0,0.0,0.0,0.0,0.0,0.0,0.0,0.0,0.0,0.0,0.0,0.0,0.0,0.0,0.0,0.0,0.0,0.0,0.0,0.0,0.0,-3.5799,-3.6168,-3.6595,-3.7081,-3.7838,-3.8712,-3.9684,-4.0053,-4.0461,-4.0907,-4.0907,-4.0907,-4.0907,-4.0907,-4.0907,-4.0907,-4.0907,-4.0898,-4.0908,-4.0898,-4.0898,-4.0908,-4.0898,-4.0878,-4.0848,-4.0848,-4.0823,-4.0796,0.0,0.0,0.0,0.0,0.0,0.0,0.0,0.0,0.0,0.0,0.0,-1.4293,-1.4293,0.0,0.0,0.0,-1.4804,-1.4571,-1.3688,-1.3679,-1.3592,-1.333,-1.3854,-1.4227,-1.4354,-1.4453,-1.4849,-1.5567,-1.585,-1.6276,-1.6865,-1.7138,-1.763,-1.8274,-1.9095,-1.9134,-1.8521,-1.7658,-1.699,-1.643,-1.5564,-1.5306,-1.5429,-1.5643,-1.5721,-1.5721,-1.5721,-1.5721,-1.5701,-1.5468,-1.539,-1.539,-1.539,-1.4942,0.0,0.0,0.0,-1.518,-1.8666,-2.0835,-2.2496,-2.4024,-2.5373,-2.6468,-2.69,-2.8012,-2.9066,0.0,0.0,0.0,0.0,0.0,0.0,0.0,0.0,0.0,0.0,0.0,0.0,0.0,0.0,0.0,0.0,0.0,0.0,0.0,0.0,0.0,-3.5799,-3.5799,-3.611,-3.6751,-3.6984,-3.7722,-3.9023,-3.9489,-4.0111,-4.0907,-4.0907,-4.0907,-4.0907,-4.0907,-4.0907,-4.0898,-4.0907,-4.0888,-4.0907,-4.0908,-4.0878,-4.0877,-4.0888,-4.0868,-4.0796,-4.0807,-4.0792,-4.079,0.0,0.0,0.0,0.0,0.0,0.0,0.0,0.0,0.0,0.0,0.0,-1.4293,-1.4293,-1.4417,-1.4526,-1.4598,-1.4719,-1.4491,-1.3732,-1.3702,-1.336,-1.2583,-1.2478,0.0,-1.2621,-1.3314,-1.371,-1.3842,-1.4657,-1.5082,-1.5155,-1.5972,-1.6377,-1.6483,-1.7333,-1.7712,-1.7611,-1.6816,-1.6476,-1.6435,-1.5614,-1.5345,-1.5487,-1.6325,-1.6636,-1.6636,-1.6636,-1.6636,-1.65,-1.5682,-1.539,-1.539,-1.539,-1.537,-1.5331,0.0,0.0,0.0,-1.9517,-1.9987,-2.0285,-2.3571,-2.4471,-2.4961,-2.6624,0.0,0.0,0.0,0.0,0.0,0.0,0.0,0.0,0.0,0.0,0.0,0.0,0.0,0.0,0.0,0.0,0.0,0.0,0.0,0.0,0.0,0.0,0.0,-3.5799,-3.5799,-3.5818,-3.5877,-3.6673,-3.7139,-3.7236,-3.8868,-4.0111,-4.0907,-4.0907,-4.0907,-4.0907,-4.0907,-4.0888,-4.0907,-4.0898,-4.0888,-4.0907,-4.0907,-4.0848,-4.0818,-4.0877,-4.0856,-4.08,-4.0796,-4.0792,-4.079,0.0,0.0,0.0,0.0,0.0,0.0,0.0,0.0,0.0,0.0,0.0,0.0,0.0,-1.4417,-1.4533,-1.4587,-1.4794,-1.4814,-1.4543,-1.4012,-1.3569,-1.3285,-1.2609,-1.2311,-1.2508,-1.2132,-1.2263,-1.2932,-1.2678,-1.2856,-1.3413,-1.4248,-1.4642,-1.4787,-1.6734,-1.7311,-1.682,-1.6528,-1.6116,-1.569,-1.601,-1.6166,-1.6325,-1.7201,-1.7523,-1.7536,-1.7536,-1.7536,-1.74,-1.6524,-1.6222,-1.613,-1.5584,-1.539,-1.5292,-1.4727,-1.5351,-1.6386,-1.7058,-1.862,-2.0358,-2.1596,-2.3161,-2.4569,-2.5195,-2.6195,-2.7173,0.0,0.0,0.0,0.0,0.0,0.0,0.0,0.0,0.0,0.0,0.0,0.0,0.0,0.0,0.0,0.0,0.0,0.0,0.0,0.0,0.0,-3.5872,-3.5823,-3.5799,-3.5799,-3.611,-3.6537,-3.7081,-3.8829,-3.9839,-4.015,-4.0655,-4.0907,-4.0907,-4.0907,-4.0888,-4.0907,-4.0898,-4.0877,-4.0834,-4.0837,-4.0826,-4.0804,-4.0826,-4.0815,-4.08,-4.0792,-4.0788,-4.079,0.0,0.0,0.0,0.0,0.0,0.0,0.0,0.0,-1.4064,-1.4273,0.0,0.0,0.0,0.0,-1.3772,-1.4119,-1.4391,-1.4541,-1.4541,-1.377,-1.3311,-1.3311,-1.2601,-1.233,-1.2508,-1.1536,-1.1517,-1.2496,-1.1636,-1.1655,-1.2514,-1.3045,-1.3318,-1.346,-1.5442,-1.6189,-1.5971,-1.5997,-1.5868,-1.568,-1.6363,-1.6995,-1.7633,-1.8509,-1.9027,-1.9275,-1.9285,-1.9091,-1.8702,0.0,0.0,0.0,-1.6095,-1.5635,-1.5292,-1.4708,-1.5156,-1.5762,-1.5477,-1.7056,-1.9007,-1.9875,-2.1616,-2.3315,-2.4198,-2.5295,0.0,0.0,0.0,0.0,0.0,0.0,0.0,0.0,0.0,0.0,0.0,0.0,0.0,0.0,0.0,0.0,0.0,0.0,0.0,0.0,0.0,0.0,-3.5879,-3.583,-3.5799,-3.5799,-3.5799,-3.6218,-3.7092,-3.8237,-3.8956,-3.9247,-3.98,-4.0208,-4.0499,-4.0471,-4.0607,-4.0867,-4.0876,-4.0834,-4.08,-4.0804,-4.0792,-4.0808,-4.0804,-4.0792,-4.0808,-4.0788,-4.0796,-4.079,0.0,0.0,0.0,0.0,0.0,0.0,0.0,0.0,-1.4104,-1.434,0.0,0.0,0.0,0.0,0.0,-1.3214,-1.3486,-1.3593,-1.3593,-1.2919,-1.2496,-1.2458,-1.2309,-1.229,-1.2413,-1.153,-1.1511,-1.2439,-1.1579,-1.1598,-1.2439,-1.2458,-1.2452,-1.2497,-1.3379,-1.4249,-1.5066,-1.519,-1.5714,-1.6522,-1.6723,-1.7777,-1.9333,-2.0233,-2.109,0.0,-2.1847,-2.1286,0.0,-1.9545,0.0,0.0,0.0,-1.6099,-1.539,-1.539,-1.4805,-1.432,0.0,0.0,0.0,-1.8581,-1.9848,-2.114,-2.3708,0.0,0.0,0.0,0.0,0.0,0.0,0.0,0.0,0.0,0.0,0.0,0.0,0.0,0.0,0.0,0.0,0.0,0.0,0.0,0.0,0.0,0.0,-3.5859,-3.5807,-3.5799,-3.5799,-3.5799,-3.5791,-3.6209,-3.7045,-3.7092,-3.7499,-3.8277,-3.8354,-3.8848,-3.9664,-3.9597,-4.0004,-4.0729,-4.0734,-4.0742,-4.0761,-4.08,-4.0796,-4.0803,-4.0808,-4.0796,-4.0803,-4.0808,-4.0796,-4.079,0.0,0.0,0.0,0.0,0.0,-1.3565,-1.4364,-1.4676,-1.5068,0.0,0.0,0.0,-1.4891,-1.3682,-1.301,-1.328,-1.3477,-1.361,-1.3593,-1.2919,-1.2223,-1.1598,-1.091,-1.0603,-1.0688,-1.0395,-1.0377,-1.0688,-1.0442,-1.0461,-1.0707,-1.1345,-1.1623,-1.1673,-1.249,-1.3341,-1.4251,-1.5529,-1.6235,-1.6677,-1.8593,-1.9684,0.0,0.0,0.0,0.0,0.0,-2.2586,-2.2154,0.0,-1.9974,-1.9413,0.0,-1.61,-1.539,-1.539,-1.5234,-1.5097,-1.5331,0.0,0.0,0.0,0.0,0.0,0.0,0.0,0.0,0.0,0.0,0.0,0.0,0.0,0.0,0.0,0.0,0.0,0.0,0.0,0.0,0.0,0.0,0.0,0.0,0.0,0.0,0.0,0.0,-3.5883,-3.5866,-3.583,-3.5799,-3.5799,-3.5801,-3.592,-3.6153,-3.6745,-3.7153,-3.7434,-3.8045,-3.8452,-3.8685,-3.8666,-3.8791,-3.8991,-3.8991,-3.9317,-3.9913,-4.0532,-4.0803,-4.079,-4.0803,-4.0803,-4.079,-4.0803,-4.0803,-4.079,0.0,0.0,-1.3102,-1.3102,-1.3424,-1.3937,-1.4675,-1.5173,-1.5722,0.0,0.0,0.0,-1.4619,-1.4023,-1.3461,-1.2767,-1.3158,-1.3318,-1.3027,-1.2331,-1.1691,-1.1213,-1.0394,-0.9954,-1.0006,-0.9614,-0.9595,-1.0006,-0.9641,-0.9641,-1.0006,-1.0529,-1.0763,-1.0787,-1.1628,-1.2477,-1.3405,-1.5133,-1.6316,-1.7186,-1.8763,0.0,0.0,-2.2714,-2.3532,0.0,0.0,0.0,-2.3476,-2.2449,-2.1384,0.0,0.0,-1.6917,-1.5877,-1.5507,-1.539,-1.5312,-1.4961,-1.5117,-1.5526,-1.6033,0.0,0.0,-2.015,-2.1284,0.0,0.0,0.0,0.0,0.0,0.0,0.0,0.0,0.0,0.0,0.0,0.0,0.0,0.0,0.0,0.0,0.0,0.0,0.0,0.0,-3.532,-3.547,-3.584,-3.5815,-3.5791,-3.5801,-3.5812,-3.5794,-3.5757,-3.6212,-3.6484,-3.6513,-3.6988,-3.7405,-3.7754,-3.7763,-3.7956,-3.8302,-3.8272,-3.8531,-3.8992,-3.9514,-4.0133,-4.079,-4.079,-4.079,-4.079,-4.079,-4.079,-4.079,0.0,0.0,-1.3002,-1.3102,-1.3648,-1.4301,-1.483,-1.5575,-1.6256,0.0,-1.616,-1.5103,-1.3642,-1.3968,-1.3727,-1.2296,-1.2735,-1.2866,-1.2345,-1.1639,-1.1234,-1.1182,-1.0512,-1.0101,-1.0006,-0.9243,-0.9224,-1.0006,-0.9224,-0.9243,-1.0006,-1.0012,-0.9998,-1.0033,-1.0828,-1.1696,-1.2706,-1.4208,-1.5983,-1.7844,-1.8243,-2.029,0.0,0.0,-2.4307,-2.5595,-2.5603,-2.5141,-2.4514,-2.4345,-2.2613,0.0,0.0,0.0,-1.6678,-1.5801,-1.5548,-1.5353,-1.4476,-1.4747,-1.5273,-1.537,-1.5974,0.0,-1.9543,-2.0152,0.0,0.0,0.0,0.0,0.0,0.0,0.0,0.0,0.0,0.0,0.0,0.0,0.0,0.0,0.0,0.0,0.0,0.0,0.0,-3.4311,-3.4365,-3.4736,-3.56,-3.5666,-3.5704,-3.5794,-3.5794,-3.5757,-3.5707,-3.5708,-3.5708,-3.5707,-3.5708,-3.6106,-3.6852,-3.686,-3.7276,-3.8012,-3.7959,-3.7967,-3.8063,-3.8063,-3.9088,-4.0655,-4.0655,-4.0713,-4.079,-4.079,-4.079,-4.079,-1.3102,-1.2621,-1.2406,-1.3002,-1.3309,-1.3973,-1.547,-1.65,-1.7435,-1.8324,-1.7815,-1.698,-1.6023,-1.495,-1.4167,-1.3872,-1.2895,-1.2499,-1.2973,-1.2472,-1.1828,-1.1152,-1.103,-1.0669,-1.0006,-0.9836,-0.9836,-1.0006,-0.9836,-0.9841,-1.0003,-1.0,-0.9991,-1.0006,-1.023,-1.1171,-1.2628,-1.3007,-1.4954,-1.7978,-2.0068,0.0,-2.3257,-2.4603,-2.5329,-2.56,-2.5609,-2.5493,-2.5255,-2.4529,-2.2614,-2.0477,0.0,0.0,-1.7589,-1.67,-1.6447,-1.6256,-1.5373,-1.4766,-1.4513,-1.5214,-1.5526,0.0,-1.7162,-1.7985,-1.8789,0.0,0.0,0.0,0.0,0.0,0.0,0.0,0.0,0.0,0.0,0.0,0.0,0.0,0.0,0.0,0.0,0.0,-3.2608,-3.3468,-3.3483,-3.3835,-3.4709,-3.4757,-3.5039,-3.5698,-3.5718,-3.5718,-3.5707,-3.5687,-3.5687,-3.5707,-3.5687,-3.5794,-3.595,-3.5958,-3.6043,-3.6218,-3.6187,-3.6555,-3.7154,-3.7154,-3.8179,-3.9758,-3.9758,-4.0172,-4.079,-4.079,-4.079,-4.079,-1.3084,-1.2505,-1.224,-1.2969,-1.3546,-1.4348,-1.5695,-1.706,-1.816,-1.8771,-1.8573,-1.8064,-1.7336,-1.6555,-1.5773,-1.4963,-1.4271,-1.3897,-1.39,-1.3337,-1.2632,-1.1834,-1.1402,-1.0821,-1.0025,-1.0006,-1.0006,-1.0006,-1.0006,-0.9993,-1.0009,-1.0,-1.002,-1.0044,-1.0085,-1.1029,-1.2636,-1.3104,-1.5298,-1.8562,-1.9875,0.0,-2.3196,-2.4475,-2.5489,-2.6242,-2.6242,-2.6242,-2.6118,-2.5234,-2.3809,0.0,-2.1402,-2.0272,-1.8902,-1.7192,-1.6705,-1.6512,-1.5645,-1.5078,-1.4844,-1.5292,-1.5394,0.0,0.0,0.0,-1.7072,0.0,0.0,0.0,0.0,0.0,0.0,0.0,0.0,0.0,0.0,0.0,0.0,0.0,0.0,0.0,0.0,0.0,-3.0571,-3.1864,-3.2729,-3.3391,-3.3838,-3.4254,-3.4681,-3.503,-3.5466,-3.5697,-3.5706,-3.5695,-3.5695,-3.5706,-3.5695,-3.5695,-3.5706,-3.5695,-3.5704,-3.5704,-3.5704,-3.5936,-3.6303,-3.6303,-3.7058,-3.8257,-3.8682,-3.9379,-4.0152,-4.0152,-4.0423,-4.079,-1.3066,-1.2389,-1.2075,-1.2953,-1.3729,-1.4585,-1.5692,-1.7315,-1.8577,-1.9002,-1.9147,-1.9052,-1.8663,-1.8544,-1.7881,-1.6438,-1.6127,-1.5746,-1.5139,-1.4317,-1.3578,-1.2979,-1.1971,-1.1067,-1.0253,-1.0087,-0.9993,-1.0012,-1.0012,-0.9998,-1.0,-0.9995,-1.0039,-1.0115,-1.029,-1.1196,-1.2698,-1.3735,-1.6072,-1.9134,0.0,-2.1126,-2.3369,-2.4214,-2.5527,-2.6926,-2.7083,-2.7019,-2.6798,-2.6091,-2.5158,-2.4069,-2.2722,-2.1699,0.0,-1.8135,-1.7431,-1.7177,-1.5979,-1.5645,-1.5606,-1.5431,-1.5399,-1.558,0.0,0.0,0.0,0.0,0.0,0.0,0.0,0.0,0.0,0.0,0.0,0.0,0.0,0.0,0.0,0.0,0.0,0.0,0.0,0.0,-2.8733,-3.0233,-3.1676,-3.2598,-3.29,-3.3771,-3.4274,-3.441,-3.5252,-3.5706,-3.5704,-3.5704,-3.5704,-3.5704,-3.5704,-3.5704,-3.5704,-3.5704,-3.5704,-3.5704,-3.5704,-3.5704,-3.5704,-3.5704,-3.6071,-3.6748,-3.7618,-3.8489,-3.9243,-3.9243,-3.9804,-4.0539,-1.3066,-1.1975,-1.1462,-1.287,-1.3186,-1.381,-1.5399,-1.7064,-1.8578,-1.9789,-2.0171,-2.0558,-2.1198,-2.0841,-2.0199,-1.9307,-1.7933,-1.7063,-1.6915,-1.5555,-1.4696,-1.454,-1.313,-1.1952,-1.1086,-1.0356,-1.0,-1.0009,-1.0009,-1.0,-1.0011,-0.9996,-1.0034,-1.0125,-1.0902,-1.1783,-1.2804,-1.444,-1.6665,0.0,-2.0859,-2.2598,0.0,-2.513,-2.6057,-2.6981,-2.7698,-2.7505,-2.6876,0.0,-2.5668,-2.4288,0.0,-2.3511,-2.2437,-2.0614,-2.0068,-1.9543,-1.7187,-1.6546,-1.6376,-1.5596,-1.5405,-1.5428,-1.5529,0.0,-1.5458,-1.5644,0.0,0.0,0.0,0.0,0.0,0.0,0.0,0.0,0.0,0.0,0.0,0.0,0.0,0.0,0.0,0.0,0.0,-2.9392,-2.9691,-3.0458,-3.1874,-3.2783,-3.3606,-3.438,-3.525,-3.5715,-3.5704,-3.5704,-3.5704,-3.5704,-3.5704,-3.5704,-3.5704,-3.5704,-3.5704,-3.5704,-3.5704,-3.5704,-3.5704,-3.5704,-3.5742,-3.5916,-3.6729,-3.758,-3.8353,-3.8353,-3.8895,-3.9661,-1.3048,-1.1909,-1.1362,-1.2853,-1.3208,-1.3801,-1.5363,-1.7524,-1.9225,-2.0008,-2.0608,-2.1116,-2.1534,-2.1482,-2.1287,-2.0957,0.0,-1.8738,0.0,0.0,-1.5967,-1.4957,-1.4297,-1.3104,-1.1294,-1.0926,-1.0508,-1.0009,-0.9998,-0.9995,-0.9997,-1.0001,-1.0065,-1.0205,-1.1075,-1.2192,-1.3604,0.0,-1.8286,0.0,0.0,0.0,0.0,-2.5496,-2.6454,-2.776,-2.8573,-2.8651,-2.8269,0.0,-2.6794,0.0,0.0,0.0,0.0,-2.177,-2.1258,-2.0818,-1.8761,-1.8186,-1.7959,-1.7129,-1.6532,-1.6012,-1.5521,0.0,-1.4647,0.0,0.0,0.0,0.0,0.0,0.0,0.0,0.0,0.0,0.0,0.0,0.0,0.0,0.0,0.0,0.0,0.0,0.0,0.0,0.0,-2.9629,-3.0308,-3.2106,-3.3256,-3.3634,-3.4988,-3.5704,-3.5704,-3.5704,-3.5704,-3.5704,-3.5704,-3.5704,-3.5704,-3.5704,-3.5704,-3.5704,-3.5704,-3.5704,-3.5704,-3.5704,-3.5704,-3.5723,-3.6071,-3.6709,-3.7444,-3.7444,-3.8005,-3.8818,-1.3033,-1.1909,-1.1362,-1.2853,-1.3226,-1.3989,-1.6004,-1.8139,-1.9744,-2.0369,-2.1203,-2.1839,-2.2207,-2.2459,-2.2529,-2.2325,-2.1462,-2.0816,0.0,0.0,-1.768,-1.6445,-1.5505,-1.4156,-1.2357,-1.1641,-1.0994,-1.0366,-1.0122,-1.0005,-1.002,-1.0006,-1.0059,-1.0219,-1.1338,-1.2658,-1.4209,0.0,-1.9592,-2.1876,-2.362,-2.4996,-2.605,-2.6245,-2.7256,-2.8649,-2.9477,-2.9609,-2.9337,-2.8695,-2.7775,0.0,-2.6162,0.0,-2.4431,-2.2929,-2.248,-2.2124,-2.0438,0.0,0.0,0.0,0.0,0.0,0.0,0.0,0.0,0.0,0.0,0.0,0.0,0.0,0.0,0.0,0.0,0.0,0.0,0.0,0.0,0.0,0.0,0.0,0.0,0.0,0.0,0.0,0.0,0.0,-2.9282,-3.1275,-3.2618,-3.3082,-3.4563,-3.5452,-3.5704,-3.5704,-3.5704,-3.5704,-3.5704,-3.5704,-3.5704,-3.5704,-3.5704,-3.5704,-3.5704,-3.5704,-3.5704,-3.5704,-3.5704,-3.5704,-3.5704,-3.6052,-3.6574,-3.6574,-3.7116,-3.7928,-1.2951,-1.1909,-1.1362,-1.2853,-1.3102,-1.4234,-1.759,-1.8789,-1.9808,0.0,0.0,0.0,0.0,0.0,0.0,0.0,0.0,-2.34,-2.2577,0.0,-1.9992,-1.9935,-1.6766,-1.4958,0.0,-1.2534,-1.1285,-1.1269,-1.0411,-1.002,-1.0096,-1.002,-1.0048,-1.0183,-1.1896,-1.3204,-1.4311,-1.7722,-2.0173,-2.1934,-2.3627,-2.5325,-2.6942,0.0,-2.8689,-2.9552,-3.0369,0.0,0.0,-2.945,-2.8329,0.0,0.0,0.0,0.0,0.0,0.0,0.0,0.0,0.0,0.0,-1.9461,0.0,0.0,0.0,0.0,-1.6385,0.0,0.0,0.0,0.0,0.0,0.0,0.0,0.0,0.0,0.0,0.0,0.0,0.0,0.0,0.0,0.0,0.0,0.0,0.0,0.0,0.0,-2.9205,-3.0172,-3.1429,-3.3044,-3.3963,-3.4853,-3.5684,-3.5704,-3.5704,-3.5704,-3.5704,-3.5704,-3.5704,-3.5704,-3.5704,-3.5704,-3.5704,-3.5704,-3.5704,-3.5704,-3.5704,-3.5704,-3.5704,-3.5723,-3.5742,-3.5742,-3.6245,-3.6961,-1.2881,-1.1893,-1.1362,-1.2853,-1.3497,-1.4908,-1.8167,-1.9516,0.0,0.0,0.0,0.0,0.0,-2.4629,-2.4695,0.0,0.0,-2.3774,-2.3473,-2.2386,0.0,0.0,0.0,-1.7344,0.0,0.0,-1.2947,-1.1307,-1.1005,-1.0597,-1.0096,-1.002,-1.0044,-1.0175,-1.1925,-1.3513,-1.5121,0.0,0.0,0.0,0.0,-2.6795,-2.7851,0.0,0.0,-2.955,-3.0397,-3.0535,0.0,-3.0296,-2.9522,-2.8559,-2.8559,-2.7585,-2.6408,-2.6113,-2.5615,0.0,0.0,0.0,-2.283,-2.2025,0.0,0.0,0.0,0.0,0.0,0.0,0.0,0.0,0.0,0.0,0.0,0.0,0.0,0.0,0.0,0.0,0.0,0.0,0.0,0.0,0.0,0.0,0.0,0.0,0.0,0.0,0.0,-2.9495,-3.0868,-3.1429,-3.3363,-3.4543,-3.4833,-3.5414,-3.5704,-3.5704,-3.5704,-3.5704,-3.5704,-3.5704,-3.5704,-3.5704,-3.5704,-3.5704,-3.5704,-3.5704,-3.5704,-3.5704,-3.5704,-3.5704,-3.5704,-3.5704,-3.5878,-3.6187,-1.2386,-1.1679,-1.1364,-1.2853,-1.393,0.0,0.0,0.0,0.0,0.0,-2.3547,0.0,-2.4489,0.0,-2.479,0.0,-2.453,-2.4347,-2.4354,-2.3561,0.0,-2.15,-2.0575,0.0,0.0,0.0,0.0,0.0,-1.1588,-1.0883,-1.0068,-1.0044,-1.0058,-1.0131,-1.1918,-1.367,-1.5524,-1.9056,-2.1526,0.0,0.0,-2.7689,0.0,0.0,-2.9149,-2.9979,0.0,-3.074,-3.0739,-3.0716,-3.0113,-2.9399,-2.9402,-2.8446,-2.7324,-2.7337,-2.6727,-2.5951,-2.5434,-2.4797,0.0,-2.3686,-2.2489,0.0,-2.0321,0.0,-1.8416,0.0,0.0,0.0,0.0,0.0,0.0,0.0,0.0,0.0,0.0,0.0,0.0,0.0,0.0,0.0,0.0,0.0,0.0,0.0,0.0,0.0,0.0,0.0,-2.9959,-3.0578,-3.2474,-3.377,-3.4389,-3.4949,-3.5394,-3.5704,-3.5704,-3.5704,-3.5704,-3.5704,-3.5704,-3.5704,-3.5704,-3.5704,-3.5704,-3.5704,-3.5704,-3.5704,-3.5704,-3.5704,-3.5704,-3.5704,-3.5704,-3.5762,-1.1614,-1.1465,-1.1513,0.0,-1.438,0.0,0.0,0.0,-2.1412,0.0,-2.3835,-2.4454,-2.4538,-2.4727,-2.4879,-2.4879,-2.5152,0.0,-2.5268,-2.4488,0.0,0.0,-2.1577,-2.0241,-2.0088,0.0,0.0,0.0,0.0,-1.0923,-1.0054,-1.0087,-1.0087,-1.0135,-1.1914,-1.3693,-1.5582,-1.9102,-2.1637,-2.3517,-2.6053,-2.8045,-2.95,-2.956,0.0,-3.0804,-3.08,-3.0796,-3.0796,-3.072,-3.0144,-2.9454,-2.9467,-2.8864,-2.8159,-2.8159,-2.7582,-2.6959,-2.6967,-2.571,-2.4432,-2.4505,0.0,0.0,0.0,0.0,-2.0375,0.0,0.0,0.0,0.0,0.0,0.0,0.0,0.0,0.0,0.0,0.0,0.0,0.0,0.0,0.0,0.0,0.0,0.0,0.0,0.0,0.0,0.0,0.0,0.0,-3.0424,-3.1294,-3.257,-3.4253,-3.435,-3.4814,-3.5646,-3.5684,-3.5704,-3.5704,-3.5704,-3.5704,-3.5704,-3.5704,-3.5704,-3.5704,-3.5704,-3.5704,-3.5704,-3.5704,-3.5704,-3.5704,-3.5704,-3.5704,-3.5704,-1.2316,-1.303,-1.3464,0.0,-1.5139,-1.6993,0.0,0.0,0.0,0.0,-2.43,-2.478,-2.4987,-2.559,-2.5977,-2.5977,-2.6645,0.0,0.0,0.0,0.0,-2.3957,-2.3277,-2.2036,-2.0146,-1.8618,0.0,-1.4768,0.0,-1.1815,-1.0942,-1.0378,-1.0417,-1.1023,-1.2185,-1.4031,-1.6445,-1.9315,-2.2645,-2.6117,-2.745,-2.8606,0.0,0.0,-3.0614,-3.0806,-3.0799,-3.0806,-3.0796,-3.072,-3.056,-3.0364,-3.038,-2.9777,-2.9078,-2.9078,-2.8456,-2.7796,-2.7795,-2.7023,-2.6246,-2.6242,-2.5114,-2.3923,0.0,0.0,0.0,0.0,0.0,0.0,0.0,0.0,0.0,0.0,0.0,0.0,0.0,0.0,0.0,0.0,0.0,0.0,0.0,0.0,0.0,0.0,0.0,0.0,0.0,0.0,0.0,-2.8625,-3.0114,-3.141,-3.2454,-3.375,-3.4505,-3.4737,-3.5394,-3.5704,-3.5704,-3.5704,-3.5704,-3.5704,-3.5704,-3.5704,-3.5704,-3.5704,-3.5704,-3.5704,-3.5704,-3.5704,-3.5704,-3.5704,-3.5704,-3.5704,-1.211,-1.3585,0.0,-1.5106,0.0,0.0,-2.0095,0.0,0.0,-2.3879,-2.4851,0.0,-2.5583,-2.6422,-2.6975,-2.6975,-2.7415,0.0,-2.6995,0.0,0.0,-2.5046,-2.4664,-2.3613,-2.1798,-2.0184,0.0,-1.6189,0.0,-1.3074,-1.1853,-1.1405,-1.1424,-1.1916,-1.2814,-1.4473,-1.6779,-2.0165,-2.392,-2.7618,-2.8106,0.0,0.0,-3.0626,-3.0801,-3.0804,-3.08,-3.0799,-3.0793,-3.0762,-3.0746,-3.0747,-3.0745,-3.0404,-3.001,-2.9983,-2.9374,-2.8707,-2.8677,-2.8068,-2.7427,-2.7427,-2.6417,-2.542,-2.5395,-2.4451,-2.343,0.0,0.0,0.0,0.0,0.0,0.0,0.0,0.0,0.0,0.0,0.0,0.0,0.0,0.0,0.0,0.0,0.0,0.0,0.0,0.0,0.0,0.0,0.0,0.0,-2.7426,-2.9128,-3.0424,-3.1275,-3.2609,-3.3654,-3.4408,-3.4891,-3.5336,-3.5704,-3.5704,-3.5704,-3.5704,-3.5704,-3.5704,-3.5704,-3.5704,-3.5704,-3.5704,-3.5704,-3.5704,-3.5704,-3.5704,-3.5704,-3.5704,-1.1841,-1.3831,-1.569,0.0,0.0,0.0,0.0,-2.181,0.0,-2.41,0.0,-2.6138,-2.6138,-2.717,-2.7854,-2.7854,0.0,-2.7988,-2.7854,-2.7854,-2.7472,-2.6612,-2.5803,-2.4962,-2.4091,-2.1569,0.0,0.0,0.0,-1.4341,-1.2909,-1.2693,-1.2654,-1.2801,-1.3662,-1.5212,0.0,-2.1488,-2.5157,0.0,-2.8296,-2.9294,-3.0801,-3.0801,-3.0801,-3.0801,-3.0801,-3.0793,-3.08,-3.0801,-3.0798,-3.0806,-3.0801,-3.0801,-3.0796,-3.0724,-3.0204,-2.9649,-2.9596,-2.8929,-2.8275,-2.8275,-2.766,-2.7039,-2.6981,-2.5835,-2.4749,-2.4573,-2.3281,0.0,0.0,0.0,0.0,0.0,0.0,0.0,0.0,0.0,0.0,0.0,0.0,0.0,0.0,0.0,0.0,0.0,0.0,0.0,0.0,0.0,0.0,-2.6702,-2.8277,0.0,-3.0424,0.0,-3.257,-3.406,-3.4292,-3.4795,-3.553,-3.5646,-3.5704,-3.5704,-3.5704,-3.5704,-3.5704,-3.5704,-3.5704,-3.5704,-3.5704,-3.5704,-3.5704,-3.5704,-3.5704,-3.5704,-1.3576,-1.5052,-1.6619,0.0,0.0,-2.1316,-2.1498,-2.228,-2.3233,-2.431,-2.557,-2.6359,-2.6346,-2.7752,-2.8681,-2.8681,-2.9344,0.0,0.0,0.0,0.0,-2.751,-2.6651,-2.581,-2.5,-2.2477,-2.0671,0.0,0.0,-1.4959,-1.4634,-1.3252,-1.2953,-1.3621,-1.4494,-1.7093,-2.0944,-2.3198,0.0,-2.8301,-2.8301,-2.9296,-3.0801,-3.0801,-3.0801,-3.0801,-3.0801,-3.0804,-3.081,-3.08,-3.0801,-3.08,-3.0806,-3.0801,-3.0799,-3.0794,-3.0634,-3.0487,-3.0477,-2.9835,-2.9175,-2.9175,-2.8534,-2.7887,-2.7873,-2.7639,-2.7237,-2.6498,-2.5546,-2.466,-2.408,0.0,0.0,0.0,0.0,0.0,0.0,0.0,0.0,0.0,0.0,0.0,0.0,0.0,0.0,0.0,0.0,0.0,0.0,0.0,0.0,0.0,0.0,0.0,0.0,0.0,0.0,-3.228,-3.3712,-3.4466,-3.464,-3.5375,-3.5704,-3.5704,-3.5704,-3.5704,-3.5704,-3.5704,-3.5704,-3.5704,-3.5704,-3.5704,-3.5704,-3.5704,-3.5704,-3.5704,-1.6066,-1.6908,-1.8011,-1.9639,0.0,0.0,0.0,-2.3446,0.0,-2.4892,-2.6067,-2.7044,-2.7504,-2.8755,-2.9574,-2.9574,-2.9956,-3.0013,-2.9612,-2.9574,-2.9211,-2.8357,-2.7529,0.0,-2.5841,-2.3766,-2.2066,-2.0766,0.0,-1.7251,-1.638,-1.557,-1.5405,-1.5826,-1.72,-1.9259,0.0,0.0,0.0,-2.8298,-2.8298,-2.9296,-3.0801,-3.0801,-3.0801,-3.0801,-3.0801,-3.0801,-3.0801,-3.0793,-3.0796,-3.0796,-3.08,-3.0801,-3.0801,-3.0798,-3.0771,-3.0738,-3.0715,-3.0394,-3.0075,-3.0075,-2.9428,-2.878,-2.8771,-2.8427,-2.7973,-2.7508,-2.6738,-2.5743,-2.4447,-2.3209,0.0,0.0,0.0,0.0,0.0,0.0,0.0,0.0,0.0,0.0,0.0,0.0,0.0,0.0,0.0,0.0,0.0,0.0,0.0,0.0,0.0,0.0,0.0,0.0,0.0,-3.1816,-3.3112,-3.3963,-3.4427,-3.5298,-3.5704,-3.5704,-3.5704,-3.5704,-3.5704,-3.5704,-3.5704,-3.5704,-3.5704,-3.5704,-3.5704,-3.5704,-3.5704,-3.5704,-1.8241,-1.8647,-1.9301,0.0,-2.1849,0.0,-2.3437,-2.4683,-2.5531,-2.5409,-2.6615,-2.777,-2.8509,-2.9502,-3.0157,-3.0204,-3.0204,-3.0204,-3.0204,-3.0204,-2.9898,-2.9197,-2.8389,-2.7549,-2.6689,-2.5027,-2.3441,0.0,0.0,0.0,-1.7603,-1.7603,-1.7811,0.0,0.0,0.0,0.0,0.0,-2.6029,-2.8296,-2.8296,-2.9294,-3.0801,-3.0801,-3.0801,-3.0801,-3.0801,-3.0801,-3.0801,-3.0801,-3.0801,-3.0801,-3.0801,-3.0801,-3.0804,-3.0798,-3.08,-3.08,-3.0739,-3.0711,-3.0691,-3.0691,-3.0185,-2.9666,-2.9668,-2.9117,-2.8559,-2.8333,-2.7445,-2.6296,-2.4969,-2.4447,0.0,0.0,0.0,0.0,0.0,0.0,0.0,0.0,0.0,0.0,0.0,0.0,0.0,0.0,0.0,0.0,0.0,0.0,0.0,0.0,0.0,-2.7995,-2.7995,0.0,-3.0926,0.0,-3.2599,-3.346,-3.4156,-3.522,-3.5704,-3.5704,-3.5704,-3.5704,-3.5704,-3.5704,-3.5704,-3.5704,-3.5704,-3.5704,-3.5704,-3.5704,-3.5704,-3.5704,0.0,0.0,0.0,0.0,0.0,0.0,0.0,-2.5538,-2.6135,-2.5499,-2.699,-2.8202,-2.8464,-2.9358,-3.0003,-3.0171,-3.0204,-3.0204,-3.0204,-3.0204,-3.0166,-3.007,-2.9249,-2.8414,-2.7606,-2.5937,-2.4606,0.0,0.0,0.0,0.0,-1.7603,-1.8471,0.0,0.0,0.0,0.0,-2.5138,-2.6637,-2.8303,-2.8303,-2.9298,-3.0801,-3.0801,-3.0801,-3.0801,-3.0801,-3.0801,-3.0801,-3.0801,-3.0801,-3.0801,-3.0801,-3.0801,-3.0801,-3.0804,-3.0796,-3.08,-3.0784,-3.0755,-3.0691,-3.0691,-3.0637,-3.0556,-3.0494,-3.0419,-3.0131,-2.9349,-2.7871,-2.6644,-2.6489,-2.5221,-2.4176,0.0,0.0,0.0,0.0,0.0,0.0,0.0,0.0,0.0,0.0,0.0,0.0,0.0,0.0,0.0,0.0,0.0,0.0,-2.5511,0.0,-2.7995,-2.7995,-2.9727,0.0,-3.0733,-3.2338,-3.314,-3.3276,-3.4949,-3.5704,-3.5704,-3.5704,-3.5704,-3.5704,-3.5704,-3.5704,-3.5704,-3.5704,-3.5704,-3.5704,-3.5704,-3.5704,-3.5704,0.0,0.0,0.0,0.0,0.0,0.0,0.0,-2.6249,-2.676,-2.6613,-2.7539,-2.8447,-2.9079,-2.9595,-2.9921,-3.0019,-3.0128,-3.0204,-3.0204,-3.0204,-3.0204,-3.0204,-2.9383,-2.851,-2.772,-2.6536,-2.5256,0.0,0.0,0.0,0.0,0.0,0.0,0.0,0.0,-2.3572,-2.4399,-2.5823,-2.7156,-2.8342,-2.8869,-2.9767,-3.0801,-3.0801,-3.0801,-3.0801,-3.0801,-3.0801,-3.0801,-3.0801,-3.0801,-3.0801,-3.0801,-3.0801,-3.0801,-3.086,-3.0834,-3.0801,-3.0796,-3.0749,-3.0691,-3.0691,-3.071,-3.0668,-3.061,-3.0602,-3.0507,-3.0143,-2.9108,-2.8103,-2.758,-2.6923,-2.6478,0.0,0.0,0.0,0.0,0.0,0.0,0.0,0.0,0.0,0.0,0.0,0.0,0.0,0.0,0.0,0.0,0.0,0.0,-2.5511,0.0,-2.7995,-2.7995,-2.9727,-3.0598,-3.0617,-3.23,-3.3102,-3.316,-3.4911,-3.5704,-3.5704,-3.5704,-3.5704,-3.5704,-3.5704,-3.5704,-3.5704,-3.5704,-3.5704,-3.5704,-3.5704,-3.5704,-3.5704,-2.2052,0.0,-2.2862,0.0,-2.4326,-2.4813,-2.6315,-2.6997,-2.7422,-2.7737,-2.8121,-2.8643,-2.9361,-2.9608,-2.9716,-2.9786,-2.9937,-3.0049,-3.0113,-3.0049,-3.0079,-3.0185,-2.9551,0.0,-2.8083,-2.7224,-2.6078,-2.4645,-2.4148,0.0,0.0,-2.2048,0.0,0.0,-2.3848,-2.4464,-2.5121,-2.6368,-2.7569,-2.8681,-2.9335,-3.0079,-3.0801,-3.0801,-3.0801,-3.0801,-3.0801,-3.0801,-3.0801,-3.0801,-3.0801,-3.0801,-3.0801,-3.0801,-3.0801,-3.088,-3.087,-3.0839,-3.0818,-3.0752,-3.0691,-3.0697,-3.0695,-3.0661,-3.0602,-3.0593,-3.0595,-3.0607,-2.9901,-2.9108,-2.8489,-2.8169,-2.7995,0.0,0.0,0.0,0.0,0.0,0.0,0.0,-2.3441,-2.3383,0.0,0.0,0.0,0.0,0.0,0.0,0.0,0.0,0.0,0.0,0.0,0.0,0.0,0.0,-3.0714,-3.0965,-3.2406,-3.3218,-3.3538,-3.4997,-3.5673,-3.5704,-3.5673,-3.5673,-3.5673,-3.5673,-3.5673,-3.5673,-3.5673,-3.5684,-3.5704,-3.5704,-3.5704,-3.5704,-2.2811,-2.3534,-2.4286,-2.4982,-2.5582,-2.6289,-2.7234,-2.7787,-2.8237,-2.8626,-2.8676,-2.8803,-2.9082,-2.9169,-2.9314,-2.9589,-2.9608,-2.9698,-2.9888,-2.9716,-2.9786,0.0,0.0,-2.957,-2.8911,-2.8103,-2.7243,-2.6364,0.0,0.0,-2.1407,-2.0593,-2.1609,-2.4084,-2.415,-2.5168,-2.678,-2.6851,-2.7866,-2.9405,-2.9542,-3.0079,-3.0801,-3.0801,-3.0801,-3.0801,-3.0801,-3.0801,-3.0801,-3.0801,-3.0801,-3.0801,-3.0801,-3.0801,-3.0801,-3.088,-3.0899,-3.0889,-3.0813,-3.0739,-3.0691,-3.0695,-3.0649,-3.0604,-3.0595,-3.0597,-3.0598,-3.0598,-2.9901,-2.9302,-2.9282,-2.8567,-2.7995,-2.7995,0.0,0.0,0.0,0.0,0.0,-2.5569,-2.4718,-2.4525,-2.5376,0.0,0.0,0.0,0.0,0.0,0.0,0.0,0.0,-2.5511,-2.7136,0.0,-2.7995,-2.9727,-3.1004,-3.1797,-3.2676,-3.3557,-3.4408,-3.5237,-3.5643,-3.5704,-3.5631,-3.5601,-3.5601,-3.5601,-3.5601,-3.5601,-3.5601,-3.5643,-3.5704,-3.5704,-3.5704,-3.5704,-2.3588,-2.3867,-2.436,-2.535,-2.555,-2.6031,-2.7278,-2.7664,-2.7926,-2.8255,-2.85,-2.8694,-2.8887,-2.9079,-2.9251,0.0,-2.9532,-2.9626,0.0,-2.9644,-2.9716,-2.9969,-2.9921,-2.9589,-2.8911,-2.8643,-2.8122,-2.73,0.0,0.0,0.0,-2.3794,-2.4428,-2.5813,-2.5832,-2.6513,-2.7652,-2.8225,-2.8793,-2.9401,-3.0087,-3.0498,-3.0732,-3.0774,-3.0801,-3.0801,-3.0801,-3.0801,-3.0801,-3.0801,-3.0801,-3.0801,-3.0801,-3.0841,-3.088,-3.0899,-3.0866,-3.0835,-3.08,-3.0784,-3.075,-3.0703,-3.0684,-3.0649,-3.0621,-3.0606,-3.0598,-3.0598,-3.0385,-3.0192,-3.0192,-2.9959,-2.9766,-2.9766,-2.9263,0.0,0.0,0.0,-2.6392,-2.5608,-2.526,-2.5201,0.0,0.0,0.0,0.0,0.0,0.0,0.0,0.0,0.0,0.0,-2.7136,0.0,-2.7995,-2.9727,-3.1004,-3.1816,-3.2676,-3.3866,-3.5278,-3.5538,-3.5643,-3.5643,-3.5673,-3.5643,-3.5601,-3.5643,-3.5673,-3.5673,-3.5673,-3.5673,-3.5704,-3.5704,-3.5704,-3.5704,-2.4348,-2.4663,-2.513,-2.6009,-2.5982,-2.6232,-2.74,-2.7654,-2.78,-2.8075,-2.8378,-2.8637,-2.8804,-2.8957,0.0,-2.9185,-2.9312,-2.9395,-2.9494,-2.9415,-2.9494,-2.9787,-2.9805,-2.9574,-2.9175,0.0,0.0,-2.8027,-2.73,-2.6715,-2.6233,-2.6233,-2.6542,-2.7082,-2.7082,-2.7585,-2.8454,-2.8974,-2.9406,-2.9811,-3.0419,-3.0672,-3.0691,-3.0758,-3.0771,-3.0801,-3.0801,-3.0801,-3.0801,-3.0801,-3.0801,-3.0801,-3.0801,-3.086,-3.0899,-3.0903,-3.0868,-3.0834,-3.0839,-3.0827,-3.0774,-3.073,-3.0676,-3.0649,-3.0604,-3.0597,-3.0598,-3.0598,-3.0598,-3.0598,-3.0598,-3.0598,-3.0598,-3.0598,-3.0133,-2.9476,-2.8606,0.0,-2.7368,0.0,0.0,0.0,0.0,-2.5685,0.0,0.0,0.0,0.0,0.0,0.0,0.0,-2.5936,-2.7271,0.0,-2.8489,-2.9882,-3.1004,-3.1816,-3.3015,-3.4331,-3.5704,-3.5662,-3.5631,-3.5601,-3.5631,-3.5639,-3.5608,-3.5662,-3.5654,-3.5654,-3.5654,-3.5673,-3.5704,-3.5704,-3.5704,-3.5704,-2.5073,-2.5776,0.0,0.0,-2.6691,0.0,-2.7522,-2.7672,-2.78,-2.8047,-2.8396,-2.8637,-2.8785,-2.8785,-2.8834,-2.8994,0.0,0.0,0.0,-2.9093,-2.9181,-2.957,-2.9589,0.0,-2.9608,-2.9175,-2.8846,-2.8616,-2.8044,-2.7788,-2.78,-2.78,-2.7868,-2.7986,-2.7986,-2.8429,-2.919,-2.9255,-2.9757,-3.0501,-3.0576,-3.0626,-3.0701,-3.0682,-3.0728,-3.0796,-3.0796,-3.0796,-3.0796,-3.0799,-3.0801,-3.0801,-3.0801,-3.086,-3.0901,-3.0892,-3.0909,-3.0905,-3.0898,-3.0843,-3.0789,-3.073,-3.0652,-3.0604,-3.0607,-3.0598,-3.0598,-3.0598,-3.0598,-3.0598,-3.0598,-3.0598,-3.0598,-3.0598,-3.0598,-3.0308,-2.9418,0.0,0.0,0.0,0.0,0.0,0.0,-2.6111,-2.5666,0.0,0.0,0.0,0.0,0.0,-2.6014,-2.676,-2.7638,-2.847,-2.9282,-3.0153,-3.1023,-3.1913,-3.3596,-3.4853,-3.5704,-3.5647,-3.5596,-3.5601,-3.5596,-3.5604,-3.5604,-3.5589,-3.5601,-3.5612,-3.5612,-3.5643,-3.5704,-3.5704,-3.5704,-3.5704,0.0,0.0,-2.6258,-2.6418,-2.6486,-2.6606,-2.6825,-2.7338,-2.7713,-2.78,-2.8264,-2.8637,-2.8694,-2.8761,-2.8834,-2.8929,-2.8952,-2.9017,-2.9067,-2.904,-2.9115,-2.9355,-2.9375,-2.9455,-2.9608,-2.9491,-2.9196,-2.8673,-2.8527,-2.8249,-2.789,-2.789,-2.8217,-2.8813,-2.8813,-2.9294,-3.0083,-3.0106,-3.0232,-3.0436,-3.0492,-3.0527,-3.0552,-3.06,-3.0633,-3.0645,-3.0716,-3.0726,-3.073,-3.0849,-3.088,-3.088,-3.0821,-3.086,-3.0901,-3.0909,-3.0895,-3.0898,-3.0898,-3.0882,-3.0847,-3.073,-3.0652,-3.0604,-3.0595,-3.0597,-3.0598,-3.0598,-3.0598,-3.0598,-3.0598,-3.0598,-3.0598,-3.0598,-3.0598,-3.0308,-2.9418,-2.9302,0.0,0.0,-2.7813,-2.7696,-2.7696,-2.7522,-2.7406,0.0,0.0,0.0,0.0,-2.7503,-2.7503,-2.7696,-2.8528,-2.9089,-2.9302,-3.0153,-3.1333,-3.2792,-3.3826,-3.4812,-3.5704,-3.5673,-3.5662,-3.5601,-3.5601,-3.5589,-3.5589,-3.5601,-3.5631,-3.5673,-3.5673,-3.5684,-3.5704,-3.5704,-3.5704,-3.5704,-2.5811,-2.6115,-2.6239,-2.6364,-2.6434,-2.6554,-2.6623,-2.7117,-2.7522,-2.7672,-2.8083,-2.8474,-2.8737,-2.8785,-2.8834,-2.8929,-2.8994,-2.8994,-2.8994,-2.904,-2.9089,-2.916,-2.927,-2.9353,-2.9332,-2.9513,-2.9506,-2.9288,-2.9322,-2.9243,-2.9044,-2.9044,-2.9275,-2.9698,-2.9698,-2.9967,-3.0398,-3.0398,-3.0398,-3.041,-3.0439,-3.0472,-3.0501,-3.0535,-3.0564,-3.06,-3.0646,-3.0664,-3.0706,-3.0782,-3.0843,-3.0899,-3.086,-3.088,-3.0899,-3.0903,-3.0891,-3.0896,-3.0898,-3.0894,-3.0863,-3.0736,-3.0645,-3.0597,-3.0597,-3.0607,-3.0598,-3.0598,-3.0598,-3.0598,-3.0598,-3.0598,-3.0598,-3.0598,-3.0598,-3.0424,-2.9959,-2.9882,0.0,-2.9244,-2.8838,-2.8586,-2.8586,-2.8227,-2.7995,-2.7995,0.0,0.0,-2.8567,-2.8597,-2.8588,-2.8588,-2.905,-2.9476,-2.9844,-3.0327,-3.1207,-3.251,-3.3341,-3.4202,-3.5063,-3.5469,-3.5631,-3.5608,-3.5608,-3.5577,-3.5565,-3.5596,-3.562,-3.5643,-3.5643,-3.5673,-3.5704,-3.5704,-3.5704,-3.5704,-2.5811,-2.6079,-2.6239,-2.645,-2.652,-2.6572,-2.6674,-2.6989,-2.7307,-2.7582,-2.7869,-2.8201,-2.8594,-2.8644,-2.8718,-2.8863,-2.8929,-2.897,-2.8994,-2.9044,-2.9062,-2.9017,-2.9203,-2.9225,-2.9017,-2.9334,-2.9644,-2.9896,-2.9981,-3.0133,-3.0355,-3.0355,-3.0367,-3.0398,-3.0398,-3.0398,-3.0398,-3.0398,-3.0398,-3.0398,-3.0398,-3.0428,-3.0472,-3.0482,-3.0518,-3.0576,-3.0583,-3.0632,-3.0691,-3.0709,-3.0793,-3.0891,-3.0897,-3.0899,-3.0899,-3.0901,-3.0901,-3.0905,-3.0897,-3.0898,-3.0853,-3.075,-3.0662,-3.0617,-3.0598,-3.0598,-3.0598,-3.0598,-3.0598,-3.0598,-3.0598,-3.0598,-3.0598,-3.0598,-3.0598,-3.0598,-3.0598,0.0,-3.0598,-3.0598,-2.994,-2.9495,-2.9495,-2.8818,-2.8393,-2.8393,-2.8393,0.0,0.0,-2.9496,-2.9497,-2.9487,-2.9477,-2.9805,-3.0491,-3.0491,-3.0944,-3.1802,-3.2673,-3.3514,-3.4326,-3.5195,-3.5608,-3.5616,-3.5604,-3.556,-3.5528,-3.556,-3.5596,-3.5601,-3.5601,-3.5643,-3.5704,-3.5704,-3.5704,-3.5704,-2.5717,-2.6059,-2.6239,-2.645,-2.6554,-2.6606,-2.6691,-2.6989,-2.7213,-2.7276,-2.7565,-2.78,-2.7858,-2.7954,-2.8147,-2.8394,-2.8558,-2.8767,-2.8994,-2.9017,-2.9017,-2.8994,-2.904,-2.9044,-2.8994,-2.9112,-2.9272,-2.9495,-2.957,-2.978,-3.0136,-3.0136,-3.0241,-3.0398,-3.0398,-3.0398,-3.0398,-3.0398,-3.0398,-3.0398,-3.0398,-3.041,-3.0414,-3.0428,-3.0409,-3.0447,-3.0567,-3.0607,-3.0617,-3.0743,-3.0792,-3.0833,-3.0885,-3.0899,-3.0901,-3.0891,-3.0892,-3.0891,-3.0905,-3.0856,-3.08,-3.0796,-3.0739,-3.0675,-3.0617,-3.0598,-3.0598,-3.0598,-3.0598,-3.0598,-3.0598,-3.0598,-3.0598,-3.0598,-3.0598,-3.0598,-3.0598,0.0,-3.0598,-3.0598,-3.0482,-3.0404,-3.0404,-3.0288,-3.0192,-3.0192,-3.0192,-3.025,-3.0385,-3.0404,-3.0376,-3.0316,-3.0297,-3.0365,-3.0491,-3.05,-3.0944,-3.1815,-3.264,-3.3469,-3.4326,-3.5195,-3.5631,-3.5673,-3.5616,-3.5584,-3.5589,-3.554,-3.5553,-3.5601,-3.5601,-3.5643,-3.5704,-3.5704,-3.5704,-3.5704,-2.5497,-2.5974,-2.6329,-2.652,-2.6554,-2.6572,-2.6691,-2.6825,-2.6989,-2.7181,-2.7338,-2.7535,-2.7771,-2.7869,-2.7964,-2.8166,-2.8438,-2.8669,-2.8834,-2.8998,-2.9108,-2.9062,-2.9108,-2.9067,-2.8994,-2.9089,-2.9228,-2.9399,-2.9495,-2.9696,-2.9992,-3.0066,-3.0169,-3.0299,-3.0359,-3.0425,-3.0455,-3.0425,-3.0394,-3.0414,-3.039,-3.0398,-3.041,-3.0406,-3.0406,-3.0414,-3.0516,-3.0576,-3.0616,-3.0673,-3.0741,-3.0806,-3.0847,-3.0879,-3.0899,-3.0905,-3.0907,-3.0907,-3.0894,-3.0878,-3.0859,-3.0801,-3.0784,-3.0735,-3.0625,-3.0604,-3.0598,-3.0598,-3.0598,-3.0598,-3.0598,-3.0598,-3.0598,-3.0598,-3.0598,0.0,0.0,-3.0598,-3.0598,-3.0598,-3.0598,-3.0598,-3.0598,-3.0598,-3.0598,-3.0598,-3.0598,-3.0598,-3.0598,-3.0559,-3.054,-3.0509,-3.0499,-3.049,-3.0491,-3.049,-3.0672,-3.1058,-3.1892,-3.2752,-3.3627,-3.45,-3.5168,-3.5643,-3.5616,-3.5572,-3.5534,-3.5522,-3.5522,-3.5553,-3.5596,-3.562,-3.5643,-3.5684,-3.5704,-3.5704,-2.5329,-2.5795,-2.6137,-2.6537,-2.6503,-2.6486,-2.6657,-2.6691,-2.6791,-2.7053,-2.7117,-2.7276,-2.7624,-2.7695,-2.7783,-2.7964,-2.8255,-2.8525,-2.8694,-2.898,-2.9134,-2.9112,-2.9156,-2.9156,-2.9062,-2.9175,-2.9267,-2.9377,-2.9494,-2.9644,-2.9836,-2.9992,-3.0114,-3.0215,-3.034,-3.0439,-3.0499,-3.0458,-3.0428,-3.0428,-3.0414,-3.0433,-3.0414,-3.0428,-3.0409,-3.0428,-3.0509,-3.0539,-3.0588,-3.0588,-3.069,-3.0776,-3.0794,-3.0856,-3.0899,-3.0899,-3.0901,-3.0909,-3.0898,-3.0898,-3.0898,-3.084,-3.082,-3.0797,-3.0658,-3.0614,-3.0617,-3.0598,-3.0598,-3.0598,-3.0598,-3.0598,-3.0598,-3.0598,0.0,0.0,0.0,-3.0598,-3.0598,-3.0598,-3.0598,-3.0598,-3.0598,-3.0598,-3.0598,-3.0598,-3.0598,-3.0598,-3.0598,-3.053,-3.051,-3.049,-3.0509,-3.049,-3.0491,-3.049,-3.0469,-3.0428,-3.1303,-3.2162,-3.3026,-3.3909,-3.477,-3.5612,-3.5596,-3.5572,-3.5515,-3.5515,-3.5495,-3.5515,-3.556,-3.5596,-3.5612,-3.5673,-3.5704,-3.5704,-2.5443,-2.546,-2.5572,-2.6468,-2.6349,-2.6245,-2.6657,-2.6691,-2.6725,-2.6725,-2.6825,-2.6959,-2.6975,-2.707,-2.7307,-2.7595,-2.7811,-2.8147,-2.8669,-2.8887,-2.9067,-2.9178,-2.92,-2.92,-2.9178,-2.9262,-2.9302,-2.9304,-2.9368,-2.9491,-2.9626,-2.9817,-3.0026,-3.0215,-3.034,-3.0439,-3.0499,-3.0479,-3.0479,-3.0479,-3.0499,-3.0499,-3.0499,-3.0481,-3.05,-3.0509,-3.0579,-3.0559,-3.052,-3.0588,-3.0646,-3.0715,-3.0784,-3.0853,-3.0899,-3.0899,-3.0892,-3.0898,-3.0898,-3.0898,-3.0898,-3.0898,-3.0898,-3.0857,-3.0728,-3.0683,-3.0675,-3.0617,-3.0598,-3.0598,-3.0598,-3.0598,-3.0598,-3.0598,0.0,0.0,-3.0598,-3.0598,-3.0598,-3.0598,-3.0598,-3.0598,-3.0598,-3.0598,-3.0598,-3.0598,-3.0598,-3.0598,-3.0598,-3.053,-3.0491,-3.0491,-3.049,-3.049,-3.0491,-3.049,-3.0499,-3.0499,-3.1311,-3.2158,-3.3026,-3.3905,-3.4797,-3.5684,-3.5631,-3.5608,-3.5591,-3.5534,-3.5502,-3.5515,-3.556,-3.5596,-3.5612,-3.5673,-3.5704,-3.5704,-2.4942,-2.5176,-2.5519,-2.6191,-2.6173,-2.6085,-2.628,-2.6539,-2.6624,-2.6453,-2.6691,-2.6942,-2.7023,-2.707,-2.7198,-2.739,-2.7713,-2.801,-2.8246,-2.8601,-2.8952,-2.924,-2.9262,-2.924,-2.92,-2.928,-2.9302,-2.9302,-2.9365,-2.9429,-2.9491,-2.9767,-2.9962,-3.0099,-3.0352,-3.05,-3.0569,-3.051,-3.05,-3.05,-3.0509,-3.0499,-3.0509,-3.051,-3.051,-3.051,-3.0588,-3.0569,-3.0559,-3.0598,-3.0636,-3.0701,-3.072,-3.0808,-3.0894,-3.0903,-3.0892,-3.0898,-3.0898,-3.0898,-3.0896,-3.0857,-3.0839,-3.0788,-3.0676,-3.0632,-3.0636,-3.0617,-3.0598,-3.0598,-3.0598,-3.0598,-3.0598,-3.0598,0.0,-3.0598,-3.0598,-3.0598,-3.0598,-3.0598,-3.0598,-3.0598,-3.0598,-3.0598,-3.0598,-3.0598,-3.0598,-3.0598,-3.0598,-3.054,-3.05,-3.05,-3.0509,-3.049,-3.0491,-3.049,-3.0469,-3.0439,-3.0752,-3.163,-3.3006,-3.3396,-3.4337,-3.5704,-3.5631,-3.5608,-3.5591,-3.5528,-3.5515,-3.5496,-3.5528,-3.5565,-3.5601,-3.5631,-3.5654,-3.5704,-2.4664,-2.4902,-2.5253,-2.5799,-2.5779,-2.5721,-2.5872,-2.621,-2.6367,-2.633,-2.6623,-2.6892,-2.7103,-2.7135,-2.7201,-2.7282,-2.763,-2.7869,-2.7982,-2.8456,-2.8839,-2.9112,-2.9175,-2.9175,-2.9156,-2.924,-2.9302,-2.9344,-2.9386,-2.9427,-2.945,-2.975,-2.9943,-3.0052,-3.0356,-3.053,-3.0598,-3.0559,-3.053,-3.053,-3.053,-3.053,-3.053,-3.052,-3.053,-3.053,-3.0569,-3.0598,-3.0598,-3.0598,-3.0636,-3.0673,-3.0695,-3.0799,-3.0898,-3.0892,-3.0896,-3.0898,-3.0898,-3.0898,-3.0871,-3.0828,-3.0791,-3.0752,-3.0636,-3.0598,-3.0598,-3.0598,-3.0598,-3.0598,-3.0598,-3.0598,-3.0598,-3.0598,-3.0598,-3.0598,-3.0598,-3.0598,-3.0598,-3.0598,-3.0598,-3.0598,-3.0598,-3.0598,-3.0598,-3.0598,-3.0598,-3.0588,-3.0579,-3.0519,-3.0499,-3.0499,-3.0499,-3.049,-3.0491,-3.049,-3.0469,-3.0428,-3.0398,-3.1295,-3.2987,-3.3059,-3.4058,-3.5704,-3.5643,-3.562,-3.5596,-3.5553,-3.5528,-3.5528,-3.554,-3.5565,-3.5601,-3.5612,-3.5673,-3.5704,-2.4799,-2.4558,-2.4574,-2.5351,-2.516,-2.5059,-2.5427,-2.5668,-2.5941,-2.626,-2.6521,-2.6791,-2.7053,-2.7233,-2.7299,-2.7299,-2.7557,-2.7771,-2.7982,-2.8507,-2.8815,-2.8815,-2.8863,-2.8975,-2.9089,-2.9156,-2.9262,-2.9407,-2.9407,-2.9429,-2.9512,-2.9784,-2.9973,-3.0122,-3.0386,-3.053,-3.0598,-3.0598,-3.0598,-3.0598,-3.0598,-3.0598,-3.0598,-3.0598,-3.0598,-3.0598,-3.0598,-3.0598,-3.0598,-3.0598,-3.0598,-3.0615,-3.0675,-3.078,-3.0898,-3.0898,-3.0898,-3.0898,-3.0898,-3.0898,-3.0871,-3.0808,-3.08,-3.0772,-3.0636,-3.0598,-3.0598,-3.0598,-3.0598,-3.0598,-3.0598,-3.0598,-3.0598,-3.0598,-3.0598,-3.0598,-3.0598,-3.0598,-3.0598,-3.0598,-3.0598,-3.0598,-3.0598,-3.0598,-3.0598,-3.0598,-3.0598,-3.0579,-3.0509,-3.0499,-3.0499,-3.0499,-3.0499,-3.049,-3.0491,-3.049,-3.0499,-3.0499,-3.0428,-3.1306,-3.2987,-3.3059,-3.4058,-3.5704,-3.5704,-3.5654,-3.5601,-3.5601,-3.5608,-3.5604,-3.5589,-3.5601,-3.5612,-3.5673,-3.5704,-3.5704,-2.441,-2.4385,-2.4451,-2.4981,-2.5176,-2.5291,-2.5406,-2.5832,-2.6173,-2.6295,-2.6521,-2.6842,-2.7201,-2.7282,-2.7299,-2.7299,-2.7557,-2.7818,-2.8136,-2.83,-2.838,-2.838,-2.8718,-2.898,-2.9163,-2.9228,-2.9351,-2.9471,-2.9569,-2.9569,-2.9512,-2.9822,-3.0011,-3.0122,-3.0321,-3.05,-3.0598,-3.0598,-3.0598,-3.0598,-3.0598,-3.0598,-3.0598,-3.0598,-3.0598,-3.0598,-3.0598,-3.0598,-3.0598,-3.0598,-3.0598,-3.0613,-3.0729,-3.0799,-3.084,-3.0898,-3.0898,-3.0898,-3.0898,-3.0898,-3.0878,-3.0821,-3.0788,-3.0772,-3.0694,-3.0636,-3.0598,-3.0598,-3.0598,-3.0598,-3.0598,-3.0559,-3.055,-3.0598,-3.0559,-3.0559,-3.0598,-3.0598,-3.0598,-3.0598,-3.0598,-3.0598,-3.0598,-3.0598,-3.0598,-3.0598,-3.0598,-3.0579,-3.0509,-3.0499,-3.0488,-3.0433,-3.0477,-3.0509,-3.049,-3.0509,-3.0469,-3.0428,-3.0458,-3.1367,-3.2987,-3.3081,-3.4049,-3.5704,-3.5704,-3.5654,-3.5601,-3.5601,-3.5601,-3.5608,-3.5596,-3.5639,-3.5673,-3.5643,-3.5673,-3.5704,-2.4051,-2.4094,-2.4204,-2.4599,-2.4839,-2.4997,-2.5153,-2.5535,-2.5885,-2.6066,-2.6418,-2.6775,-2.7055,-2.7296,-2.7421,-2.7421,-2.7707,-2.7968,-2.82,-2.8182,-2.8209,-2.8237,-2.8536,-2.8821,-2.9082,-2.9169,-2.9334,-2.9569,-2.9664,-2.9683,-2.9626,-2.9874,-3.0049,-3.0114,-3.0297,-3.0449,-3.051,-3.0588,-3.0607,-3.0606,-3.0606,-3.0606,-3.0606,-3.0606,-3.0597,-3.0598,-3.0598,-3.0598,-3.0598,-3.0598,-3.0598,-3.0623,-3.0735,-3.0786,-3.0801,-3.0879,-3.0898,-3.0898,-3.0898,-3.0898,-3.0898,-3.0859,-3.0813,-3.0775,-3.0722,-3.0645,-3.0602,-3.0607,-3.0598,-3.0598,-3.0598,-3.055,-3.052,-3.0598,-3.053,-3.052,-3.0598,-3.0598,-3.0598,-3.0598,-3.0598,-3.0598,-3.0598,-3.0598,-3.0598,-3.0598,-3.0598,-3.0579,-3.0509,-3.0499,-3.0458,-3.0402,-3.0477,-3.0509,-3.05,-3.05,-3.0479,-3.0439,-3.0479,-3.1367,-3.2987,-3.307,-3.4049,-3.5704,-3.5704,-3.5673,-3.5643,-3.5643,-3.5643,-3.5643,-3.5639,-3.5651,-3.5704,-3.5643,-3.5673,-3.5704,-2.3696,-2.3754,-2.3882,-2.4219,-2.4302,-2.4451,-2.4775,-2.5052,-2.5362,-2.5779,-2.6279,-2.6624,-2.6758,-2.7213,-2.7509,-2.7557,-2.7911,-2.8126,-2.8209,-2.8209,-2.8237,-2.83,-2.8353,-2.8551,-2.8865,-2.9042,-2.9293,-2.9683,-2.972,-2.9756,-2.9808,-2.9924,-3.0019,-3.0109,-3.0292,-3.0375,-3.0398,-3.053,-3.0568,-3.0602,-3.0593,-3.0602,-3.061,-3.061,-3.0604,-3.0607,-3.0598,-3.0598,-3.0598,-3.0598,-3.0598,-3.0617,-3.0675,-3.0745,-3.08,-3.0879,-3.0898,-3.0898,-3.0898,-3.0898,-3.0898,-3.0898,-3.0859,-3.0799,-3.0739,-3.0677,-3.062,-3.0606,-3.0598,-3.0598,-3.0598,-3.053,-3.052,-3.0588,-3.055,-3.052,-3.0569,-3.0598,-3.0598,-3.0598,-3.0588,-3.0588,-3.0598,-3.0598,-3.0598,-3.0598,-3.0598,-3.0579,-3.0509,-3.0499,-3.0469,-3.0398,-3.0469,-3.049,-3.0491,-3.052,-3.051,-3.0509,-3.0509,-3.1339,-3.2902,-3.304,-3.4019,-3.5588,-3.5665,-3.5704,-3.5704,-3.5704,-3.5704,-3.5704,-3.5704,-3.5704,-3.5704,-3.5704,-3.5704,-3.5704,-2.3304,-2.3407,-2.3523,-2.3839,-2.4297,-2.4744,-2.5107,-2.553,-2.5921,-2.6227,-2.6295,-2.6365,-2.664,-2.6657,-2.6825,-2.7244,-2.7818,-2.8219,-2.8273,-2.8273,-2.8273,-2.83,-2.8353,-2.8525,-2.8814,-2.9104,-2.9334,-2.9531,-2.9754,-2.9841,-2.9808,-2.9891,-2.9988,-3.0109,-3.0152,-3.0228,-3.0328,-3.0355,-3.0428,-3.051,-3.053,-3.0585,-3.0676,-3.0618,-3.0602,-3.0604,-3.0588,-3.0598,-3.0598,-3.0598,-3.0598,-3.0617,-3.0675,-3.0704,-3.0749,-3.0857,-3.0898,-3.0898,-3.0898,-3.0898,-3.0898,-3.0898,-3.0898,-3.0879,-3.0857,-3.0796,-3.0732,-3.0687,-3.0636,-3.0569,-3.053,-3.051,-3.049,-3.0519,-3.0519,-3.0519,-3.052,-3.052,-3.052,-3.052,-3.051,-3.053,-3.052,-3.0569,-3.0598,-3.0598,-3.0598,-3.0579,-3.0509,-3.0499,-3.0477,-3.0402,-3.0477,-3.0509,-3.049,-3.055,-3.0559,-3.051,-3.049,-3.106,-3.2085,-3.278,-3.3671,-3.4717,-3.5394,-3.5704,-3.5704,-3.5704,-3.5704,-3.5704,-3.5704,-3.5704,-3.5704,-3.5704,-3.5704,-3.5704,-2.2949,-2.3038,-2.3172,-2.3696,-2.4199,-2.4728,-2.5169,-2.5642,-2.601,-2.6189,-2.626,-2.633,-2.6435,-2.6657,-2.6939,-2.7369,-2.7701,-2.7961,-2.8101,-2.8128,-2.8255,-2.8432,-2.8484,-2.8569,-2.8755,-2.9012,-2.9249,-2.9394,-2.9551,-2.9589,-2.957,-2.9699,-2.9786,-2.9869,-3.003,-3.0133,-3.0215,-3.0273,-3.0352,-3.0462,-3.0511,-3.0593,-3.0642,-3.0656,-3.0622,-3.0602,-3.0595,-3.0597,-3.0598,-3.0598,-3.0597,-3.0606,-3.0684,-3.0722,-3.0767,-3.0876,-3.0898,-3.0898,-3.0898,-3.0898,-3.0898,-3.0898,-3.0898,-3.0898,-3.0898,-3.0859,-3.0798,-3.0759,-3.0695,-3.0636,-3.0559,-3.0558,-3.0537,-3.0519,-3.0479,-3.0449,-3.051,-3.0491,-3.0501,-3.053,-3.051,-3.05,-3.0491,-3.053,-3.0559,-3.0598,-3.0598,-3.0559,-3.05,-3.0509,-3.0458,-3.0394,-3.0428,-3.0439,-3.0439,-3.051,-3.053,-3.0491,-3.05,-3.0954,-3.1825,-3.2694,-3.3575,-3.4447,-3.5317,-3.5704,-3.5704,-3.5704,-3.5704,-3.5704,-3.5704,-3.5704,-3.5704,-3.5704,-3.5704,-3.5704,-2.242,-2.2603,-2.2875,-2.3523,-2.3991,-2.443,-2.4958,-2.5476,-2.5807,-2.5828,-2.6101,-2.6243,-2.6137,-2.6758,-2.7244,-2.7474,-2.7565,-2.7683,-2.784,-2.7897,-2.811,-2.8492,-2.8536,-2.8612,-2.8694,-2.8863,-2.9052,-2.9251,-2.9293,-2.9314,-2.9314,-2.9532,-2.9608,-2.9626,-2.9937,-3.0079,-3.0094,-3.0202,-3.0285,-3.0386,-3.0501,-3.0565,-3.0618,-3.0665,-3.0651,-3.0626,-3.0618,-3.0613,-3.0607,-3.0607,-3.0595,-3.0602,-3.0701,-3.0749,-3.0793,-3.085,-3.0878,-3.0879,-3.0879,-3.0898,-3.0898,-3.0898,-3.0898,-3.0898,-3.0898,-3.0859,-3.0801,-3.0801,-3.0763,-3.0704,-3.064,-3.0617,-3.0588,-3.0521,-3.0462,-3.0441,-3.0501,-3.052,-3.052,-3.0579,-3.052,-3.0491,-3.0491,-3.0491,-3.053,-3.0598,-3.0598,-3.0569,-3.0501,-3.05,-3.0469,-3.0398,-3.0398,-3.0398,-3.0398,-3.0471,-3.0491,-3.0491,-3.052,-3.0887,-3.1612,-3.2471,-3.3274,-3.4021,-3.5027,-3.5472,-3.5491,-3.5646,-3.5704,-3.5704,-3.5704,-3.5704,-3.5704,-3.5704,-3.5704,-3.5704,-2.1636,-2.2203,-2.274,-2.283,-2.3391,-2.3948,-2.4369,-2.4934,-2.5269,-2.5208,-2.553,-2.568,-2.553,-2.6332,-2.6906,-2.7002,-2.7426,-2.7654,-2.7624,-2.7683,-2.7886,-2.8174,-2.8264,-2.844,-2.8694,-2.8718,-2.8845,-2.9038,-2.9272,-2.9392,-2.9373,-2.9589,-2.9644,-2.9608,-2.9839,-2.9972,-3.0003,-3.0034,-3.0099,-3.0241,-3.0309,-3.0433,-3.0595,-3.0607,-3.0644,-3.0685,-3.0697,-3.0653,-3.0593,-3.0593,-3.0602,-3.0618,-3.0749,-3.0756,-3.0722,-3.0793,-3.0806,-3.0801,-3.0801,-3.0859,-3.0898,-3.0898,-3.0898,-3.0898,-3.0898,-3.0898,-3.0879,-3.0801,-3.0799,-3.0769,-3.07,-3.0691,-3.0668,-3.0591,-3.0582,-3.0577,-3.0586,-3.053,-3.0509,-3.0509,-3.0509,-3.05,-3.0491,-3.0491,-3.053,-3.0598,-3.0598,-3.0569,-3.0501,-3.05,-3.0469,-3.0398,-3.0398,-3.0398,-3.0398,-3.0471,-3.0491,-3.0491,-3.0559,-3.0617,-3.0714,-3.1581,-3.2036,-3.2231,-3.3815,-3.4522,-3.4621,-3.5394,-3.5704,-3.5704,-3.5704,-3.5704,-3.5704,-3.5704,-3.5704,-3.5704,-2.165,-2.217,-2.2572,-2.2282,-2.3098,-2.3906,-2.4261,-2.4879,-2.5253,-2.5169,-2.5246,-2.5301,-2.5262,-2.5832,-2.6385,-2.6757,-2.6987,-2.7195,-2.7369,-2.7474,-2.7736,-2.8192,-2.8344,-2.8543,-2.881,-2.8785,-2.8791,-2.8892,-2.8962,-2.903,-2.9071,-2.9254,-2.9416,-2.9495,-2.9698,-2.9874,-3.0007,-3.0038,-3.0064,-3.0099,-3.0228,-3.0348,-3.0433,-3.053,-3.0591,-3.0644,-3.069,-3.0668,-3.061,-3.0634,-3.0661,-3.0668,-3.0769,-3.0781,-3.0767,-3.0794,-3.0801,-3.0793,-3.0797,-3.0859,-3.0898,-3.0898,-3.0898,-3.0898,-3.0898,-3.0898,-3.0898,-3.0859,-3.0859,-3.0839,-3.0767,-3.0719,-3.0697,-3.0659,-3.0599,-3.0558,-3.0595,-3.0501,-3.0477,-3.0546,-3.0528,-3.0509,-3.0543,-3.0528,-3.0501,-3.053,-3.0588,-3.0588,-3.0559,-3.0519,-3.0499,-3.0458,-3.0425,-3.0402,-3.0402,-3.0428,-3.046,-3.05,-3.052,-3.0559,-3.0579,-3.1428,-3.1795,-3.1864,-3.31,-3.3892,-3.4386,-3.4795,-3.5259,-3.5704,-3.5704,-3.5704,-3.5704,-3.5704,-3.5704,-3.5704]}]]